| time (UTC) | temp C | wind direction | speed KPH | gust KPH | rain 1hr cm | rain 24hr cm | rain mn cm | humidity % | barometer mb |
| 20260831025003 | 31 | 316 | 6.4 | 17.7 | 0.00 | 0.00 | 0.00 | 40 | 1014.8 |
| 20260831024903 | 31 | 315 | 6.4 | 17.7 | 0.00 | 0.00 | 0.00 | 40 | 1014.8 |
| 20260831024803 | 31 | 314 | 6.4 | 17.7 | 0.00 | 0.00 | 0.00 | 40 | 1014.7 |
| 20260831024724 | 31 | 313 | 6.4 | 17.7 | 0.00 | 0.00 | 0.00 | 40 | 1014.7 |
| 20260831024603 | 31 | 314 | 6.4 | 17.7 | 0.00 | 0.00 | 0.00 | 40 | 1014.7 |
| 20260831024503 | 31 | 314 | 6.4 | 17.7 | 0.00 | 0.00 | 0.00 | 41 | 1014.6 |
| 20260831024424 | 31 | 316 | 6.4 | 17.7 | 0.00 | 0.00 | 0.00 | 41 | 1014.6 |
| 20260831024303 | 31 | 312 | 6.4 | 17.7 | 0.00 | 0.00 | 0.00 | 41 | 1014.7 |
| 20260831024204 | 31 | 308 | 4.8 | 16.1 | 0.00 | 0.00 | 0.00 | 41 | 1014.6 |
| 20260831024103 | 31 | 311 | 4.8 | 16.1 | 0.00 | 0.00 | 0.00 | 41 | 1014.6 |
| 20260831024003 | 31 | 313 | 4.8 | 16.1 | 0.00 | 0.00 | 0.00 | 41 | 1014.6 |
| 20260831023903 | 31 | 314 | 4.8 | 16.1 | 0.00 | 0.00 | 0.00 | 41 | 1014.6 |
| 20260831023803 | 31 | 314 | 6.4 | 16.1 | 0.00 | 0.00 | 0.00 | 41 | 1014.6 |
| 20260831023724 | 31 | 315 | 6.4 | 16.1 | 0.00 | 0.00 | 0.00 | 41 | 1014.5 |
| 20260831023603 | 31 | 311 | 6.4 | 16.1 | 0.00 | 0.00 | 0.00 | 41 | 1014.6 |
| 20260831023503 | 31 | 314 | 6.4 | 16.1 | 0.00 | 0.00 | 0.00 | 41 | 1014.6 |
| 20260831023403 | 31 | 314 | 6.4 | 16.1 | 0.00 | 0.00 | 0.00 | 42 | 1014.5 |
| 20260831023303 | 31 | 317 | 6.4 | 16.1 | 0.00 | 0.00 | 0.00 | 42 | 1014.6 |
| 20260831023203 | 31 | 318 | 8.0 | 16.1 | 0.00 | 0.00 | 0.00 | 42 | 1014.6 |
| 20260831023103 | 31 | 319 | 8.0 | 16.1 | 0.00 | 0.00 | 0.00 | 42 | 1014.5 |
| 20260831023024 | 31 | 319 | 8.0 | 16.1 | 0.00 | 0.00 | 0.00 | 42 | 1014.5 |
| 20260831022903 | 31 | 318 | 6.4 | 16.1 | 0.00 | 0.00 | 0.00 | 42 | 1014.5 |
| 20260831022803 | 31 | 318 | 6.4 | 16.1 | 0.00 | 0.00 | 0.00 | 42 | 1014.5 |
| 20260831022703 | 31 | 319 | 6.4 | 16.1 | 0.00 | 0.00 | 0.00 | 42 | 1014.4 |
| 20260831022603 | 31 | 320 | 6.4 | 16.1 | 0.00 | 0.00 | 0.00 | 42 | 1014.4 |
| 20260831022524 | 31 | 319 | 6.4 | 16.1 | 0.00 | 0.00 | 0.00 | 42 | 1014.4 |
| 20260831022403 | 31 | 316 | 6.4 | 17.7 | 0.00 | 0.00 | 0.00 | 42 | 1014.4 |
| 20260831022306 | 31 | 315 | 6.4 | 17.7 | 0.00 | 0.00 | 0.00 | 42 | 1014.3 |
| 20260831022203 | 31 | 313 | 6.4 | 17.7 | 0.00 | 0.00 | 0.00 | 43 | 1014.4 |
| 20260831022103 | 31 | 309 | 6.4 | 17.7 | 0.00 | 0.00 | 0.00 | 43 | 1014.3 |
| 20260831022003 | 31 | 309 | 6.4 | 17.7 | 0.00 | 0.00 | 0.00 | 43 | 1014.3 |
| 20260831021903 | 31 | 312 | 6.4 | 17.7 | 0.00 | 0.00 | 0.00 | 43 | 1014.2 |
| 20260831021824 | 31 | 316 | 6.4 | 17.7 | 0.00 | 0.00 | 0.00 | 43 | 1014.2 |
| 20260831021703 | 31 | 315 | 6.4 | 17.7 | 0.00 | 0.00 | 0.00 | 43 | 1014.2 |
| 20260831021603 | 31 | 315 | 6.4 | 17.7 | 0.00 | 0.00 | 0.00 | 43 | 1014.2 |
| 20260831021503 | 31 | 317 | 6.4 | 17.7 | 0.00 | 0.00 | 0.00 | 43 | 1014.2 |
| 20260831021403 | 31 | 319 | 6.4 | 19.3 | 0.00 | 0.00 | 0.00 | 44 | 1014.2 |
| 20260831021303 | 31 | 318 | 6.4 | 19.3 | 0.00 | 0.00 | 0.00 | 44 | 1014.2 |
| 20260831021203 | 31 | 323 | 6.4 | 19.3 | 0.00 | 0.00 | 0.00 | 44 | 1014.2 |
| 20260831021124 | 31 | 325 | 6.4 | 19.3 | 0.00 | 0.00 | 0.00 | 44 | 1014.1 |
| 20260831021003 | 32 | 327 | 6.4 | 19.3 | 0.00 | 0.00 | 0.00 | 44 | 1014.1 |
| 20260831020903 | 32 | 324 | 6.4 | 19.3 | 0.00 | 0.00 | 0.00 | 44 | 1014.1 |
| 20260831020803 | 32 | 318 | 8.0 | 19.3 | 0.00 | 0.00 | 0.00 | 45 | 1014.1 |
| 20260831020703 | 32 | 319 | 8.0 | 19.3 | 0.00 | 0.00 | 0.00 | 45 | 1014.1 |
| 20260831020624 | 32 | 320 | 8.0 | 19.3 | 0.00 | 0.00 | 0.00 | 45 | 1014.1 |
| 20260831020503 | 32 | 319 | 8.0 | 19.3 | 0.00 | 0.00 | 0.00 | 45 | 1014.0 |
| 20260831020403 | 32 | 318 | 8.0 | 17.7 | 0.00 | 0.00 | 0.00 | 46 | 1014.1 |
| 20260831020303 | 32 | 317 | 8.0 | 17.7 | 0.00 | 0.00 | 0.00 | 46 | 1014.1 |
| 20260831020203 | 32 | 313 | 6.4 | 16.1 | 0.00 | 0.00 | 0.00 | 46 | 1014.0 |
| 20260831020103 | 32 | 310 | 6.4 | 16.1 | 0.00 | 0.00 | 0.00 | 46 | 1014.0 |
| 20260831020024 | 32 | 310 | 6.4 | 16.1 | 0.00 | 0.00 | 0.00 | 46 | 1014.0 |
| 20260831015903 | 32 | 312 | 6.4 | 16.1 | 0.00 | 0.00 | 0.00 | 46 | 1014.0 |
| 20260831015803 | 32 | 312 | 6.4 | 16.1 | 0.00 | 0.00 | 0.00 | 47 | 1014.0 |
| 20260831015703 | 32 | 314 | 4.8 | 16.1 | 0.00 | 0.00 | 0.00 | 47 | 1013.9 |
| 20260831015624 | 32 | 311 | 4.8 | 16.1 | 0.00 | 0.00 | 0.00 | 47 | 1014.0 |
| 20260831015503 | 32 | 310 | 4.8 | 16.1 | 0.00 | 0.00 | 0.00 | 47 | 1014.0 |
| 20260831015403 | 32 | 310 | 4.8 | 16.1 | 0.00 | 0.00 | 0.00 | 47 | 1013.9 |
| 20260831015305 | 32 | 311 | 4.8 | 16.1 | 0.00 | 0.00 | 0.00 | 47 | 1013.9 |
| 20260831015203 | 32 | 309 | 6.4 | 16.1 | 0.00 | 0.00 | 0.00 | 47 | 1013.9 |
| 20260831015124 | 32 | 309 | 6.4 | 14.5 | 0.00 | 0.00 | 0.00 | 47 | 1013.9 |
| 20260831015003 | 32 | 307 | 6.4 | 29.0 | 0.00 | 0.00 | 0.00 | 47 | 1013.9 |
| 20260831014903 | 32 | 307 | 6.4 | 29.0 | 0.00 | 0.00 | 0.00 | 47 | 1013.8 |
| 20260831014804 | 32 | 304 | 6.4 | 29.0 | 0.00 | 0.00 | 0.00 | 47 | 1013.8 |
| 20260831014703 | 32 | 302 | 6.4 | 29.0 | 0.00 | 0.00 | 0.00 | 47 | 1013.7 |
| 20260831014603 | 32 | 300 | 6.4 | 29.0 | 0.00 | 0.00 | 0.00 | 47 | 1013.7 |
| 20260831014503 | 32 | 300 | 6.4 | 29.0 | 0.00 | 0.00 | 0.00 | 47 | 1013.7 |
| 20260831014404 | 32 | 298 | 6.4 | 29.0 | 0.00 | 0.00 | 0.00 | 47 | 1013.6 |
| 20260831014303 | 32 | 296 | 6.4 | 29.0 | 0.00 | 0.00 | 0.00 | 47 | 1013.7 |
| 20260831014203 | 32 | 294 | 6.4 | 29.0 | 0.00 | 0.00 | 0.00 | 47 | 1013.6 |
| 20260831014103 | 32 | 291 | 6.4 | 29.0 | 0.00 | 0.00 | 0.00 | 47 | 1013.6 |
| 20260831014003 | 32 | 286 | 4.8 | 17.7 | 0.00 | 0.00 | 0.00 | 46 | 1013.6 |
| 20260831013903 | 32 | 281 | 4.8 | 17.7 | 0.00 | 0.00 | 0.00 | 46 | 1013.5 |
| 20260831013803 | 32 | 278 | 4.8 | 17.7 | 0.00 | 0.00 | 0.00 | 46 | 1013.5 |
| 20260831013703 | 32 | 273 | 3.2 | 14.5 | 0.00 | 0.00 | 0.00 | 46 | 1013.6 |
| 20260831013603 | 32 | 270 | 3.2 | 14.5 | 0.00 | 0.00 | 0.00 | 45 | 1013.5 |
| 20260831013505 | 32 | 264 | 3.2 | 14.5 | 0.00 | 0.00 | 0.00 | 45 | 1013.5 |
| 20260831013403 | 32 | 257 | 3.2 | 14.5 | 0.00 | 0.00 | 0.00 | 45 | 1013.5 |
| 20260831013303 | 32 | 255 | 3.2 | 14.5 | 0.00 | 0.00 | 0.00 | 45 | 1013.4 |
| 20260831013203 | 32 | 253 | 3.2 | 8.0 | 0.00 | 0.00 | 0.00 | 44 | 1013.4 |
| 20260831013103 | 32 | 254 | 3.2 | 8.0 | 0.00 | 0.00 | 0.00 | 44 | 1013.3 |
| 20260831013003 | 32 | 254 | 3.2 | 8.0 | 0.00 | 0.00 | 0.00 | 44 | 1013.3 |
| 20260831012903 | 32 | 254 | 3.2 | 8.0 | 0.00 | 0.00 | 0.00 | 44 | 1013.3 |
| 20260831012803 | 32 | 254 | 3.2 | 8.0 | 0.00 | 0.00 | 0.00 | 44 | 1013.3 |
| 20260831012703 | 32 | 255 | 1.6 | 8.0 | 0.00 | 0.00 | 0.00 | 44 | 1013.3 |
| 20260831012603 | 32 | 255 | 1.6 | 8.0 | 0.00 | 0.00 | 0.00 | 44 | 1013.3 |
| 20260831012503 | 32 | 255 | 1.6 | 8.0 | 0.00 | 0.00 | 0.00 | 44 | 1013.3 |
| 20260831012424 | 32 | 255 | 1.6 | 8.0 | 0.00 | 0.00 | 0.00 | 43 | 1013.3 |
| 20260831012324 | 33 | 255 | 1.6 | 6.4 | 0.00 | 0.00 | 0.00 | 43 | 1013.3 |
| 20260831012203 | 33 | 255 | 1.6 | 4.8 | 0.00 | 0.00 | 0.00 | 43 | 1013.3 |
| 20260831012103 | 33 | 255 | 1.6 | 4.8 | 0.00 | 0.00 | 0.00 | 43 | 1013.3 |
| 20260831012003 | 33 | 255 | 1.6 | 4.8 | 0.00 | 0.00 | 0.00 | 43 | 1013.2 |
| 20260831011903 | 33 | 255 | 1.6 | 4.8 | 0.00 | 0.00 | 0.00 | 43 | 1013.3 |
| 20260831011803 | 33 | 255 | 1.6 | 4.8 | 0.00 | 0.00 | 0.00 | 43 | 1013.3 |
| 20260831011703 | 33 | 255 | 1.6 | 4.8 | 0.00 | 0.00 | 0.00 | 43 | 1013.2 |
| 20260831011603 | 33 | 255 | 1.6 | 4.8 | 0.00 | 0.00 | 0.00 | 42 | 1013.2 |
| 20260831011503 | 33 | 255 | 1.6 | 4.8 | 0.00 | 0.00 | 0.00 | 42 | 1013.2 |
| 20260831011424 | 33 | 255 | 1.6 | 4.8 | 0.00 | 0.00 | 0.00 | 42 | 1013.2 |
| 20260831011324 | 33 | 255 | 1.6 | 4.8 | 0.00 | 0.00 | 0.00 | 42 | 1013.2 |
| 20260831011203 | 33 | 255 | 1.6 | 4.8 | 0.00 | 0.00 | 0.00 | 42 | 1013.2 |
| 20260831011103 | 33 | 255 | 1.6 | 4.8 | 0.00 | 0.00 | 0.00 | 42 | 1013.2 |
| 20260831011003 | 33 | 255 | 1.6 | 4.8 | 0.00 | 0.00 | 0.00 | 42 | 1013.2 |
| 20260831010924 | 33 | 255 | 1.6 | 4.8 | 0.00 | 0.00 | 0.00 | 42 | 1013.2 |
| 20260831010803 | 33 | 255 | 1.6 | 4.8 | 0.00 | 0.00 | 0.00 | 42 | 1013.2 |
| 20260831010724 | 33 | 255 | 1.6 | 4.8 | 0.00 | 0.00 | 0.00 | 42 | 1013.2 |
| 20260831010624 | 33 | 255 | 1.6 | 4.8 | 0.00 | 0.00 | 0.00 | 42 | 1013.2 |
| 20260831010503 | 33 | 255 | 1.6 | 4.8 | 0.00 | 0.00 | 0.00 | 42 | 1013.2 |
| 20260831010403 | 33 | 255 | 1.6 | 4.8 | 0.00 | 0.00 | 0.00 | 42 | 1013.2 |
| 20260831010303 | 33 | 255 | 1.6 | 6.4 | 0.00 | 0.00 | 0.00 | 41 | 1013.2 |
| 20260831010203 | 33 | 255 | 1.6 | 6.4 | 0.00 | 0.00 | 0.00 | 41 | 1013.2 |
| 20260831010003 | 33 | 255 | 1.6 | 6.4 | 0.00 | 0.00 | 0.00 | 41 | 1013.2 |
| 20260831005903 | 33 | 255 | 1.6 | 6.4 | 0.00 | 0.00 | 0.00 | 41 | 1013.2 |
| 20260831005803 | 33 | 255 | 1.6 | 6.4 | 0.00 | 0.00 | 0.00 | 41 | 1013.2 |
| 20260831005703 | 33 | 255 | 1.6 | 6.4 | 0.00 | 0.00 | 0.00 | 41 | 1013.1 |
| 20260831005603 | 33 | 255 | 1.6 | 6.4 | 0.00 | 0.00 | 0.00 | 41 | 1013.1 |
| 20260831005503 | 33 | 255 | 1.6 | 6.4 | 0.00 | 0.00 | 0.00 | 41 | 1013.2 |
| 20260831005403 | 34 | 255 | 1.6 | 6.4 | 0.00 | 0.00 | 0.00 | 41 | 1013.2 |
| 20260831005306 | 34 | 255 | 1.6 | 6.4 | 0.00 | 0.00 | 0.00 | 41 | 1013.1 |
| 20260831005203 | 34 | 255 | 1.6 | 6.4 | 0.00 | 0.00 | 0.00 | 41 | 1013.1 |
| 20260831005103 | 34 | 255 | 1.6 | 6.4 | 0.00 | 0.00 | 0.00 | 41 | 1013.1 |
| 20260831005003 | 34 | 255 | 1.6 | 6.4 | 0.00 | 0.00 | 0.00 | 41 | 1013.1 |
| 20260831004903 | 34 | 255 | 1.6 | 6.4 | 0.00 | 0.00 | 0.00 | 40 | 1013.2 |
| 20260831004803 | 34 | 255 | 1.6 | 6.4 | 0.00 | 0.00 | 0.00 | 40 | 1013.2 |
| 20260831004703 | 34 | 255 | 1.6 | 6.4 | 0.00 | 0.00 | 0.00 | 40 | 1013.1 |
| 20260831004624 | 34 | 255 | 1.6 | 4.8 | 0.00 | 0.00 | 0.00 | 40 | 1013.2 |
| 20260831004524 | 34 | 255 | 1.6 | 6.4 | 0.00 | 0.00 | 0.00 | 41 | 1013.1 |
| 20260831004424 | 34 | 255 | 1.6 | 6.4 | 0.00 | 0.00 | 0.00 | 41 | 1013.2 |
| 20260831004303 | 34 | 255 | 1.6 | 6.4 | 0.00 | 0.00 | 0.00 | 40 | 1013.1 |
| 20260831004224 | 34 | 255 | 1.6 | 6.4 | 0.00 | 0.00 | 0.00 | 40 | 1013.1 |
| 20260831004103 | 34 | 255 | 1.6 | 6.4 | 0.00 | 0.00 | 0.00 | 40 | 1013.1 |
| 20260831004003 | 34 | 255 | 1.6 | 6.4 | 0.00 | 0.00 | 0.00 | 40 | 1013.1 |
| 20260831003924 | 34 | 255 | 1.6 | 6.4 | 0.00 | 0.00 | 0.00 | 40 | 1013.1 |
| 20260831003803 | 34 | 255 | 1.6 | 6.4 | 0.00 | 0.00 | 0.00 | 40 | 1013.1 |
| 20260831003703 | 34 | 255 | 1.6 | 6.4 | 0.00 | 0.00 | 0.00 | 40 | 1013.1 |
| 20260831003624 | 35 | 255 | 1.6 | 6.4 | 0.00 | 0.00 | 0.00 | 40 | 1013.1 |
| 20260831003503 | 35 | 255 | 1.6 | 4.8 | 0.00 | 0.00 | 0.00 | 40 | 1013.1 |
| 20260831003403 | 35 | 255 | 1.6 | 4.8 | 0.00 | 0.00 | 0.00 | 40 | 1013.1 |
| 20260831003303 | 35 | 255 | 1.6 | 4.8 | 0.00 | 0.00 | 0.00 | 40 | 1013.1 |
| 20260831003203 | 35 | 255 | 1.6 | 4.8 | 0.00 | 0.00 | 0.00 | 40 | 1013.1 |
| 20260831003103 | 35 | 255 | 1.6 | 4.8 | 0.00 | 0.00 | 0.00 | 40 | 1013.0 |
| 20260831003003 | 35 | 255 | 1.6 | 4.8 | 0.00 | 0.00 | 0.00 | 40 | 1013.0 |
| 20260831002903 | 35 | 255 | 1.6 | 4.8 | 0.00 | 0.00 | 0.00 | 40 | 1013.1 |
| 20260831002803 | 35 | 255 | 1.6 | 4.8 | 0.00 | 0.00 | 0.00 | 40 | 1013.0 |
| 20260831002703 | 35 | 255 | 3.2 | 4.8 | 0.00 | 0.00 | 0.00 | 40 | 1013.0 |
| 20260831002603 | 35 | 255 | 3.2 | 4.8 | 0.00 | 0.00 | 0.00 | 40 | 1013.0 |
| 20260831002503 | 35 | 255 | 3.2 | 4.8 | 0.00 | 0.00 | 0.00 | 40 | 1013.0 |
| 20260831002403 | 35 | 255 | 3.2 | 6.4 | 0.00 | 0.00 | 0.00 | 40 | 1012.9 |
| 20260831002306 | 35 | 255 | 3.2 | 6.4 | 0.00 | 0.00 | 0.00 | 40 | 1013.0 |
| 20260831002203 | 35 | 255 | 3.2 | 8.0 | 0.00 | 0.00 | 0.00 | 40 | 1013.0 |
| 20260831002124 | 35 | 255 | 3.2 | 8.0 | 0.00 | 0.00 | 0.00 | 39 | 1012.9 |
| 20260831002003 | 35 | 254 | 3.2 | 8.0 | 0.00 | 0.00 | 0.00 | 39 | 1013.0 |
| 20260831001924 | 35 | 254 | 3.2 | 8.0 | 0.00 | 0.00 | 0.00 | 39 | 1013.0 |
| 20260831001803 | 35 | 254 | 3.2 | 8.0 | 0.00 | 0.00 | 0.00 | 40 | 1012.9 |
| 20260831001704 | 35 | 254 | 3.2 | 8.0 | 0.00 | 0.00 | 0.00 | 40 | 1012.9 |
| 20260831001603 | 35 | 254 | 3.2 | 8.0 | 0.00 | 0.00 | 0.00 | 40 | 1012.9 |
| 20260831001503 | 35 | 254 | 3.2 | 8.0 | 0.00 | 0.00 | 0.00 | 40 | 1012.9 |
| 20260831001403 | 35 | 254 | 3.2 | 8.0 | 0.00 | 0.00 | 0.00 | 40 | 1012.9 |
| 20260831001303 | 35 | 253 | 3.2 | 8.0 | 0.00 | 0.00 | 0.00 | 40 | 1012.9 |
| 20260831001203 | 35 | 253 | 3.2 | 6.4 | 0.00 | 0.00 | 0.00 | 39 | 1012.9 |
| 20260831001103 | 35 | 254 | 3.2 | 9.7 | 0.00 | 0.00 | 0.00 | 40 | 1012.9 |
| 20260831001003 | 35 | 255 | 3.2 | 9.7 | 0.00 | 0.00 | 0.00 | 40 | 1012.9 |
| 20260831000903 | 35 | 257 | 3.2 | 9.7 | 0.00 | 0.00 | 0.00 | 40 | 1012.9 |
| 20260831000803 | 35 | 258 | 3.2 | 9.7 | 0.00 | 0.00 | 0.00 | 40 | 1012.9 |
| 20260831000703 | 35 | 260 | 1.6 | 9.7 | 0.00 | 0.00 | 0.00 | 40 | 1012.9 |
| 20260831000603 | 35 | 262 | 3.2 | 9.7 | 0.00 | 0.00 | 0.00 | 40 | 1012.9 |
| 20260831000524 | 35 | 262 | 3.2 | 9.7 | 0.00 | 0.00 | 0.00 | 40 | 1012.9 |
| 20260831000403 | 35 | 263 | 3.2 | 9.7 | 0.00 | 0.00 | 0.00 | 40 | 1012.9 |
| 20260831000303 | 35 | 265 | 3.2 | 9.7 | 0.00 | 0.00 | 0.00 | 40 | 1013.0 |
| 20260831000204 | 35 | 267 | 3.2 | 9.7 | 0.00 | 0.00 | 0.00 | 40 | 1012.9 |
| 20260831000103 | 35 | 268 | 3.2 | 8.0 | 0.00 | 0.00 | 0.00 | 40 | 1012.9 |
| 20260831000003 | 35 | 272 | 3.2 | 8.0 | 0.00 | 0.00 | 0.00 | 39 | 1013.0 |
| 20260830235903 | 35 | 273 | 3.2 | 8.0 | 0.00 | 0.00 | 0.00 | 39 | 1013.0 |
| 20260830235803 | 35 | 275 | 3.2 | 8.0 | 0.00 | 0.00 | 0.00 | 39 | 1013.0 |
| 20260830235703 | 35 | 279 | 3.2 | 8.0 | 0.00 | 0.00 | 0.00 | 39 | 1013.0 |
| 20260830235603 | 35 | 284 | 3.2 | 8.0 | 0.00 | 0.00 | 0.00 | 39 | 1013.0 |
| 20260830235506 | 35 | 286 | 3.2 | 8.0 | 0.00 | 0.00 | 0.00 | 39 | 1013.0 |
| 20260830235403 | 35 | 290 | 3.2 | 8.0 | 0.00 | 0.00 | 0.00 | 39 | 1013.0 |
| 20260830235305 | 35 | 290 | 3.2 | 8.0 | 0.00 | 0.00 | 0.00 | 39 | 1013.0 |
| 20260830235203 | 35 | 290 | 3.2 | 8.0 | 0.00 | 0.00 | 0.00 | 39 | 1013.0 |
| 20260830235103 | 35 | 293 | 3.2 | 8.0 | 0.00 | 0.00 | 0.00 | 39 | 1013.0 |
| 20260830235024 | 35 | 291 | 3.2 | 8.0 | 0.00 | 0.00 | 0.00 | 39 | 1013.0 |
| 20260830234903 | 35 | 289 | 3.2 | 8.0 | 0.00 | 0.00 | 0.00 | 39 | 1013.0 |
| 20260830234803 | 35 | 285 | 3.2 | 8.0 | 0.00 | 0.00 | 0.00 | 39 | 1013.0 |
| 20260830234724 | 35 | 283 | 3.2 | 8.0 | 0.00 | 0.00 | 0.00 | 39 | 1013.1 |
| 20260830234604 | 35 | 277 | 3.2 | 8.0 | 0.00 | 0.00 | 0.00 | 38 | 1013.0 |
| 20260830234503 | 35 | 273 | 3.2 | 8.0 | 0.00 | 0.00 | 0.00 | 38 | 1013.1 |
| 20260830234403 | 35 | 266 | 1.6 | 8.0 | 0.00 | 0.00 | 0.00 | 38 | 1013.1 |
| 20260830234303 | 35 | 263 | 1.6 | 6.4 | 0.00 | 0.00 | 0.00 | 39 | 1013.0 |
| 20260830234224 | 35 | 262 | 1.6 | 6.4 | 0.00 | 0.00 | 0.00 | 39 | 1013.0 |
| 20260830234103 | 35 | 262 | 3.2 | 8.0 | 0.00 | 0.00 | 0.00 | 38 | 1013.0 |
| 20260830234003 | 35 | 260 | 3.2 | 8.0 | 0.00 | 0.00 | 0.00 | 38 | 1013.0 |
| 20260830233903 | 35 | 260 | 3.2 | 8.0 | 0.00 | 0.00 | 0.00 | 38 | 1013.1 |
| 20260830233803 | 35 | 260 | 3.2 | 8.0 | 0.00 | 0.00 | 0.00 | 38 | 1013.0 |
| 20260830233703 | 35 | 260 | 3.2 | 9.7 | 0.00 | 0.00 | 0.00 | 38 | 1013.1 |
| 20260830233603 | 36 | 263 | 3.2 | 9.7 | 0.00 | 0.00 | 0.00 | 38 | 1013.1 |
| 20260830233503 | 36 | 269 | 3.2 | 9.7 | 0.00 | 0.00 | 0.00 | 38 | 1013.1 |
| 20260830233403 | 36 | 271 | 3.2 | 9.7 | 0.00 | 0.00 | 0.00 | 38 | 1013.1 |
| 20260830233324 | 35 | 270 | 3.2 | 9.7 | 0.00 | 0.00 | 0.00 | 38 | 1013.1 |
| 20260830233203 | 36 | 271 | 3.2 | 9.7 | 0.00 | 0.00 | 0.00 | 38 | 1013.1 |
| 20260830233103 | 36 | 275 | 3.2 | 9.7 | 0.00 | 0.00 | 0.00 | 38 | 1013.1 |
| 20260830233003 | 36 | 279 | 3.2 | 9.7 | 0.00 | 0.00 | 0.00 | 38 | 1013.1 |
| 20260830232903 | 36 | 287 | 3.2 | 9.7 | 0.00 | 0.00 | 0.00 | 38 | 1013.1 |
| 20260830232803 | 35 | 289 | 3.2 | 9.7 | 0.00 | 0.00 | 0.00 | 38 | 1013.0 |
| 20260830232703 | 35 | 294 | 4.8 | 11.3 | 0.00 | 0.00 | 0.00 | 38 | 1013.0 |
| 20260830232603 | 35 | 293 | 4.8 | 14.5 | 0.00 | 0.00 | 0.00 | 38 | 1013.1 |
| 20260830232524 | 35 | 295 | 4.8 | 14.5 | 0.00 | 0.00 | 0.00 | 38 | 1013.1 |
| 20260830232403 | 35 | 294 | 4.8 | 14.5 | 0.00 | 0.00 | 0.00 | 38 | 1013.1 |
| 20260830232305 | 35 | 299 | 4.8 | 14.5 | 0.00 | 0.00 | 0.00 | 38 | 1013.1 |
| 20260830232203 | 35 | 302 | 4.8 | 14.5 | 0.00 | 0.00 | 0.00 | 38 | 1013.1 |
| 20260830232103 | 36 | 301 | 4.8 | 14.5 | 0.00 | 0.00 | 0.00 | 38 | 1013.0 |
| 20260830232024 | 36 | 300 | 6.4 | 14.5 | 0.00 | 0.00 | 0.00 | 38 | 1013.0 |
| 20260830231903 | 36 | 295 | 6.4 | 14.5 | 0.00 | 0.00 | 0.00 | 37 | 1013.1 |
| 20260830231803 | 36 | 293 | 6.4 | 14.5 | 0.00 | 0.00 | 0.00 | 37 | 1013.0 |
| 20260830231703 | 36 | 288 | 6.4 | 14.5 | 0.00 | 0.00 | 0.00 | 37 | 1013.0 |
| 20260830231603 | 36 | 288 | 6.4 | 12.9 | 0.00 | 0.00 | 0.00 | 37 | 1013.0 |
| 20260830231503 | 36 | 283 | 6.4 | 12.9 | 0.00 | 0.00 | 0.00 | 37 | 1013.0 |
| 20260830231403 | 36 | 286 | 6.4 | 12.9 | 0.00 | 0.00 | 0.00 | 37 | 1013.0 |
| 20260830231303 | 36 | 287 | 6.4 | 16.1 | 0.00 | 0.00 | 0.00 | 37 | 1013.0 |
| 20260830231203 | 36 | 284 | 6.4 | 16.1 | 0.00 | 0.00 | 0.00 | 37 | 1013.1 |
| 20260830231103 | 36 | 284 | 6.4 | 16.1 | 0.00 | 0.00 | 0.00 | 37 | 1013.0 |
| 20260830231003 | 36 | 286 | 6.4 | 16.1 | 0.00 | 0.00 | 0.00 | 37 | 1013.0 |
| 20260830230903 | 36 | 285 | 6.4 | 16.1 | 0.00 | 0.00 | 0.00 | 37 | 1013.0 |
| 20260830230824 | 36 | 285 | 6.4 | 16.1 | 0.00 | 0.00 | 0.00 | 37 | 1013.0 |
| 20260830230724 | 36 | 286 | 6.4 | 16.1 | 0.00 | 0.00 | 0.00 | 37 | 1013.0 |
| 20260830230624 | 36 | 285 | 6.4 | 16.1 | 0.00 | 0.00 | 0.00 | 37 | 1013.0 |
| 20260830230503 | 36 | 286 | 6.4 | 16.1 | 0.00 | 0.00 | 0.00 | 37 | 1013.1 |
| 20260830230403 | 36 | 279 | 6.4 | 16.1 | 0.00 | 0.00 | 0.00 | 37 | 1013.1 |
| 20260830230303 | 36 | 276 | 4.8 | 14.5 | 0.00 | 0.00 | 0.00 | 37 | 1013.0 |
| 20260830230204 | 36 | 273 | 6.4 | 12.9 | 0.00 | 0.00 | 0.00 | 37 | 1013.0 |
| 20260830230103 | 36 | 273 | 4.8 | 12.9 | 0.00 | 0.00 | 0.00 | 37 | 1013.0 |
| 20260830230004 | 36 | 273 | 4.8 | 12.9 | 0.00 | 0.00 | 0.00 | 37 | 1013.0 |
| 20260830225924 | 36 | 273 | 4.8 | 11.3 | 0.00 | 0.00 | 0.00 | 37 | 1013.0 |
| 20260830225803 | 36 | 274 | 4.8 | 11.3 | 0.00 | 0.00 | 0.00 | 37 | 1013.0 |
| 20260830225704 | 36 | 274 | 4.8 | 11.3 | 0.00 | 0.00 | 0.00 | 37 | 1013.0 |
| 20260830225624 | 36 | 275 | 3.2 | 11.3 | 0.00 | 0.00 | 0.00 | 37 | 1013.0 |
| 20260830225505 | 36 | 274 | 3.2 | 9.7 | 0.00 | 0.00 | 0.00 | 37 | 1013.0 |
| 20260830225403 | 36 | 278 | 3.2 | 9.7 | 0.00 | 0.00 | 0.00 | 37 | 1013.0 |
| 20260830225305 | 36 | 280 | 4.8 | 9.7 | 0.00 | 0.00 | 0.00 | 37 | 1013.0 |
| 20260830225203 | 36 | 284 | 3.2 | 9.7 | 0.00 | 0.00 | 0.00 | 37 | 1013.1 |
| 20260830225124 | 36 | 283 | 3.2 | 9.7 | 0.00 | 0.00 | 0.00 | 37 | 1013.1 |
| 20260830225003 | 36 | 281 | 3.2 | 9.7 | 0.00 | 0.00 | 0.00 | 37 | 1013.1 |
| 20260830224903 | 36 | 281 | 4.8 | 11.3 | 0.00 | 0.00 | 0.00 | 37 | 1013.0 |
| 20260830224824 | 36 | 280 | 3.2 | 11.3 | 0.00 | 0.00 | 0.00 | 37 | 1013.0 |
| 20260830224724 | 36 | 280 | 3.2 | 11.3 | 0.00 | 0.00 | 0.00 | 37 | 1013.0 |
| 20260830224624 | 36 | 285 | 4.8 | 11.3 | 0.00 | 0.00 | 0.00 | 37 | 1013.1 |
| 20260830224503 | 36 | 291 | 4.8 | 14.5 | 0.00 | 0.00 | 0.00 | 37 | 1013.1 |
| 20260830224403 | 36 | 300 | 4.8 | 14.5 | 0.00 | 0.00 | 0.00 | 37 | 1013.1 |
| 20260830224303 | 36 | 305 | 4.8 | 14.5 | 0.00 | 0.00 | 0.00 | 37 | 1013.0 |
| 20260830224203 | 36 | 312 | 6.4 | 14.5 | 0.00 | 0.00 | 0.00 | 37 | 1013.0 |
| 20260830224103 | 36 | 315 | 6.4 | 14.5 | 0.00 | 0.00 | 0.00 | 36 | 1013.1 |
| 20260830224003 | 36 | 321 | 6.4 | 14.5 | 0.00 | 0.00 | 0.00 | 37 | 1013.1 |
| 20260830223903 | 36 | 321 | 6.4 | 14.5 | 0.00 | 0.00 | 0.00 | 37 | 1013.1 |
| 20260830223824 | 36 | 319 | 6.4 | 14.5 | 0.00 | 0.00 | 0.00 | 36 | 1013.0 |
| 20260830223703 | 36 | 316 | 6.4 | 14.5 | 0.00 | 0.00 | 0.00 | 36 | 1013.1 |
| 20260830223603 | 36 | 310 | 6.4 | 14.5 | 0.00 | 0.00 | 0.00 | 36 | 1013.1 |
| 20260830223524 | 36 | 307 | 4.8 | 12.9 | 0.00 | 0.00 | 0.00 | 36 | 1013.1 |
| 20260830223424 | 36 | 298 | 4.8 | 12.9 | 0.00 | 0.00 | 0.00 | 36 | 1013.1 |
| 20260830223303 | 36 | 275 | 4.8 | 12.9 | 0.00 | 0.00 | 0.00 | 37 | 1013.1 |
| 20260830223203 | 36 | 266 | 4.8 | 12.9 | 0.00 | 0.00 | 0.00 | 37 | 1013.1 |
| 20260830223103 | 36 | 265 | 4.8 | 12.9 | 0.00 | 0.00 | 0.00 | 37 | 1013.2 |
| 20260830223003 | 36 | 268 | 4.8 | 12.9 | 0.00 | 0.00 | 0.00 | 36 | 1013.2 |
| 20260830222903 | 36 | 271 | 4.8 | 12.9 | 0.00 | 0.00 | 0.00 | 36 | 1013.2 |
| 20260830222803 | 36 | 270 | 4.8 | 12.9 | 0.00 | 0.00 | 0.00 | 37 | 1013.1 |
| 20260830222703 | 36 | 271 | 4.8 | 12.9 | 0.00 | 0.00 | 0.00 | 37 | 1013.1 |
| 20260830222603 | 36 | 270 | 4.8 | 12.9 | 0.00 | 0.00 | 0.00 | 37 | 1013.2 |
| 20260830222503 | 36 | 273 | 4.8 | 12.9 | 0.00 | 0.00 | 0.00 | 37 | 1013.1 |
| 20260830222403 | 36 | 275 | 4.8 | 12.9 | 0.00 | 0.00 | 0.00 | 36 | 1013.1 |
| 20260830222306 | 36 | 283 | 4.8 | 12.9 | 0.00 | 0.00 | 0.00 | 37 | 1013.2 |
| 20260830222224 | 36 | 286 | 4.8 | 12.9 | 0.00 | 0.00 | 0.00 | 36 | 1013.2 |
| 20260830222103 | 36 | 282 | 4.8 | 12.9 | 0.00 | 0.00 | 0.00 | 37 | 1013.2 |
| 20260830222003 | 36 | 276 | 4.8 | 12.9 | 0.00 | 0.00 | 0.00 | 38 | 1013.2 |
| 20260830221903 | 36 | 274 | 4.8 | 12.9 | 0.00 | 0.00 | 0.00 | 37 | 1013.3 |
| 20260830221803 | 36 | 278 | 4.8 | 12.9 | 0.00 | 0.00 | 0.00 | 37 | 1013.2 |
| 20260830221703 | 36 | 280 | 4.8 | 12.9 | 0.00 | 0.00 | 0.00 | 37 | 1013.2 |
| 20260830221603 | 36 | 285 | 3.2 | 12.9 | 0.00 | 0.00 | 0.00 | 37 | 1013.2 |
| 20260830221503 | 36 | 289 | 3.2 | 12.9 | 0.00 | 0.00 | 0.00 | 37 | 1013.2 |
| 20260830221403 | 36 | 292 | 3.2 | 12.9 | 0.00 | 0.00 | 0.00 | 38 | 1013.2 |
| 20260830221303 | 36 | 296 | 3.2 | 12.9 | 0.00 | 0.00 | 0.00 | 38 | 1013.2 |
| 20260830221224 | 36 | 297 | 3.2 | 12.9 | 0.00 | 0.00 | 0.00 | 37 | 1013.2 |
| 20260830221103 | 36 | 307 | 3.2 | 11.3 | 0.00 | 0.00 | 0.00 | 37 | 1013.2 |
| 20260830221003 | 36 | 315 | 3.2 | 11.3 | 0.00 | 0.00 | 0.00 | 37 | 1013.3 |
| 20260830220903 | 36 | 320 | 3.2 | 12.9 | 0.00 | 0.00 | 0.00 | 38 | 1013.3 |
| 20260830220803 | 36 | 320 | 3.2 | 12.9 | 0.00 | 0.00 | 0.00 | 38 | 1013.3 |
| 20260830220703 | 36 | 320 | 3.2 | 12.9 | 0.00 | 0.00 | 0.00 | 38 | 1013.2 |
| 20260830220604 | 36 | 319 | 3.2 | 12.9 | 0.00 | 0.00 | 0.00 | 37 | 1013.3 |
| 20260830220503 | 36 | 318 | 3.2 | 12.9 | 0.00 | 0.00 | 0.00 | 38 | 1013.3 |
| 20260830220424 | 36 | 320 | 4.8 | 12.9 | 0.00 | 0.00 | 0.00 | 38 | 1013.2 |
| 20260830220324 | 36 | 324 | 4.8 | 12.9 | 0.00 | 0.00 | 0.00 | 38 | 1013.2 |
| 20260830220203 | 36 | 322 | 4.8 | 12.9 | 0.00 | 0.00 | 0.00 | 38 | 1013.2 |
| 20260830220024 | 36 | 314 | 4.8 | 12.9 | 0.00 | 0.00 | 0.00 | 38 | 1013.3 |
| 20260830215903 | 36 | 316 | 4.8 | 12.9 | 0.00 | 0.00 | 0.00 | 38 | 1013.3 |
| 20260830215803 | 36 | 327 | 6.4 | 16.1 | 0.00 | 0.00 | 0.00 | 38 | 1013.3 |
| 20260830215703 | 36 | 328 | 6.4 | 16.1 | 0.00 | 0.00 | 0.00 | 38 | 1013.3 |
| 20260830215603 | 36 | 326 | 6.4 | 16.1 | 0.00 | 0.00 | 0.00 | 37 | 1013.3 |
| 20260830215503 | 36 | 325 | 4.8 | 16.1 | 0.00 | 0.00 | 0.00 | 38 | 1013.4 |
| 20260830215403 | 36 | 319 | 4.8 | 16.1 | 0.00 | 0.00 | 0.00 | 37 | 1013.3 |
| 20260830215305 | 36 | 312 | 4.8 | 16.1 | 0.00 | 0.00 | 0.00 | 37 | 1013.4 |
| 20260830215203 | 36 | 319 | 4.8 | 16.1 | 0.00 | 0.00 | 0.00 | 37 | 1013.4 |
| 20260830215124 | 36 | 322 | 6.4 | 16.1 | 0.00 | 0.00 | 0.00 | 37 | 1013.4 |
| 20260830215003 | 36 | 333 | 4.8 | 16.1 | 0.00 | 0.00 | 0.00 | 37 | 1013.4 |
| 20260830214903 | 36 | 328 | 4.8 | 16.1 | 0.00 | 0.00 | 0.00 | 37 | 1013.4 |
| 20260830214824 | 36 | 316 | 4.8 | 16.1 | 0.00 | 0.00 | 0.00 | 38 | 1013.4 |
| 20260830214703 | 36 | 297 | 4.8 | 16.1 | 0.00 | 0.00 | 0.00 | 37 | 1013.4 |
| 20260830214603 | 36 | 299 | 4.8 | 16.1 | 0.00 | 0.00 | 0.00 | 37 | 1013.4 |
| 20260830214503 | 36 | 306 | 4.8 | 16.1 | 0.00 | 0.00 | 0.00 | 37 | 1013.4 |
| 20260830214403 | 36 | 312 | 4.8 | 16.1 | 0.00 | 0.00 | 0.00 | 37 | 1013.5 |
| 20260830214303 | 36 | 324 | 4.8 | 16.1 | 0.00 | 0.00 | 0.00 | 37 | 1013.5 |
| 20260830214224 | 36 | 332 | 4.8 | 16.1 | 0.00 | 0.00 | 0.00 | 36 | 1013.5 |
| 20260830214103 | 36 | 330 | 4.8 | 16.1 | 0.00 | 0.00 | 0.00 | 36 | 1013.4 |
| 20260830214003 | 36 | 357 | 4.8 | 9.7 | 0.00 | 0.00 | 0.00 | 36 | 1013.5 |
| 20260830213903 | 36 | 12 | 4.8 | 9.7 | 0.00 | 0.00 | 0.00 | 36 | 1013.4 |
| 20260830213803 | 36 | 28 | 4.8 | 9.7 | 0.00 | 0.00 | 0.00 | 36 | 1013.4 |
| 20260830213703 | 36 | 34 | 3.2 | 14.5 | 0.00 | 0.00 | 0.00 | 37 | 1013.5 |
| 20260830213624 | 36 | 36 | 3.2 | 14.5 | 0.00 | 0.00 | 0.00 | 37 | 1013.4 |
| 20260830213503 | 36 | 38 | 3.2 | 14.5 | 0.00 | 0.00 | 0.00 | 37 | 1013.5 |
| 20260830213403 | 36 | 38 | 3.2 | 14.5 | 0.00 | 0.00 | 0.00 | 37 | 1013.5 |
| 20260830213324 | 36 | 39 | 3.2 | 14.5 | 0.00 | 0.00 | 0.00 | 37 | 1013.5 |
| 20260830213203 | 36 | 38 | 3.2 | 14.5 | 0.00 | 0.00 | 0.00 | 38 | 1013.5 |
| 20260830213103 | 36 | 27 | 3.2 | 14.5 | 0.00 | 0.00 | 0.00 | 38 | 1013.6 |
| 20260830213003 | 36 | 23 | 3.2 | 14.5 | 0.00 | 0.00 | 0.00 | 38 | 1013.6 |
| 20260830212903 | 36 | 6 | 3.2 | 14.5 | 0.00 | 0.00 | 0.00 | 38 | 1013.6 |
| 20260830212803 | 36 | 339 | 3.2 | 14.5 | 0.00 | 0.00 | 0.00 | 38 | 1013.7 |
| 20260830212724 | 36 | 330 | 3.2 | 14.5 | 0.00 | 0.00 | 0.00 | 38 | 1013.7 |
| 20260830212603 | 35 | 302 | 3.2 | 14.5 | 0.00 | 0.00 | 0.00 | 38 | 1013.8 |
| 20260830212505 | 35 | 286 | 4.8 | 14.5 | 0.00 | 0.00 | 0.00 | 38 | 1013.8 |
| 20260830212403 | 35 | 274 | 4.8 | 14.5 | 0.00 | 0.00 | 0.00 | 38 | 1013.8 |
| 20260830212324 | 35 | 268 | 4.8 | 14.5 | 0.00 | 0.00 | 0.00 | 38 | 1013.8 |
| 20260830212203 | 35 | 269 | 4.8 | 14.5 | 0.00 | 0.00 | 0.00 | 38 | 1013.8 |
| 20260830212103 | 35 | 267 | 4.8 | 14.5 | 0.00 | 0.00 | 0.00 | 39 | 1013.9 |
| 20260830212003 | 35 | 270 | 4.8 | 14.5 | 0.00 | 0.00 | 0.00 | 38 | 1013.8 |
| 20260830211903 | 35 | 285 | 4.8 | 14.5 | 0.00 | 0.00 | 0.00 | 38 | 1013.8 |
| 20260830211803 | 35 | 288 | 6.4 | 14.5 | 0.00 | 0.00 | 0.00 | 39 | 1013.9 |
| 20260830211703 | 35 | 287 | 6.4 | 14.5 | 0.00 | 0.00 | 0.00 | 38 | 1013.9 |
| 20260830211603 | 35 | 296 | 6.4 | 14.5 | 0.00 | 0.00 | 0.00 | 38 | 1013.9 |
| 20260830211503 | 35 | 308 | 6.4 | 14.5 | 0.00 | 0.00 | 0.00 | 38 | 1013.9 |
| 20260830211403 | 35 | 322 | 6.4 | 14.5 | 0.00 | 0.00 | 0.00 | 38 | 1014.0 |
| 20260830211303 | 36 | 339 | 6.4 | 14.5 | 0.00 | 0.00 | 0.00 | 37 | 1013.9 |
| 20260830211224 | 36 | 352 | 6.4 | 14.5 | 0.00 | 0.00 | 0.00 | 37 | 1014.0 |
| 20260830211103 | 36 | 11 | 6.4 | 14.5 | 0.00 | 0.00 | 0.00 | 37 | 1014.0 |
| 20260830211003 | 36 | 11 | 6.4 | 14.5 | 0.00 | 0.00 | 0.00 | 37 | 1014.0 |
| 20260830210903 | 36 | 26 | 4.8 | 14.5 | 0.00 | 0.00 | 0.00 | 37 | 1014.0 |
| 20260830210803 | 36 | 41 | 4.8 | 14.5 | 0.00 | 0.00 | 0.00 | 37 | 1014.0 |
| 20260830210703 | 36 | 45 | 4.8 | 14.5 | 0.00 | 0.00 | 0.00 | 37 | 1014.0 |
| 20260830210603 | 36 | 45 | 4.8 | 12.9 | 0.00 | 0.00 | 0.00 | 37 | 1014.1 |
| 20260830210503 | 36 | 44 | 4.8 | 12.9 | 0.00 | 0.00 | 0.00 | 38 | 1014.1 |
| 20260830210424 | 36 | 44 | 4.8 | 12.9 | 0.00 | 0.00 | 0.00 | 38 | 1014.1 |
| 20260830210303 | 36 | 47 | 4.8 | 12.9 | 0.00 | 0.00 | 0.00 | 37 | 1014.1 |
| 20260830210203 | 35 | 44 | 3.2 | 12.9 | 0.00 | 0.00 | 0.00 | 37 | 1014.1 |
| 20260830210103 | 35 | 44 | 4.8 | 12.9 | 0.00 | 0.00 | 0.00 | 38 | 1014.1 |
| 20260830210003 | 35 | 43 | 4.8 | 12.9 | 0.00 | 0.00 | 0.00 | 38 | 1014.1 |
| 20260830205903 | 35 | 39 | 4.8 | 12.9 | 0.00 | 0.00 | 0.00 | 38 | 1014.2 |
| 20260830205803 | 35 | 33 | 4.8 | 12.9 | 0.00 | 0.00 | 0.00 | 37 | 1014.2 |
| 20260830205703 | 35 | 18 | 4.8 | 12.9 | 0.00 | 0.00 | 0.00 | 38 | 1014.2 |
| 20260830205603 | 35 | 9 | 4.8 | 11.3 | 0.00 | 0.00 | 0.00 | 37 | 1014.2 |
| 20260830205524 | 35 | 2 | 4.8 | 11.3 | 0.00 | 0.00 | 0.00 | 38 | 1014.2 |
| 20260830205424 | 35 | 345 | 4.8 | 11.3 | 0.00 | 0.00 | 0.00 | 38 | 1014.2 |
| 20260830205324 | 35 | 326 | 6.4 | 12.9 | 0.00 | 0.00 | 0.00 | 38 | 1014.3 |
| 20260830205203 | 35 | 311 | 6.4 | 16.1 | 0.00 | 0.00 | 0.00 | 38 | 1014.3 |
| 20260830205103 | 35 | 310 | 6.4 | 16.1 | 0.00 | 0.00 | 0.00 | 38 | 1014.3 |
| 20260830205003 | 35 | 311 | 6.4 | 16.1 | 0.00 | 0.00 | 0.00 | 38 | 1014.3 |
| 20260830204903 | 35 | 316 | 6.4 | 16.1 | 0.00 | 0.00 | 0.00 | 38 | 1014.3 |
| 20260830204803 | 35 | 323 | 8.0 | 16.1 | 0.00 | 0.00 | 0.00 | 38 | 1014.3 |
| 20260830204703 | 35 | 328 | 8.0 | 16.1 | 0.00 | 0.00 | 0.00 | 38 | 1014.4 |
| 20260830204603 | 35 | 338 | 8.0 | 16.1 | 0.00 | 0.00 | 0.00 | 38 | 1014.4 |
| 20260830204503 | 36 | 345 | 8.0 | 16.1 | 0.00 | 0.00 | 0.00 | 38 | 1014.4 |
| 20260830204403 | 36 | 351 | 8.0 | 16.1 | 0.00 | 0.00 | 0.00 | 38 | 1014.4 |
| 20260830204303 | 36 | 354 | 6.4 | 16.1 | 0.00 | 0.00 | 0.00 | 37 | 1014.4 |
| 20260830204203 | 36 | 4 | 6.4 | 16.1 | 0.00 | 0.00 | 0.00 | 37 | 1014.4 |
| 20260830204103 | 36 | 5 | 6.4 | 16.1 | 0.00 | 0.00 | 0.00 | 37 | 1014.4 |
| 20260830204003 | 36 | 354 | 6.4 | 16.1 | 0.00 | 0.00 | 0.00 | 36 | 1014.4 |
| 20260830203903 | 36 | 338 | 6.4 | 16.1 | 0.00 | 0.00 | 0.00 | 37 | 1014.4 |
| 20260830203803 | 36 | 331 | 6.4 | 16.1 | 0.00 | 0.00 | 0.00 | 37 | 1014.4 |
| 20260830203703 | 36 | 322 | 4.8 | 16.1 | 0.00 | 0.00 | 0.00 | 37 | 1014.4 |
| 20260830203603 | 36 | 310 | 4.8 | 16.1 | 0.00 | 0.00 | 0.00 | 37 | 1014.4 |
| 20260830203503 | 36 | 308 | 4.8 | 16.1 | 0.00 | 0.00 | 0.00 | 37 | 1014.4 |
| 20260830203403 | 36 | 309 | 4.8 | 16.1 | 0.00 | 0.00 | 0.00 | 37 | 1014.5 |
| 20260830203303 | 36 | 310 | 6.4 | 16.1 | 0.00 | 0.00 | 0.00 | 37 | 1014.5 |
| 20260830203203 | 36 | 306 | 6.4 | 14.5 | 0.00 | 0.00 | 0.00 | 37 | 1014.5 |
| 20260830203103 | 36 | 304 | 4.8 | 16.1 | 0.00 | 0.00 | 0.00 | 37 | 1014.5 |
| 20260830203024 | 35 | 305 | 4.8 | 16.1 | 0.00 | 0.00 | 0.00 | 37 | 1014.5 |
| 20260830202903 | 35 | 301 | 4.8 | 16.1 | 0.00 | 0.00 | 0.00 | 38 | 1014.5 |
| 20260830202803 | 35 | 302 | 4.8 | 16.1 | 0.00 | 0.00 | 0.00 | 38 | 1014.5 |
| 20260830202703 | 35 | 306 | 4.8 | 16.1 | 0.00 | 0.00 | 0.00 | 38 | 1014.6 |
| 20260830202624 | 35 | 306 | 6.4 | 16.1 | 0.00 | 0.00 | 0.00 | 38 | 1014.5 |
| 20260830202503 | 35 | 309 | 6.4 | 16.1 | 0.00 | 0.00 | 0.00 | 38 | 1014.6 |
| 20260830202403 | 35 | 313 | 6.4 | 16.1 | 0.00 | 0.00 | 0.00 | 38 | 1014.6 |
| 20260830202305 | 35 | 313 | 6.4 | 16.1 | 0.00 | 0.00 | 0.00 | 38 | 1014.7 |
| 20260830202203 | 35 | 310 | 6.4 | 16.1 | 0.00 | 0.00 | 0.00 | 38 | 1014.7 |
| 20260830202103 | 35 | 311 | 6.4 | 16.1 | 0.00 | 0.00 | 0.00 | 38 | 1014.7 |
| 20260830202003 | 35 | 312 | 4.8 | 16.1 | 0.00 | 0.00 | 0.00 | 38 | 1014.7 |
| 20260830201924 | 35 | 314 | 4.8 | 16.1 | 0.00 | 0.00 | 0.00 | 37 | 1014.8 |
| 20260830201803 | 36 | 318 | 4.8 | 16.1 | 0.00 | 0.00 | 0.00 | 38 | 1014.8 |
| 20260830201703 | 36 | 329 | 4.8 | 16.1 | 0.00 | 0.00 | 0.00 | 37 | 1014.8 |
| 20260830201603 | 36 | 330 | 4.8 | 16.1 | 0.00 | 0.00 | 0.00 | 37 | 1014.7 |
| 20260830201503 | 36 | 314 | 4.8 | 16.1 | 0.00 | 0.00 | 0.00 | 37 | 1014.8 |
| 20260830201403 | 36 | 299 | 4.8 | 16.1 | 0.00 | 0.00 | 0.00 | 37 | 1014.8 |
| 20260830201303 | 36 | 298 | 4.8 | 16.1 | 0.00 | 0.00 | 0.00 | 37 | 1014.8 |
| 20260830201203 | 36 | 303 | 4.8 | 16.1 | 0.00 | 0.00 | 0.00 | 36 | 1014.8 |
| 20260830201103 | 36 | 313 | 6.4 | 17.7 | 0.00 | 0.00 | 0.00 | 36 | 1014.8 |
| 20260830201003 | 36 | 325 | 6.4 | 17.7 | 0.00 | 0.00 | 0.00 | 36 | 1014.8 |
| 20260830200903 | 36 | 331 | 8.0 | 17.7 | 0.00 | 0.00 | 0.00 | 37 | 1014.9 |
| 20260830200803 | 36 | 334 | 6.4 | 17.7 | 0.00 | 0.00 | 0.00 | 37 | 1014.9 |
| 20260830200703 | 36 | 328 | 6.4 | 17.7 | 0.00 | 0.00 | 0.00 | 37 | 1014.9 |
| 20260830200624 | 36 | 327 | 6.4 | 17.7 | 0.00 | 0.00 | 0.00 | 36 | 1014.9 |
| 20260830200503 | 36 | 326 | 6.4 | 17.7 | 0.00 | 0.00 | 0.00 | 36 | 1014.9 |
| 20260830200403 | 36 | 323 | 6.4 | 17.7 | 0.00 | 0.00 | 0.00 | 36 | 1015.0 |
| 20260830200303 | 36 | 316 | 6.4 | 17.7 | 0.00 | 0.00 | 0.00 | 36 | 1015.0 |
| 20260830200203 | 36 | 308 | 6.4 | 17.7 | 0.00 | 0.00 | 0.00 | 36 | 1015.0 |
| 20260830200103 | 36 | 294 | 6.4 | 16.1 | 0.00 | 0.00 | 0.00 | 36 | 1015.0 |
| 20260830200024 | 36 | 286 | 6.4 | 16.1 | 0.00 | 0.00 | 0.00 | 36 | 1015.1 |
| 20260830195924 | 35 | 279 | 6.4 | 16.1 | 0.00 | 0.00 | 0.00 | 37 | 1015.0 |
| 20260830195803 | 35 | 276 | 6.4 | 16.1 | 0.00 | 0.00 | 0.00 | 37 | 1015.0 |
| 20260830195703 | 35 | 278 | 6.4 | 16.1 | 0.00 | 0.00 | 0.00 | 37 | 1015.0 |
| 20260830195603 | 35 | 282 | 8.0 | 16.1 | 0.00 | 0.00 | 0.00 | 37 | 1015.1 |
| 20260830195503 | 35 | 291 | 8.0 | 16.1 | 0.00 | 0.00 | 0.00 | 37 | 1015.1 |
| 20260830195403 | 35 | 295 | 8.0 | 16.1 | 0.00 | 0.00 | 0.00 | 37 | 1015.1 |
| 20260830195305 | 35 | 305 | 8.0 | 16.1 | 0.00 | 0.00 | 0.00 | 37 | 1015.1 |
| 20260830195224 | 35 | 316 | 8.0 | 20.9 | 0.00 | 0.00 | 0.00 | 37 | 1015.1 |
| 20260830195103 | 35 | 343 | 8.0 | 20.9 | 0.00 | 0.00 | 0.00 | 37 | 1015.1 |
| 20260830195003 | 35 | 5 | 8.0 | 20.9 | 0.00 | 0.00 | 0.00 | 37 | 1015.1 |
| 20260830194903 | 35 | 27 | 9.7 | 20.9 | 0.00 | 0.00 | 0.00 | 38 | 1015.1 |
| 20260830194824 | 35 | 34 | 9.7 | 20.9 | 0.00 | 0.00 | 0.00 | 37 | 1015.2 |
| 20260830194703 | 35 | 42 | 9.7 | 20.9 | 0.00 | 0.00 | 0.00 | 38 | 1015.2 |
| 20260830194603 | 35 | 47 | 9.7 | 20.9 | 0.00 | 0.00 | 0.00 | 37 | 1015.2 |
| 20260830194503 | 35 | 49 | 9.7 | 20.9 | 0.00 | 0.00 | 0.00 | 37 | 1015.2 |
| 20260830194403 | 35 | 45 | 9.7 | 20.9 | 0.00 | 0.00 | 0.00 | 37 | 1015.2 |
| 20260830194303 | 35 | 45 | 9.7 | 20.9 | 0.00 | 0.00 | 0.00 | 38 | 1015.3 |
| 20260830194203 | 35 | 35 | 9.7 | 20.9 | 0.00 | 0.00 | 0.00 | 38 | 1015.2 |
| 20260830194103 | 35 | 35 | 9.7 | 20.9 | 0.00 | 0.00 | 0.00 | 38 | 1015.2 |
| 20260830194003 | 35 | 29 | 9.7 | 20.9 | 0.00 | 0.00 | 0.00 | 37 | 1015.2 |
| 20260830193903 | 35 | 22 | 9.7 | 20.9 | 0.00 | 0.00 | 0.00 | 37 | 1015.3 |
| 20260830193803 | 35 | 13 | 8.0 | 20.9 | 0.00 | 0.00 | 0.00 | 37 | 1015.3 |
| 20260830193703 | 35 | 9 | 8.0 | 20.9 | 0.00 | 0.00 | 0.00 | 37 | 1015.4 |
| 20260830193603 | 35 | 6 | 8.0 | 20.9 | 0.00 | 0.00 | 0.00 | 37 | 1015.4 |
| 20260830193525 | 35 | 3 | 8.0 | 20.9 | 0.00 | 0.00 | 0.00 | 37 | 1015.4 |
| 20260830193403 | 35 | 9 | 9.7 | 22.5 | 0.00 | 0.00 | 0.00 | 37 | 1015.4 |
| 20260830193303 | 35 | 16 | 9.7 | 22.5 | 0.00 | 0.00 | 0.00 | 37 | 1015.5 |
| 20260830193203 | 35 | 29 | 9.7 | 22.5 | 0.00 | 0.00 | 0.00 | 37 | 1015.5 |
| 20260830193103 | 35 | 30 | 11.3 | 22.5 | 0.00 | 0.00 | 0.00 | 36 | 1015.4 |
| 20260830193003 | 35 | 32 | 11.3 | 24.1 | 0.00 | 0.00 | 0.00 | 36 | 1015.5 |
| 20260830192924 | 35 | 33 | 11.3 | 24.1 | 0.00 | 0.00 | 0.00 | 36 | 1015.5 |
| 20260830192803 | 35 | 32 | 11.3 | 24.1 | 0.00 | 0.00 | 0.00 | 37 | 1015.6 |
| 20260830192703 | 35 | 35 | 11.3 | 24.1 | 0.00 | 0.00 | 0.00 | 37 | 1015.6 |
| 20260830192624 | 35 | 36 | 11.3 | 24.1 | 0.00 | 0.00 | 0.00 | 37 | 1015.6 |
| 20260830192503 | 35 | 41 | 11.3 | 24.1 | 0.00 | 0.00 | 0.00 | 37 | 1015.6 |
| 20260830192403 | 35 | 43 | 11.3 | 24.1 | 0.00 | 0.00 | 0.00 | 37 | 1015.6 |
| 20260830192305 | 35 | 44 | 11.3 | 24.1 | 0.00 | 0.00 | 0.00 | 37 | 1015.5 |
| 20260830192203 | 35 | 38 | 11.3 | 24.1 | 0.00 | 0.00 | 0.00 | 37 | 1015.6 |
| 20260830192103 | 35 | 38 | 9.7 | 24.1 | 0.00 | 0.00 | 0.00 | 36 | 1015.7 |
| 20260830192024 | 35 | 40 | 9.7 | 24.1 | 0.00 | 0.00 | 0.00 | 37 | 1015.7 |
| 20260830191903 | 35 | 41 | 8.0 | 19.3 | 0.00 | 0.00 | 0.00 | 37 | 1015.7 |
| 20260830191803 | 35 | 43 | 8.0 | 19.3 | 0.00 | 0.00 | 0.00 | 36 | 1015.7 |
| 20260830191703 | 35 | 38 | 8.0 | 19.3 | 0.00 | 0.00 | 0.00 | 36 | 1015.7 |
| 20260830191603 | 35 | 33 | 8.0 | 19.3 | 0.00 | 0.00 | 0.00 | 36 | 1015.8 |
| 20260830191503 | 35 | 35 | 6.4 | 19.3 | 0.00 | 0.00 | 0.00 | 36 | 1015.8 |
| 20260830191403 | 35 | 36 | 6.4 | 17.7 | 0.00 | 0.00 | 0.00 | 36 | 1015.9 |
| 20260830191324 | 35 | 35 | 6.4 | 17.7 | 0.00 | 0.00 | 0.00 | 36 | 1015.8 |
| 20260830191203 | 35 | 43 | 6.4 | 17.7 | 0.00 | 0.00 | 0.00 | 36 | 1015.9 |
| 20260830191103 | 35 | 47 | 6.4 | 17.7 | 0.00 | 0.00 | 0.00 | 35 | 1015.9 |
| 20260830191003 | 35 | 52 | 6.4 | 14.5 | 0.00 | 0.00 | 0.00 | 36 | 1015.9 |
| 20260830190903 | 35 | 46 | 6.4 | 14.5 | 0.00 | 0.00 | 0.00 | 36 | 1015.9 |
| 20260830190803 | 35 | 44 | 6.4 | 14.5 | 0.00 | 0.00 | 0.00 | 36 | 1015.9 |
| 20260830190703 | 35 | 50 | 6.4 | 12.9 | 0.00 | 0.00 | 0.00 | 35 | 1016.0 |
| 20260830190603 | 35 | 50 | 6.4 | 12.9 | 0.00 | 0.00 | 0.00 | 35 | 1016.0 |
| 20260830190503 | 35 | 43 | 6.4 | 16.1 | 0.00 | 0.00 | 0.00 | 35 | 1016.0 |
| 20260830190403 | 35 | 36 | 4.8 | 16.1 | 0.00 | 0.00 | 0.00 | 35 | 1016.1 |
| 20260830190303 | 35 | 29 | 4.8 | 16.1 | 0.00 | 0.00 | 0.00 | 35 | 1016.1 |
| 20260830190203 | 35 | 29 | 4.8 | 16.1 | 0.00 | 0.00 | 0.00 | 35 | 1016.1 |
| 20260830190103 | 35 | 27 | 6.4 | 16.1 | 0.00 | 0.00 | 0.00 | 35 | 1016.1 |
| 20260830190003 | 35 | 26 | 6.4 | 16.1 | 0.00 | 0.00 | 0.00 | 35 | 1016.1 |
| 20260830185903 | 35 | 30 | 6.4 | 16.1 | 0.00 | 0.00 | 0.00 | 35 | 1016.2 |
| 20260830185824 | 35 | 31 | 6.4 | 16.1 | 0.00 | 0.00 | 0.00 | 35 | 1016.1 |
| 20260830185703 | 35 | 29 | 6.4 | 16.1 | 0.00 | 0.00 | 0.00 | 35 | 1016.2 |
| 20260830185603 | 35 | 33 | 6.4 | 16.1 | 0.00 | 0.00 | 0.00 | 35 | 1016.1 |
| 20260830185503 | 35 | 28 | 6.4 | 16.1 | 0.00 | 0.00 | 0.00 | 35 | 1016.1 |
| 20260830185403 | 35 | 31 | 8.0 | 16.1 | 0.00 | 0.00 | 0.00 | 35 | 1016.1 |
| 20260830185306 | 35 | 32 | 6.4 | 16.1 | 0.00 | 0.00 | 0.00 | 35 | 1016.1 |
| 20260830185224 | 35 | 28 | 6.4 | 16.1 | 0.00 | 0.00 | 0.00 | 35 | 1016.2 |
| 20260830185124 | 35 | 20 | 6.4 | 16.1 | 0.00 | 0.00 | 0.00 | 35 | 1016.2 |
| 20260830185003 | 35 | 1 | 6.4 | 16.1 | 0.00 | 0.00 | 0.00 | 35 | 1016.1 |
| 20260830184903 | 35 | 338 | 6.4 | 16.1 | 0.00 | 0.00 | 0.00 | 34 | 1016.2 |
| 20260830184805 | 35 | 327 | 6.4 | 16.1 | 0.00 | 0.00 | 0.00 | 34 | 1016.2 |
| 20260830184704 | 35 | 329 | 4.8 | 16.1 | 0.00 | 0.00 | 0.00 | 35 | 1016.2 |
| 20260830184624 | 35 | 325 | 6.4 | 17.7 | 0.00 | 0.00 | 0.00 | 34 | 1016.1 |
| 20260830184503 | 35 | 323 | 4.8 | 17.7 | 0.00 | 0.00 | 0.00 | 34 | 1016.1 |
| 20260830184403 | 35 | 330 | 6.4 | 17.7 | 0.00 | 0.00 | 0.00 | 34 | 1016.2 |
| 20260830184303 | 34 | 346 | 6.4 | 17.7 | 0.00 | 0.00 | 0.00 | 34 | 1016.2 |
| 20260830184203 | 34 | 356 | 6.4 | 17.7 | 0.00 | 0.00 | 0.00 | 34 | 1016.2 |
| 20260830184124 | 34 | 6 | 6.4 | 17.7 | 0.00 | 0.00 | 0.00 | 34 | 1016.3 |
| 20260830184024 | 34 | 13 | 6.4 | 17.7 | 0.00 | 0.00 | 0.00 | 34 | 1016.3 |
| 20260830183924 | 34 | 20 | 6.4 | 17.7 | 0.00 | 0.00 | 0.00 | 34 | 1016.3 |
| 20260830183803 | 34 | 24 | 6.4 | 17.7 | 0.00 | 0.00 | 0.00 | 34 | 1016.3 |
| 20260830183703 | 34 | 16 | 6.4 | 17.7 | 0.00 | 0.00 | 0.00 | 34 | 1016.3 |
| 20260830183624 | 34 | 11 | 6.4 | 16.1 | 0.00 | 0.00 | 0.00 | 34 | 1016.3 |
| 20260830183503 | 34 | 13 | 6.4 | 14.5 | 0.00 | 0.00 | 0.00 | 34 | 1016.3 |
| 20260830183403 | 34 | 10 | 6.4 | 14.5 | 0.00 | 0.00 | 0.00 | 34 | 1016.3 |
| 20260830183303 | 34 | 13 | 6.4 | 14.5 | 0.00 | 0.00 | 0.00 | 34 | 1016.3 |
| 20260830183203 | 34 | 16 | 8.0 | 17.7 | 0.00 | 0.00 | 0.00 | 34 | 1016.3 |
| 20260830183103 | 34 | 15 | 8.0 | 17.7 | 0.00 | 0.00 | 0.00 | 34 | 1016.4 |
| 20260830183003 | 34 | 20 | 8.0 | 17.7 | 0.00 | 0.00 | 0.00 | 34 | 1016.3 |
| 20260830182903 | 33 | 28 | 8.0 | 17.7 | 0.00 | 0.00 | 0.00 | 34 | 1016.4 |
| 20260830182803 | 33 | 34 | 9.7 | 17.7 | 0.00 | 0.00 | 0.00 | 34 | 1016.4 |
| 20260830182724 | 33 | 37 | 9.7 | 17.7 | 0.00 | 0.00 | 0.00 | 34 | 1016.4 |
| 20260830182603 | 33 | 44 | 9.7 | 17.7 | 0.00 | 0.00 | 0.00 | 34 | 1016.5 |
| 20260830182503 | 33 | 47 | 8.0 | 17.7 | 0.00 | 0.00 | 0.00 | 34 | 1016.4 |
| 20260830182403 | 33 | 47 | 9.7 | 17.7 | 0.00 | 0.00 | 0.00 | 34 | 1016.5 |
| 20260830182306 | 33 | 49 | 8.0 | 17.7 | 0.00 | 0.00 | 0.00 | 35 | 1016.5 |
| 20260830182203 | 33 | 53 | 8.0 | 17.7 | 0.00 | 0.00 | 0.00 | 34 | 1016.4 |
| 20260830182124 | 33 | 53 | 8.0 | 17.7 | 0.00 | 0.00 | 0.00 | 34 | 1016.4 |
| 20260830182003 | 33 | 51 | 8.0 | 17.7 | 0.00 | 0.00 | 0.00 | 34 | 1016.5 |
| 20260830181903 | 33 | 48 | 8.0 | 17.7 | 0.00 | 0.00 | 0.00 | 34 | 1016.5 |
| 20260830181803 | 33 | 48 | 8.0 | 16.1 | 0.00 | 0.00 | 0.00 | 34 | 1016.5 |
| 20260830181724 | 33 | 48 | 8.0 | 16.1 | 0.00 | 0.00 | 0.00 | 34 | 1016.5 |
| 20260830181603 | 33 | 43 | 8.0 | 16.1 | 0.00 | 0.00 | 0.00 | 34 | 1016.6 |
| 20260830181503 | 33 | 44 | 8.0 | 16.1 | 0.00 | 0.00 | 0.00 | 34 | 1016.6 |
| 20260830181403 | 33 | 47 | 8.0 | 14.5 | 0.00 | 0.00 | 0.00 | 34 | 1016.6 |
| 20260830181303 | 33 | 45 | 8.0 | 14.5 | 0.00 | 0.00 | 0.00 | 34 | 1016.7 |
| 20260830181224 | 33 | 44 | 8.0 | 14.5 | 0.00 | 0.00 | 0.00 | 33 | 1016.7 |
| 20260830181103 | 33 | 43 | 8.0 | 14.5 | 0.00 | 0.00 | 0.00 | 33 | 1016.7 |
| 20260830181024 | 33 | 43 | 6.4 | 14.5 | 0.00 | 0.00 | 0.00 | 33 | 1016.8 |
| 20260830180903 | 33 | 33 | 6.4 | 14.5 | 0.00 | 0.00 | 0.00 | 33 | 1016.8 |
| 20260830180803 | 33 | 22 | 6.4 | 14.5 | 0.00 | 0.00 | 0.00 | 33 | 1016.9 |
| 20260830180703 | 33 | 19 | 6.4 | 14.5 | 0.00 | 0.00 | 0.00 | 33 | 1016.8 |
| 20260830180603 | 33 | 24 | 6.4 | 14.5 | 0.00 | 0.00 | 0.00 | 33 | 1016.8 |
| 20260830180503 | 33 | 21 | 6.4 | 17.7 | 0.00 | 0.00 | 0.00 | 32 | 1016.8 |
| 20260830180403 | 33 | 22 | 6.4 | 17.7 | 0.00 | 0.00 | 0.00 | 32 | 1016.8 |
| 20260830180303 | 33 | 24 | 8.0 | 17.7 | 0.00 | 0.00 | 0.00 | 32 | 1016.8 |
| 20260830180224 | 33 | 26 | 8.0 | 17.7 | 0.00 | 0.00 | 0.00 | 32 | 1016.9 |
| 20260830180003 | 33 | 31 | 8.0 | 19.3 | 0.00 | 0.00 | 0.00 | 32 | 1016.9 |
| 20260830175903 | 33 | 35 | 8.0 | 19.3 | 0.00 | 0.00 | 0.00 | 32 | 1016.9 |
| 20260830175803 | 33 | 38 | 8.0 | 19.3 | 0.00 | 0.00 | 0.00 | 32 | 1016.9 |
| 20260830175703 | 33 | 46 | 8.0 | 19.3 | 0.00 | 0.00 | 0.00 | 32 | 1017.0 |
| 20260830175603 | 33 | 47 | 8.0 | 19.3 | 0.00 | 0.00 | 0.00 | 32 | 1017.0 |
| 20260830175503 | 33 | 43 | 8.0 | 19.3 | 0.00 | 0.00 | 0.00 | 32 | 1017.1 |
| 20260830175403 | 33 | 45 | 8.0 | 19.3 | 0.00 | 0.00 | 0.00 | 32 | 1017.1 |
| 20260830175305 | 33 | 44 | 8.0 | 19.3 | 0.00 | 0.00 | 0.00 | 32 | 1017.2 |
| 20260830175203 | 33 | 39 | 8.0 | 19.3 | 0.00 | 0.00 | 0.00 | 32 | 1017.2 |
| 20260830175103 | 33 | 39 | 8.0 | 16.1 | 0.00 | 0.00 | 0.00 | 32 | 1017.2 |
| 20260830175003 | 33 | 39 | 8.0 | 16.1 | 0.00 | 0.00 | 0.00 | 31 | 1017.2 |
| 20260830174903 | 33 | 41 | 8.0 | 16.1 | 0.00 | 0.00 | 0.00 | 31 | 1017.2 |
| 20260830174803 | 33 | 45 | 8.0 | 17.7 | 0.00 | 0.00 | 0.00 | 31 | 1017.2 |
| 20260830174703 | 33 | 43 | 8.0 | 17.7 | 0.00 | 0.00 | 0.00 | 31 | 1017.2 |
| 20260830174624 | 33 | 44 | 8.0 | 17.7 | 0.00 | 0.00 | 0.00 | 31 | 1017.3 |
| 20260830174524 | 33 | 47 | 8.0 | 17.7 | 0.00 | 0.00 | 0.00 | 31 | 1017.3 |
| 20260830174403 | 33 | 49 | 8.0 | 17.7 | 0.00 | 0.00 | 0.00 | 30 | 1017.3 |
| 20260830174324 | 33 | 47 | 9.7 | 19.3 | 0.00 | 0.00 | 0.00 | 30 | 1017.3 |
| 20260830174224 | 33 | 48 | 9.7 | 19.3 | 0.00 | 0.00 | 0.00 | 30 | 1017.3 |
| 20260830174103 | 33 | 45 | 9.7 | 19.3 | 0.00 | 0.00 | 0.00 | 31 | 1017.3 |
| 20260830174003 | 33 | 43 | 9.7 | 19.3 | 0.00 | 0.00 | 0.00 | 31 | 1017.3 |
| 20260830173903 | 32 | 43 | 9.7 | 19.3 | 0.00 | 0.00 | 0.00 | 31 | 1017.4 |
| 20260830173803 | 32 | 40 | 9.7 | 19.3 | 0.00 | 0.00 | 0.00 | 31 | 1017.4 |
| 20260830173703 | 33 | 35 | 8.0 | 19.3 | 0.00 | 0.00 | 0.00 | 31 | 1017.4 |
| 20260830173603 | 33 | 34 | 8.0 | 19.3 | 0.00 | 0.00 | 0.00 | 31 | 1017.4 |
| 20260830173524 | 33 | 38 | 9.7 | 19.3 | 0.00 | 0.00 | 0.00 | 31 | 1017.4 |
| 20260830173403 | 33 | 37 | 9.7 | 20.9 | 0.00 | 0.00 | 0.00 | 30 | 1017.5 |
| 20260830173303 | 33 | 36 | 9.7 | 20.9 | 0.00 | 0.00 | 0.00 | 30 | 1017.6 |
| 20260830173203 | 33 | 38 | 8.0 | 20.9 | 0.00 | 0.00 | 0.00 | 30 | 1017.6 |
| 20260830173103 | 33 | 34 | 8.0 | 20.9 | 0.00 | 0.00 | 0.00 | 30 | 1017.6 |
| 20260830173003 | 33 | 25 | 8.0 | 20.9 | 0.00 | 0.00 | 0.00 | 29 | 1017.7 |
| 20260830172903 | 33 | 19 | 8.0 | 20.9 | 0.00 | 0.00 | 0.00 | 29 | 1017.6 |
| 20260830172803 | 33 | 24 | 8.0 | 20.9 | 0.00 | 0.00 | 0.00 | 29 | 1017.6 |
| 20260830172703 | 33 | 29 | 8.0 | 20.9 | 0.00 | 0.00 | 0.00 | 29 | 1017.6 |
| 20260830172603 | 33 | 23 | 8.0 | 20.9 | 0.00 | 0.00 | 0.00 | 29 | 1017.6 |
| 20260830172503 | 33 | 4 | 6.4 | 20.9 | 0.00 | 0.00 | 0.00 | 28 | 1017.7 |
| 20260830172403 | 33 | 347 | 6.4 | 16.1 | 0.00 | 0.00 | 0.00 | 28 | 1017.7 |
| 20260830172306 | 33 | 329 | 4.8 | 17.7 | 0.00 | 0.00 | 0.00 | 28 | 1017.7 |
| 20260830172203 | 33 | 312 | 4.8 | 17.7 | 0.00 | 0.00 | 0.00 | 28 | 1017.6 |
| 20260830172124 | 33 | 311 | 4.8 | 17.7 | 0.00 | 0.00 | 0.00 | 28 | 1017.6 |
| 20260830172024 | 33 | 329 | 4.8 | 17.7 | 0.00 | 0.00 | 0.00 | 28 | 1017.7 |
| 20260830171903 | 33 | 326 | 4.8 | 17.7 | 0.00 | 0.00 | 0.00 | 27 | 1017.7 |
| 20260830171803 | 33 | 319 | 4.8 | 17.7 | 0.00 | 0.00 | 0.00 | 27 | 1017.7 |
| 20260830171703 | 33 | 314 | 6.4 | 17.7 | 0.00 | 0.00 | 0.00 | 27 | 1017.7 |
| 20260830171603 | 33 | 314 | 6.4 | 17.7 | 0.00 | 0.00 | 0.00 | 27 | 1017.8 |
| 20260830171503 | 33 | 313 | 6.4 | 17.7 | 0.00 | 0.00 | 0.00 | 26 | 1017.8 |
| 20260830171426 | 33 | 322 | 6.4 | 17.7 | 0.00 | 0.00 | 0.00 | 26 | 1017.8 |
| 20260830171303 | 32 | 335 | 8.0 | 17.7 | 0.00 | 0.00 | 0.00 | 26 | 1017.9 |
| 20260830171203 | 32 | 352 | 8.0 | 19.3 | 0.00 | 0.00 | 0.00 | 26 | 1017.9 |
| 20260830171103 | 32 | 1 | 8.0 | 19.3 | 0.00 | 0.00 | 0.00 | 26 | 1017.8 |
| 20260830171003 | 32 | 4 | 9.7 | 19.3 | 0.00 | 0.00 | 0.00 | 26 | 1017.8 |
| 20260830170903 | 32 | 12 | 9.7 | 19.3 | 0.00 | 0.00 | 0.00 | 26 | 1017.9 |
| 20260830170803 | 32 | 20 | 9.7 | 19.3 | 0.00 | 0.00 | 0.00 | 26 | 1017.9 |
| 20260830170703 | 32 | 32 | 9.7 | 19.3 | 0.00 | 0.00 | 0.00 | 25 | 1017.9 |
| 20260830170603 | 32 | 39 | 9.7 | 19.3 | 0.00 | 0.00 | 0.00 | 25 | 1017.9 |
| 20260830170524 | 32 | 42 | 9.7 | 19.3 | 0.00 | 0.00 | 0.00 | 25 | 1017.9 |
| 20260830170403 | 32 | 37 | 9.7 | 19.3 | 0.00 | 0.00 | 0.00 | 24 | 1017.9 |
| 20260830170303 | 32 | 39 | 8.0 | 19.3 | 0.00 | 0.00 | 0.00 | 23 | 1017.9 |
| 20260830170203 | 32 | 39 | 8.0 | 17.7 | 0.00 | 0.00 | 0.00 | 23 | 1017.8 |
| 20260830170003 | 32 | 40 | 6.4 | 17.7 | 0.00 | 0.00 | 0.00 | 22 | 1017.9 |
| 20260830165903 | 32 | 42 | 4.8 | 12.9 | 0.00 | 0.00 | 0.00 | 22 | 1017.9 |
| 20260830165803 | 32 | 29 | 6.4 | 14.5 | 0.00 | 0.00 | 0.00 | 22 | 1017.9 |
| 20260830165703 | 32 | 20 | 6.4 | 14.5 | 0.00 | 0.00 | 0.00 | 22 | 1017.9 |
| 20260830165624 | 32 | 14 | 6.4 | 14.5 | 0.00 | 0.00 | 0.00 | 21 | 1017.9 |
| 20260830165503 | 32 | 13 | 6.4 | 17.7 | 0.00 | 0.00 | 0.00 | 22 | 1017.9 |
| 20260830165403 | 32 | 22 | 6.4 | 17.7 | 0.00 | 0.00 | 0.00 | 21 | 1018.0 |
| 20260830165324 | 32 | 28 | 6.4 | 17.7 | 0.00 | 0.00 | 0.00 | 21 | 1018.0 |
| 20260830165203 | 32 | 23 | 6.4 | 17.7 | 0.00 | 0.00 | 0.00 | 21 | 1018.0 |
| 20260830165103 | 32 | 21 | 6.4 | 17.7 | 0.00 | 0.00 | 0.00 | 20 | 1018.0 |
| 20260830165024 | 32 | 23 | 6.4 | 17.7 | 0.00 | 0.00 | 0.00 | 19 | 1018.0 |
| 20260830164903 | 32 | 20 | 6.4 | 17.7 | 0.00 | 0.00 | 0.00 | 19 | 1018.0 |
| 20260830164824 | 32 | 24 | 6.4 | 17.7 | 0.00 | 0.00 | 0.00 | 19 | 1018.0 |
| 20260830164703 | 32 | 32 | 6.4 | 17.7 | 0.00 | 0.00 | 0.00 | 18 | 1018.1 |
| 20260830164624 | 32 | 36 | 6.4 | 17.7 | 0.00 | 0.00 | 0.00 | 18 | 1018.0 |
| 20260830164503 | 32 | 34 | 4.8 | 14.5 | 0.00 | 0.00 | 0.00 | 17 | 1018.1 |
| 20260830164403 | 32 | 31 | 4.8 | 12.9 | 0.00 | 0.00 | 0.00 | 16 | 1018.0 |
| 20260830164303 | 32 | 34 | 4.8 | 16.1 | 0.00 | 0.00 | 0.00 | 18 | 1018.1 |
| 20260830164224 | 32 | 43 | 6.4 | 16.1 | 0.00 | 0.00 | 0.00 | 16 | 1018.0 |
| 20260830164103 | 32 | 47 | 6.4 | 16.1 | 0.00 | 0.00 | 0.00 | 14 | 1018.0 |
| 20260830164003 | 32 | 47 | 8.0 | 17.7 | 0.00 | 0.00 | 0.00 | 13 | 1018.0 |
| 20260830163903 | 31 | 46 | 8.0 | 17.7 | 0.00 | 0.00 | 0.00 | 14 | 1018.0 |
| 20260830163803 | 31 | 44 | 8.0 | 17.7 | 0.00 | 0.00 | 0.00 | 13 | 1018.0 |
| 20260830163703 | 31 | 44 | 8.0 | 17.7 | 0.00 | 0.00 | 0.00 | 13 | 1018.1 |
| 20260830163603 | 31 | 43 | 8.0 | 17.7 | 0.00 | 0.00 | 0.00 | 13 | 1018.1 |
| 20260830163503 | 31 | 45 | 8.0 | 17.7 | 0.00 | 0.00 | 0.00 | 11 | 1018.1 |
| 20260830163403 | 31 | 47 | 8.0 | 17.7 | 0.00 | 0.00 | 0.00 | 11 | 1018.1 |
| 20260830163303 | 31 | 47 | 8.0 | 17.7 | 0.00 | 0.00 | 0.00 | 10 | 1018.1 |
| 20260830163203 | 31 | 49 | 8.0 | 17.7 | 0.00 | 0.00 | 0.00 | 11 | 1018.1 |
| 20260830163103 | 31 | 46 | 6.4 | 17.7 | 0.00 | 0.00 | 0.00 | 11 | 1018.1 |
| 20260830163003 | 31 | 45 | 6.4 | 14.5 | 0.00 | 0.00 | 0.00 | 10 | 1018.2 |
| 20260830162903 | 31 | 43 | 6.4 | 14.5 | 0.00 | 0.00 | 0.00 | 10 | 1018.1 |
| 20260830162803 | 31 | 40 | 4.8 | 14.5 | 0.00 | 0.00 | 0.00 | 9 | 1018.2 |
| 20260830162703 | 31 | 32 | 6.4 | 14.5 | 0.00 | 0.00 | 0.00 | 8 | 1018.2 |
| 20260830162603 | 31 | 11 | 6.4 | 12.9 | 0.00 | 0.00 | 0.00 | 7 | 1018.2 |
| 20260830162503 | 31 | 1 | 6.4 | 12.9 | 0.00 | 0.00 | 0.00 | 8 | 1018.2 |
| 20260830162424 | 31 | 357 | 6.4 | 12.9 | 0.00 | 0.00 | 0.00 | 7 | 1018.2 |
| 20260830162306 | 31 | 345 | 6.4 | 12.9 | 0.00 | 0.00 | 0.00 | 8 | 1018.2 |
| 20260830162203 | 31 | 336 | 4.8 | 12.9 | 0.00 | 0.00 | 0.00 | 8 | 1018.2 |
| 20260830162124 | 31 | 346 | 6.4 | 12.9 | 0.00 | 0.00 | 0.00 | 8 | 1018.2 |
| 20260830162003 | 31 | 359 | 6.4 | 16.1 | 0.00 | 0.00 | 0.00 | 10 | 1018.2 |
| 20260830161903 | 31 | 5 | 8.0 | 16.1 | 0.00 | 0.00 | 0.00 | 10 | 1018.2 |
| 20260830161803 | 31 | 7 | 8.0 | 16.1 | 0.00 | 0.00 | 0.00 | 10 | 1018.2 |
| 20260830161703 | 31 | 10 | 8.0 | 16.1 | 0.00 | 0.00 | 0.00 | 11 | 1018.2 |
| 20260830161603 | 31 | 20 | 8.0 | 16.1 | 0.00 | 0.00 | 0.00 | 9 | 1018.2 |
| 20260830161503 | 31 | 17 | 8.0 | 16.1 | 0.00 | 0.00 | 0.00 | 10 | 1018.2 |
| 20260830161403 | 31 | 17 | 8.0 | 16.1 | 0.00 | 0.00 | 0.00 | 9 | 1018.2 |
| 20260830161303 | 31 | 17 | 8.0 | 16.1 | 0.00 | 0.00 | 0.00 | 8 | 1018.2 |
| 20260830161203 | 31 | 8 | 8.0 | 16.1 | 0.00 | 0.00 | 0.00 | 10 | 1018.2 |
| 20260830161103 | 31 | 6 | 6.4 | 16.1 | 0.00 | 0.00 | 0.00 | 7 | 1018.2 |
| 20260830161004 | 31 | 8 | 6.4 | 14.5 | 0.00 | 0.00 | 0.00 | 7 | 1018.2 |
| 20260830160903 | 31 | 6 | 6.4 | 14.5 | 0.00 | 0.00 | 0.00 | 4 | 1018.2 |
| 20260830160803 | 31 | 9 | 6.4 | 14.5 | 0.00 | 0.00 | 0.00 | 5 | 1018.2 |
| 20260830160703 | 31 | 13 | 6.4 | 14.5 | 0.00 | 0.00 | 0.00 | 5 | 1018.2 |
| 20260830160603 | 31 | 20 | 6.4 | 14.5 | 0.00 | 0.00 | 0.00 | 4 | 1018.2 |
| 20260830160503 | 31 | 26 | 8.0 | 16.1 | 0.00 | 0.00 | 0.00 | 4 | 1018.3 |
| 20260830160424 | 31 | 30 | 8.0 | 16.1 | 0.00 | 0.00 | 0.00 | 4 | 1018.2 |
| 20260830160303 | 31 | 35 | 8.0 | 16.1 | 0.00 | 0.00 | 0.00 | 4 | 1018.2 |
| 20260830160203 | 31 | 40 | 8.0 | 16.1 | 0.00 | 0.00 | 0.00 | 3 | 1018.2 |
| 20260830160103 | 31 | 39 | 8.0 | 17.7 | 0.00 | 0.00 | 0.00 | 3 | 1018.2 |
| 20260830160005 | 30 | 39 | 8.0 | 17.7 | 0.00 | 0.00 | 0.00 | 1 | 1018.2 |
| 20260830155903 | 30 | 44 | 8.0 | 17.7 | 0.00 | 0.00 | 0.00 | 1 | 1018.2 |
| 20260830155803 | 30 | 44 | 8.0 | 17.7 | 0.00 | 0.00 | 0.00 | 1 | 1018.2 |
| 20260830155703 | 30 | 42 | 8.0 | 17.7 | 0.00 | 0.00 | 0.00 | 1 | 1018.3 |
| 20260830155603 | 30 | 40 | 8.0 | 17.7 | 0.00 | 0.00 | 0.00 | 1 | 1018.2 |
| 20260830155503 | 30 | 41 | 8.0 | 17.7 | 0.00 | 0.00 | 0.00 | 1 | 1018.2 |
| 20260830155403 | 30 | 38 | 8.0 | 17.7 | 0.00 | 0.00 | 0.00 | 1 | 1018.2 |
| 20260830155306 | 30 | 39 | 6.4 | 17.7 | 0.00 | 0.00 | 0.00 | 1 | 1018.2 |
| 20260830155203 | 30 | 38 | 6.4 | 17.7 | 0.00 | 0.00 | 0.00 | 1 | 1018.2 |
| 20260830155103 | 30 | 37 | 6.4 | 17.7 | 0.00 | 0.00 | 0.00 | 1 | 1018.2 |
| 20260830155003 | 30 | 39 | 6.4 | 19.3 | 0.00 | 0.00 | 0.00 | 1 | 1018.3 |
| 20260830154904 | 30 | 39 | 6.4 | 19.3 | 0.00 | 0.00 | 0.00 | 1 | 1018.2 |
| 20260830154824 | 30 | 40 | 8.0 | 19.3 | 0.00 | 0.00 | 0.00 | 1 | 1018.2 |
| 20260830154703 | 30 | 42 | 8.0 | 19.3 | 0.00 | 0.00 | 0.00 | 1 | 1018.2 |
| 20260830154603 | 30 | 44 | 8.0 | 19.3 | 0.00 | 0.00 | 0.00 | 1 | 1018.1 |
| 20260830154503 | 30 | 43 | 8.0 | 19.3 | 0.00 | 0.00 | 0.00 | 1 | 1018.1 |
| 20260830154403 | 30 | 43 | 8.0 | 19.3 | 0.00 | 0.00 | 0.00 | 1 | 1018.2 |
| 20260830154303 | 30 | 39 | 9.7 | 19.3 | 0.00 | 0.00 | 0.00 | 1 | 1018.1 |
| 20260830154224 | 30 | 38 | 9.7 | 19.3 | 0.00 | 0.00 | 0.00 | 1 | 1018.1 |
| 20260830154103 | 30 | 41 | 9.7 | 19.3 | 0.00 | 0.00 | 0.00 | 1 | 1018.1 |
| 20260830154024 | 30 | 36 | 8.0 | 19.3 | 0.00 | 0.00 | 0.00 | 1 | 1018.1 |
| 20260830153903 | 30 | 28 | 8.0 | 17.7 | 0.00 | 0.00 | 0.00 | 1 | 1018.1 |
| 20260830153803 | 30 | 29 | 9.7 | 17.7 | 0.00 | 0.00 | 0.00 | 1 | 1018.1 |
| 20260830153724 | 30 | 31 | 8.0 | 17.7 | 0.00 | 0.00 | 0.00 | 1 | 1018.0 |
| 20260830153626 | 30 | 29 | 9.7 | 17.7 | 0.00 | 0.00 | 0.00 | 1 | 1018.0 |
| 20260830153505 | 30 | 31 | 9.7 | 17.7 | 0.00 | 0.00 | 0.00 | 1 | 1018.0 |
| 20260830153403 | 30 | 32 | 9.7 | 19.3 | 0.00 | 0.00 | 0.00 | 1 | 1018.0 |
| 20260830153303 | 30 | 34 | 9.7 | 19.3 | 0.00 | 0.00 | 0.00 | 1 | 1018.0 |
| 20260830153203 | 30 | 37 | 9.7 | 19.3 | 0.00 | 0.00 | 0.00 | 1 | 1017.9 |
| 20260830153124 | 30 | 35 | 9.7 | 19.3 | 0.00 | 0.00 | 0.00 | 1 | 1018.0 |
| 20260830153003 | 30 | 39 | 9.7 | 19.3 | 0.00 | 0.00 | 0.00 | 1 | 1017.9 |
| 20260830152903 | 30 | 41 | 11.3 | 19.3 | 0.00 | 0.00 | 0.00 | 1 | 1017.9 |
| 20260830152803 | 30 | 42 | 11.3 | 19.3 | 0.00 | 0.00 | 0.00 | 1 | 1017.9 |
| 20260830152703 | 30 | 41 | 11.3 | 19.3 | 0.00 | 0.00 | 0.00 | 1 | 1017.9 |
| 20260830152603 | 29 | 39 | 9.7 | 19.3 | 0.00 | 0.00 | 0.00 | 1 | 1017.9 |
| 20260830152503 | 30 | 37 | 9.7 | 19.3 | 0.00 | 0.00 | 0.00 | 1 | 1017.9 |
| 20260830152403 | 30 | 36 | 8.0 | 16.1 | 0.00 | 0.00 | 0.00 | 1 | 1017.9 |
| 20260830152305 | 30 | 36 | 8.0 | 16.1 | 0.00 | 0.00 | 0.00 | 1 | 1017.9 |
| 20260830152203 | 30 | 37 | 8.0 | 16.1 | 0.00 | 0.00 | 0.00 | 1 | 1017.9 |
| 20260830152103 | 30 | 39 | 8.0 | 16.1 | 0.00 | 0.00 | 0.00 | 1 | 1017.9 |
| 20260830152024 | 30 | 38 | 8.0 | 16.1 | 0.00 | 0.00 | 0.00 | 1 | 1017.9 |
| 20260830151924 | 30 | 38 | 8.0 | 16.1 | 0.00 | 0.00 | 0.00 | 1 | 1017.9 |
| 20260830151824 | 30 | 40 | 8.0 | 22.5 | 0.00 | 0.00 | 0.00 | 1 | 1017.9 |
| 20260830151703 | 30 | 42 | 8.0 | 22.5 | 0.00 | 0.00 | 0.00 | 1 | 1017.8 |
| 20260830151603 | 30 | 45 | 8.0 | 22.5 | 0.00 | 0.00 | 0.00 | 1 | 1017.8 |
| 20260830151503 | 30 | 48 | 8.0 | 22.5 | 0.00 | 0.00 | 0.00 | 1 | 1017.9 |
| 20260830151403 | 29 | 47 | 9.7 | 22.5 | 0.00 | 0.00 | 0.00 | 1 | 1017.8 |
| 20260830151303 | 29 | 46 | 9.7 | 22.5 | 0.00 | 0.00 | 0.00 | 1 | 1017.8 |
| 20260830151203 | 29 | 43 | 9.7 | 22.5 | 0.00 | 0.00 | 0.00 | 1 | 1017.8 |
| 20260830151103 | 29 | 44 | 11.3 | 22.5 | 0.00 | 0.00 | 0.00 | 1 | 1017.8 |
| 20260830151003 | 29 | 44 | 11.3 | 22.5 | 0.00 | 0.00 | 0.00 | 1 | 1017.8 |
| 20260830150903 | 29 | 45 | 11.3 | 22.5 | 0.00 | 0.00 | 0.00 | 1 | 1017.8 |
| 20260830150803 | 29 | 43 | 11.3 | 20.9 | 0.00 | 0.00 | 0.00 | 1 | 1017.8 |
| 20260830150703 | 28 | 42 | 11.3 | 20.9 | 0.00 | 0.00 | 0.00 | 1 | 1017.8 |
| 20260830150603 | 28 | 41 | 11.3 | 20.9 | 0.00 | 0.00 | 0.00 | 1 | 1017.8 |
| 20260830150503 | 28 | 40 | 11.3 | 20.9 | 0.00 | 0.00 | 0.00 | 1 | 1017.8 |
| 20260830150403 | 28 | 40 | 11.3 | 20.9 | 0.00 | 0.00 | 0.00 | 1 | 1017.8 |
| 20260830150303 | 28 | 40 | 11.3 | 20.9 | 0.00 | 0.00 | 0.00 | 1 | 1017.8 |
| 20260830150203 | 28 | 41 | 11.3 | 20.9 | 0.00 | 0.00 | 0.00 | 1 | 1017.8 |
| 20260830150003 | 28 | 40 | 11.3 | 20.9 | 0.00 | 0.00 | 0.00 | 1 | 1017.8 |
| 20260830145903 | 28 | 39 | 11.3 | 20.9 | 0.00 | 0.00 | 0.00 | 1 | 1017.8 |
| 20260830145803 | 28 | 37 | 11.3 | 20.9 | 0.00 | 0.00 | 0.00 | 1 | 1017.8 |
| 20260830145703 | 28 | 36 | 11.3 | 20.9 | 0.00 | 0.00 | 0.00 | 1 | 1017.7 |
| 20260830145603 | 28 | 36 | 11.3 | 20.9 | 0.00 | 0.00 | 0.00 | 1 | 1017.7 |
| 20260830145503 | 28 | 37 | 11.3 | 20.9 | 0.00 | 0.00 | 0.00 | 1 | 1017.7 |
| 20260830145424 | 28 | 37 | 11.3 | 20.9 | 0.00 | 0.00 | 0.00 | 1 | 1017.8 |
| 20260830145306 | 28 | 39 | 11.3 | 20.9 | 0.00 | 0.00 | 0.00 | 1 | 1017.8 |
| 20260830145203 | 28 | 39 | 11.3 | 20.9 | 0.00 | 0.00 | 0.00 | 1 | 1017.8 |
| 20260830145124 | 28 | 40 | 11.3 | 20.9 | 0.00 | 0.00 | 0.00 | 1 | 1017.8 |
| 20260830145024 | 28 | 41 | 11.3 | 20.9 | 0.00 | 0.00 | 0.00 | 1 | 1017.8 |
| 20260830144924 | 28 | 42 | 11.3 | 20.9 | 0.00 | 0.00 | 0.00 | 1 | 1017.8 |
| 20260830144803 | 28 | 44 | 11.3 | 20.9 | 0.00 | 0.00 | 0.00 | 1 | 1017.8 |
| 20260830144703 | 28 | 46 | 9.7 | 20.9 | 0.00 | 0.00 | 0.00 | 1 | 1017.9 |
| 20260830144624 | 28 | 47 | 9.7 | 19.3 | 0.00 | 0.00 | 0.00 | 1 | 1017.9 |
| 20260830144524 | 28 | 47 | 11.3 | 19.3 | 0.00 | 0.00 | 0.00 | 1 | 1017.8 |
| 20260830144403 | 28 | 48 | 11.3 | 19.3 | 0.00 | 0.00 | 0.00 | 1 | 1017.9 |
| 20260830144303 | 28 | 48 | 11.3 | 19.3 | 0.00 | 0.00 | 0.00 | 1 | 1017.9 |
| 20260830144203 | 28 | 50 | 11.3 | 19.3 | 0.00 | 0.00 | 0.00 | 1 | 1017.9 |
| 20260830144103 | 28 | 51 | 11.3 | 19.3 | 0.00 | 0.00 | 0.00 | 1 | 1017.9 |
| 20260830144024 | 28 | 52 | 9.7 | 19.3 | 0.00 | 0.00 | 0.00 | 1 | 1017.9 |
| 20260830143903 | 28 | 49 | 9.7 | 19.3 | 0.00 | 0.00 | 0.00 | 1 | 1017.8 |
| 20260830143803 | 27 | 49 | 9.7 | 19.3 | 0.00 | 0.00 | 0.00 | 1 | 1017.9 |
| 20260830143703 | 27 | 49 | 9.7 | 17.7 | 0.00 | 0.00 | 0.00 | 1 | 1017.9 |
| 20260830143603 | 27 | 48 | 11.3 | 17.7 | 0.00 | 0.00 | 0.00 | 1 | 1017.8 |
| 20260830143503 | 27 | 48 | 9.7 | 17.7 | 0.00 | 0.00 | 0.00 | 1 | 1017.9 |
| 20260830143403 | 27 | 45 | 11.3 | 17.7 | 0.00 | 0.00 | 0.00 | 1 | 1017.9 |
| 20260830143303 | 27 | 44 | 11.3 | 17.7 | 0.00 | 0.00 | 0.00 | 1 | 1017.9 |
| 20260830143224 | 27 | 43 | 11.3 | 17.7 | 0.00 | 0.00 | 0.00 | 1 | 1017.9 |
| 20260830143103 | 27 | 40 | 9.7 | 17.7 | 0.00 | 0.00 | 0.00 | 1 | 1017.8 |
| 20260830143003 | 27 | 40 | 9.7 | 17.7 | 0.00 | 0.00 | 0.00 | 1 | 1017.8 |
| 20260830142903 | 27 | 43 | 9.7 | 17.7 | 0.00 | 0.00 | 0.00 | 1 | 1017.8 |
| 20260830142824 | 27 | 44 | 9.7 | 17.7 | 0.00 | 0.00 | 0.00 | 1 | 1017.8 |
| 20260830142703 | 28 | 45 | 9.7 | 17.7 | 0.00 | 0.00 | 0.00 | 1 | 1017.9 |
| 20260830142624 | 28 | 47 | 9.7 | 17.7 | 0.00 | 0.00 | 0.00 | 1 | 1017.8 |
| 20260830142503 | 28 | 45 | 9.7 | 17.7 | 0.00 | 0.00 | 0.00 | 1 | 1017.8 |
| 20260830142403 | 28 | 49 | 8.0 | 17.7 | 0.00 | 0.00 | 0.00 | 1 | 1017.8 |
| 20260830142305 | 28 | 50 | 8.0 | 17.7 | 0.00 | 0.00 | 0.00 | 1 | 1017.8 |
| 20260830142224 | 27 | 51 | 6.4 | 14.5 | 0.00 | 0.00 | 0.00 | 1 | 1017.8 |
| 20260830142103 | 27 | 51 | 6.4 | 12.9 | 0.00 | 0.00 | 0.00 | 1 | 1017.8 |
| 20260830142003 | 27 | 50 | 6.4 | 12.9 | 0.00 | 0.00 | 0.00 | 1 | 1017.8 |
| 20260830141903 | 27 | 51 | 6.4 | 11.3 | 0.00 | 0.00 | 0.00 | 1 | 1017.8 |
| 20260830141803 | 27 | 44 | 6.4 | 12.9 | 0.00 | 0.00 | 0.00 | 1 | 1017.8 |
| 20260830141724 | 27 | 43 | 6.4 | 12.9 | 0.00 | 0.00 | 0.00 | 1 | 1017.8 |
| 20260830141603 | 27 | 45 | 6.4 | 12.9 | 0.00 | 0.00 | 0.00 | 1 | 1017.8 |
| 20260830141503 | 27 | 44 | 6.4 | 12.9 | 0.00 | 0.00 | 0.00 | 1 | 1017.8 |
| 20260830141424 | 27 | 45 | 8.0 | 14.5 | 0.00 | 0.00 | 0.00 | 1 | 1017.8 |
| 20260830141303 | 27 | 43 | 8.0 | 17.7 | 0.00 | 0.00 | 0.00 | 1 | 1017.8 |
| 20260830141203 | 27 | 44 | 8.0 | 17.7 | 0.00 | 0.00 | 0.00 | 1 | 1017.9 |
| 20260830141103 | 27 | 46 | 8.0 | 17.7 | 0.00 | 0.00 | 0.00 | 1 | 1017.9 |
| 20260830141003 | 27 | 46 | 8.0 | 17.7 | 0.00 | 0.00 | 0.00 | 1 | 1017.8 |
| 20260830140903 | 27 | 43 | 8.0 | 17.7 | 0.00 | 0.00 | 0.00 | 1 | 1017.8 |
| 20260830140803 | 27 | 47 | 8.0 | 17.7 | 0.00 | 0.00 | 0.00 | 1 | 1017.8 |
| 20260830140703 | 27 | 47 | 8.0 | 17.7 | 0.00 | 0.00 | 0.00 | 1 | 1017.9 |
| 20260830140603 | 27 | 46 | 8.0 | 17.7 | 0.00 | 0.00 | 0.00 | 1 | 1017.9 |
| 20260830140503 | 27 | 47 | 8.0 | 17.7 | 0.00 | 0.00 | 0.00 | 1 | 1017.9 |
| 20260830140424 | 27 | 46 | 6.4 | 17.7 | 0.00 | 0.00 | 0.00 | 1 | 1017.9 |
| 20260830140303 | 27 | 47 | 6.4 | 14.5 | 0.00 | 0.00 | 0.00 | 1 | 1017.9 |
| 20260830140203 | 27 | 47 | 6.4 | 14.5 | 0.00 | 0.00 | 0.00 | 1 | 1017.9 |
| 20260830140024 | 27 | 44 | 6.4 | 16.1 | 0.00 | 0.00 | 0.00 | 1 | 1017.9 |
| 20260830135903 | 27 | 44 | 6.4 | 16.1 | 0.00 | 0.00 | 0.00 | 1 | 1017.9 |
| 20260830135824 | 27 | 45 | 6.4 | 16.1 | 0.00 | 0.00 | 0.00 | 1 | 1017.9 |
| 20260830135726 | 27 | 45 | 6.4 | 16.1 | 0.00 | 0.00 | 0.00 | 1 | 1017.9 |
| 20260830135603 | 27 | 44 | 6.4 | 16.1 | 0.00 | 0.00 | 0.00 | 1 | 1017.9 |
| 20260830135503 | 27 | 43 | 6.4 | 16.1 | 0.00 | 0.00 | 0.00 | 1 | 1017.9 |
| 20260830135403 | 27 | 43 | 6.4 | 16.1 | 0.00 | 0.00 | 0.00 | 1 | 1017.8 |
| 20260830135324 | 27 | 44 | 6.4 | 16.1 | 0.00 | 0.00 | 0.00 | 1 | 1017.8 |
| 20260830135203 | 27 | 45 | 6.4 | 16.1 | 0.00 | 0.00 | 0.00 | 1 | 1017.8 |
| 20260830135103 | 27 | 45 | 6.4 | 12.9 | 0.00 | 0.00 | 0.00 | 1 | 1017.8 |
| 20260830135024 | 27 | 46 | 6.4 | 12.9 | 0.00 | 0.00 | 0.00 | 1 | 1017.8 |
| 20260830134903 | 26 | 46 | 6.4 | 14.5 | 0.00 | 0.00 | 0.00 | 1 | 1017.8 |
| 20260830134803 | 26 | 47 | 6.4 | 16.1 | 0.00 | 0.00 | 0.00 | 1 | 1017.8 |
| 20260830134703 | 26 | 47 | 6.4 | 16.1 | 0.00 | 0.00 | 0.00 | 1 | 1017.7 |
| 20260830134603 | 26 | 46 | 6.4 | 16.1 | 0.00 | 0.00 | 0.00 | 1 | 1017.7 |
| 20260830134503 | 26 | 45 | 6.4 | 16.1 | 0.00 | 0.00 | 0.00 | 1 | 1017.7 |
| 20260830134403 | 26 | 45 | 6.4 | 16.1 | 0.00 | 0.00 | 0.00 | 1 | 1017.7 |
| 20260830134303 | 26 | 43 | 6.4 | 16.1 | 0.00 | 0.00 | 0.00 | 1 | 1017.7 |
| 20260830134203 | 26 | 41 | 6.4 | 16.1 | 0.00 | 0.00 | 0.00 | 1 | 1017.7 |
| 20260830134103 | 26 | 39 | 6.4 | 16.1 | 0.00 | 0.00 | 0.00 | 1 | 1017.7 |
| 20260830134024 | 26 | 39 | 6.4 | 16.1 | 0.00 | 0.00 | 0.00 | 1 | 1017.7 |
| 20260830133903 | 26 | 41 | 6.4 | 16.1 | 0.00 | 0.00 | 0.00 | 1 | 1017.7 |
| 20260830133803 | 26 | 42 | 6.4 | 12.9 | 0.00 | 0.00 | 0.00 | 1 | 1017.7 |
| 20260830133703 | 26 | 44 | 6.4 | 12.9 | 0.00 | 0.00 | 0.00 | 1 | 1017.6 |
| 20260830133603 | 26 | 45 | 6.4 | 12.9 | 0.00 | 0.00 | 0.00 | 1 | 1017.5 |
| 20260830133503 | 26 | 46 | 6.4 | 12.9 | 0.00 | 0.00 | 0.00 | 1 | 1017.5 |
| 20260830133403 | 26 | 46 | 6.4 | 12.9 | 0.00 | 0.00 | 0.00 | 1 | 1017.5 |
| 20260830133303 | 26 | 46 | 6.4 | 12.9 | 0.00 | 0.00 | 0.00 | 1 | 1017.5 |
| 20260830133203 | 26 | 46 | 6.4 | 12.9 | 0.00 | 0.00 | 0.00 | 1 | 1017.5 |
| 20260830133103 | 26 | 47 | 6.4 | 12.9 | 0.00 | 0.00 | 0.00 | 1 | 1017.5 |
| 20260830133003 | 26 | 50 | 6.4 | 12.9 | 0.00 | 0.00 | 0.00 | 1 | 1017.5 |
| 20260830132903 | 26 | 50 | 6.4 | 12.9 | 0.00 | 0.00 | 0.00 | 1 | 1017.5 |
| 20260830132803 | 25 | 49 | 6.4 | 11.3 | 0.00 | 0.00 | 0.00 | 1 | 1017.5 |
| 20260830132703 | 25 | 48 | 6.4 | 11.3 | 0.00 | 0.00 | 0.00 | 1 | 1017.5 |
| 20260830132624 | 25 | 49 | 6.4 | 11.3 | 0.00 | 0.00 | 0.00 | 1 | 1017.5 |
| 20260830132503 | 25 | 48 | 6.4 | 11.3 | 0.00 | 0.00 | 0.00 | 1 | 1017.5 |
| 20260830132403 | 25 | 50 | 6.4 | 12.9 | 0.00 | 0.00 | 0.00 | 1 | 1017.5 |
| 20260830132305 | 25 | 49 | 6.4 | 12.9 | 0.00 | 0.00 | 0.00 | 1 | 1017.5 |
| 20260830132203 | 25 | 51 | 6.4 | 12.9 | 0.00 | 0.00 | 0.00 | 1 | 1017.5 |
| 20260830132103 | 25 | 50 | 6.4 | 12.9 | 0.00 | 0.00 | 0.00 | 1 | 1017.5 |
| 20260830132024 | 25 | 49 | 6.4 | 12.9 | 0.00 | 0.00 | 0.00 | 1 | 1017.4 |
| 20260830131903 | 25 | 47 | 6.4 | 12.9 | 0.00 | 0.00 | 0.00 | 1 | 1017.5 |
| 20260830131803 | 25 | 46 | 6.4 | 12.9 | 0.00 | 0.00 | 0.00 | 1 | 1017.4 |
| 20260830131703 | 25 | 46 | 8.0 | 12.9 | 0.00 | 0.00 | 0.00 | 1 | 1017.4 |
| 20260830131624 | 25 | 46 | 6.4 | 12.9 | 0.00 | 0.00 | 0.00 | 1 | 1017.4 |
| 20260830131503 | 25 | 43 | 6.4 | 12.9 | 0.00 | 0.00 | 0.00 | 1 | 1017.4 |
| 20260830131403 | 25 | 41 | 6.4 | 12.9 | 0.00 | 0.00 | 0.00 | 1 | 1017.4 |
| 20260830131303 | 25 | 41 | 6.4 | 12.9 | 0.00 | 0.00 | 0.00 | 1 | 1017.4 |
| 20260830131203 | 25 | 41 | 6.4 | 12.9 | 0.00 | 0.00 | 0.00 | 1 | 1017.4 |
| 20260830131103 | 25 | 41 | 6.4 | 12.9 | 0.00 | 0.00 | 0.00 | 1 | 1017.4 |
| 20260830131003 | 25 | 42 | 6.4 | 12.9 | 0.00 | 0.00 | 0.00 | 1 | 1017.4 |
| 20260830130924 | 25 | 42 | 6.4 | 12.9 | 0.00 | 0.00 | 0.00 | 1 | 1017.3 |
| 20260830130824 | 25 | 42 | 6.4 | 11.3 | 0.00 | 0.00 | 0.00 | 1 | 1017.3 |
| 20260830130703 | 25 | 41 | 4.8 | 11.3 | 0.00 | 0.00 | 0.00 | 1 | 1017.3 |
| 20260830130603 | 25 | 41 | 4.8 | 11.3 | 0.00 | 0.00 | 0.00 | 1 | 1017.3 |
| 20260830130503 | 25 | 42 | 4.8 | 11.3 | 0.00 | 0.00 | 0.00 | 1 | 1017.3 |
| 20260830130403 | 25 | 42 | 6.4 | 12.9 | 0.00 | 0.00 | 0.00 | 1 | 1017.3 |
| 20260830130324 | 25 | 42 | 6.4 | 12.9 | 0.00 | 0.00 | 0.00 | 1 | 1017.3 |
| 20260830130203 | 24 | 42 | 6.4 | 12.9 | 0.00 | 0.00 | 0.00 | 1 | 1017.3 |
| 20260830130124 | 24 | 42 | 6.4 | 12.9 | 0.00 | 0.00 | 0.00 | 1 | 1017.3 |
| 20260830130003 | 24 | 43 | 6.4 | 12.9 | 0.00 | 0.00 | 0.00 | 1 | 1017.2 |
| 20260830125903 | 24 | 44 | 6.4 | 12.9 | 0.00 | 0.00 | 0.00 | 1 | 1017.3 |
| 20260830125825 | 24 | 45 | 6.4 | 12.9 | 0.00 | 0.00 | 0.00 | 1 | 1017.3 |
| 20260830125704 | 24 | 46 | 6.4 | 12.9 | 0.00 | 0.00 | 0.00 | 1 | 1017.2 |
| 20260830125625 | 24 | 46 | 6.4 | 12.9 | 0.00 | 0.00 | 0.00 | 1 | 1017.2 |
| 20260830125504 | 24 | 48 | 6.4 | 12.9 | 0.00 | 0.00 | 0.00 | 1 | 1017.2 |
| 20260830125404 | 24 | 48 | 6.4 | 12.9 | 0.00 | 0.00 | 0.00 | 1 | 1017.2 |
| 20260830125325 | 24 | 48 | 6.4 | 12.9 | 0.00 | 0.00 | 0.00 | 1 | 1017.2 |
| 20260830125204 | 24 | 49 | 6.4 | 12.9 | 0.00 | 0.00 | 0.00 | 1 | 1017.2 |
| 20260830125104 | 24 | 50 | 4.8 | 12.9 | 0.00 | 0.00 | 0.00 | 1 | 1017.2 |
| 20260830125004 | 24 | 51 | 4.8 | 11.3 | 0.00 | 0.00 | 0.00 | 1 | 1017.2 |
| 20260830124904 | 24 | 49 | 4.8 | 11.3 | 0.00 | 0.00 | 0.00 | 1 | 1017.2 |
| 20260830124825 | 23 | 48 | 4.8 | 11.3 | 0.00 | 0.00 | 0.00 | 1 | 1017.2 |
| 20260830124704 | 23 | 47 | 4.8 | 11.3 | 0.00 | 0.00 | 0.00 | 1 | 1017.2 |
| 20260830124604 | 23 | 47 | 4.8 | 11.3 | 0.00 | 0.00 | 0.00 | 1 | 1017.2 |
| 20260830124504 | 23 | 47 | 4.8 | 9.7 | 0.00 | 0.00 | 0.00 | 1 | 1017.2 |
| 20260830124404 | 23 | 47 | 4.8 | 9.7 | 0.00 | 0.00 | 0.00 | 1 | 1017.2 |
| 20260830124304 | 23 | 46 | 4.8 | 9.7 | 0.00 | 0.00 | 0.00 | 1 | 1017.2 |
| 20260830124204 | 23 | 46 | 4.8 | 9.7 | 0.00 | 0.00 | 0.00 | 1 | 1017.1 |
| 20260830124104 | 23 | 45 | 4.8 | 9.7 | 0.00 | 0.00 | 0.00 | 1 | 1017.1 |
| 20260830124004 | 23 | 45 | 3.2 | 9.7 | 0.00 | 0.00 | 0.00 | 1 | 1017.1 |
| 20260830123904 | 23 | 44 | 3.2 | 9.7 | 0.00 | 0.00 | 0.00 | 1 | 1017.1 |
| 20260830123825 | 23 | 43 | 3.2 | 9.7 | 0.00 | 0.00 | 0.00 | 1 | 1017.1 |
| 20260830123704 | 23 | 43 | 3.2 | 8.0 | 0.00 | 0.00 | 0.00 | 1 | 1017.1 |
| 20260830123604 | 23 | 43 | 3.2 | 8.0 | 0.00 | 0.00 | 0.00 | 1 | 1017.0 |
| 20260830123504 | 23 | 43 | 3.2 | 8.0 | 0.00 | 0.00 | 0.00 | 1 | 1017.1 |
| 20260830123404 | 23 | 42 | 3.2 | 8.0 | 0.00 | 0.00 | 0.00 | 1 | 1017.0 |
| 20260830123304 | 23 | 42 | 3.2 | 8.0 | 0.00 | 0.00 | 0.00 | 1 | 1017.0 |
| 20260830123204 | 23 | 42 | 3.2 | 8.0 | 0.00 | 0.00 | 0.00 | 1 | 1017.0 |
| 20260830123125 | 23 | 42 | 3.2 | 8.0 | 0.00 | 0.00 | 0.00 | 1 | 1017.0 |
| 20260830123004 | 23 | 42 | 3.2 | 8.0 | 0.00 | 0.00 | 0.00 | 1 | 1017.0 |
| 20260830122925 | 23 | 42 | 3.2 | 8.0 | 0.00 | 0.00 | 0.00 | 1 | 1017.0 |
| 20260830122804 | 23 | 43 | 3.2 | 8.0 | 0.00 | 0.00 | 0.00 | 1 | 1017.0 |
| 20260830122704 | 23 | 42 | 3.2 | 12.9 | 0.00 | 0.00 | 0.00 | 1 | 1017.0 |
| 20260830122604 | 23 | 45 | 4.8 | 12.9 | 0.00 | 0.00 | 0.00 | 1 | 1017.0 |
| 20260830122504 | 23 | 47 | 4.8 | 12.9 | 0.00 | 0.00 | 0.00 | 1 | 1017.0 |
| 20260830122425 | 23 | 49 | 4.8 | 12.9 | 0.00 | 0.00 | 0.00 | 1 | 1017.0 |
| 20260830122306 | 23 | 52 | 4.8 | 12.9 | 0.00 | 0.00 | 0.00 | 1 | 1017.0 |
| 20260830122204 | 23 | 53 | 4.8 | 12.9 | 0.00 | 0.00 | 0.00 | 1 | 1017.0 |
| 20260830122125 | 23 | 54 | 4.8 | 12.9 | 0.00 | 0.00 | 0.00 | 1 | 1017.0 |
| 20260830122004 | 23 | 55 | 4.8 | 12.9 | 0.00 | 0.00 | 0.00 | 1 | 1017.0 |
| 20260830121904 | 23 | 57 | 6.4 | 12.9 | 0.00 | 0.00 | 0.00 | 1 | 1017.0 |
| 20260830121825 | 23 | 58 | 6.4 | 12.9 | 0.00 | 0.00 | 0.00 | 1 | 1017.0 |
| 20260830121704 | 23 | 61 | 6.4 | 11.3 | 0.00 | 0.00 | 0.00 | 1 | 1017.0 |
| 20260830121625 | 23 | 61 | 4.8 | 11.3 | 0.00 | 0.00 | 0.00 | 1 | 1017.0 |
| 20260830121525 | 23 | 61 | 4.8 | 11.3 | 0.00 | 0.00 | 0.00 | 1 | 1017.0 |
| 20260830121404 | 23 | 59 | 4.8 | 11.3 | 0.00 | 0.00 | 0.00 | 1 | 1016.9 |
| 20260830121304 | 23 | 60 | 4.8 | 11.3 | 0.00 | 0.00 | 0.00 | 1 | 1016.9 |
| 20260830121204 | 23 | 60 | 4.8 | 11.3 | 0.00 | 0.00 | 0.00 | 1 | 1016.9 |
| 20260830121104 | 23 | 61 | 4.8 | 11.3 | 0.00 | 0.00 | 0.00 | 1 | 1016.9 |
| 20260830121004 | 23 | 61 | 4.8 | 11.3 | 0.00 | 0.00 | 0.00 | 1 | 1016.9 |
| 20260830120904 | 23 | 61 | 3.2 | 11.3 | 0.00 | 0.00 | 0.00 | 1 | 1016.9 |
| 20260830120825 | 23 | 61 | 3.2 | 9.7 | 0.00 | 0.00 | 0.00 | 1 | 1016.9 |
| 20260830120704 | 23 | 60 | 3.2 | 9.7 | 0.00 | 0.00 | 0.00 | 1 | 1016.8 |
| 20260830120604 | 23 | 60 | 3.2 | 9.7 | 0.00 | 0.00 | 0.00 | 1 | 1016.9 |
| 20260830120525 | 23 | 59 | 3.2 | 9.7 | 0.00 | 0.00 | 0.00 | 1 | 1016.9 |
| 20260830120404 | 23 | 59 | 3.2 | 9.7 | 0.00 | 0.00 | 0.00 | 1 | 1016.9 |
| 20260830120325 | 23 | 59 | 3.2 | 8.0 | 0.00 | 0.00 | 0.00 | 1 | 1016.9 |
| 20260830120204 | 23 | 58 | 3.2 | 8.0 | 0.00 | 0.00 | 0.00 | 1 | 1016.9 |
| 20260830120104 | 23 | 58 | 3.2 | 8.0 | 0.00 | 0.00 | 0.00 | 1 | 1016.8 |
| 20260830120004 | 23 | 57 | 3.2 | 8.0 | 0.00 | 0.00 | 0.00 | 1 | 1016.8 |
| 20260830115904 | 23 | 56 | 3.2 | 8.0 | 0.00 | 0.00 | 0.00 | 1 | 1016.8 |
| 20260830115804 | 23 | 55 | 3.2 | 9.7 | 0.00 | 0.00 | 0.00 | 1 | 1016.8 |
| 20260830115704 | 23 | 54 | 3.2 | 9.7 | 0.00 | 0.00 | 0.00 | 1 | 1016.8 |
| 20260830115604 | 23 | 54 | 3.2 | 9.7 | 0.00 | 0.00 | 0.00 | 1 | 1016.8 |
| 20260830115504 | 23 | 53 | 4.8 | 11.3 | 0.00 | 0.00 | 0.00 | 1 | 1016.8 |
| 20260830115404 | 23 | 54 | 4.8 | 11.3 | 0.00 | 0.00 | 0.00 | 1 | 1016.8 |
| 20260830115306 | 23 | 54 | 4.8 | 11.3 | 0.00 | 0.00 | 0.00 | 1 | 1016.8 |
| 20260830115204 | 23 | 54 | 3.2 | 11.3 | 0.00 | 0.00 | 0.00 | 1 | 1016.8 |
| 20260830115104 | 23 | 56 | 4.8 | 11.3 | 0.00 | 0.00 | 0.00 | 1 | 1016.8 |
| 20260830115004 | 23 | 57 | 4.8 | 11.3 | 0.00 | 0.00 | 0.00 | 1 | 1016.8 |
| 20260830114904 | 23 | 56 | 4.8 | 11.3 | 0.00 | 0.00 | 0.00 | 1 | 1016.8 |
| 20260830114804 | 23 | 57 | 4.8 | 11.3 | 0.00 | 0.00 | 0.00 | 1 | 1016.8 |
| 20260830114704 | 23 | 58 | 4.8 | 11.3 | 0.00 | 0.00 | 0.00 | 1 | 1016.7 |
| 20260830114625 | 23 | 58 | 3.2 | 11.3 | 0.00 | 0.00 | 0.00 | 1 | 1016.8 |
| 20260830114525 | 23 | 59 | 3.2 | 8.0 | 0.00 | 0.00 | 0.00 | 1 | 1016.7 |
| 20260830114404 | 23 | 58 | 3.2 | 8.0 | 0.00 | 0.00 | 0.00 | 1 | 1016.7 |
| 20260830114325 | 23 | 57 | 3.2 | 8.0 | 0.00 | 0.00 | 0.00 | 1 | 1016.7 |
| 20260830114204 | 23 | 58 | 3.2 | 8.0 | 0.00 | 0.00 | 0.00 | 1 | 1016.8 |
| 20260830114104 | 23 | 57 | 3.2 | 8.0 | 0.00 | 0.00 | 0.00 | 1 | 1016.7 |
| 20260830114025 | 23 | 57 | 3.2 | 8.0 | 0.00 | 0.00 | 0.00 | 1 | 1016.7 |
| 20260830113904 | 23 | 57 | 3.2 | 8.0 | 0.00 | 0.00 | 0.00 | 1 | 1016.7 |
| 20260830113804 | 23 | 56 | 3.2 | 8.0 | 0.00 | 0.00 | 0.00 | 1 | 1016.7 |
| 20260830113704 | 23 | 55 | 3.2 | 8.0 | 0.00 | 0.00 | 0.00 | 1 | 1016.7 |
| 20260830113604 | 23 | 55 | 3.2 | 8.0 | 0.00 | 0.00 | 0.00 | 1 | 1016.7 |
| 20260830113504 | 23 | 55 | 3.2 | 8.0 | 0.00 | 0.00 | 0.00 | 1 | 1016.7 |
| 20260830113404 | 23 | 55 | 3.2 | 8.0 | 0.00 | 0.00 | 0.00 | 1 | 1016.7 |
| 20260830113304 | 23 | 54 | 3.2 | 8.0 | 0.00 | 0.00 | 0.00 | 1 | 1016.7 |
| 20260830113204 | 23 | 53 | 3.2 | 9.7 | 0.00 | 0.00 | 0.00 | 1 | 1016.7 |
| 20260830113104 | 23 | 51 | 3.2 | 9.7 | 0.00 | 0.00 | 0.00 | 1 | 1016.6 |
| 20260830113004 | 23 | 52 | 3.2 | 9.7 | 0.00 | 0.00 | 0.00 | 1 | 1016.6 |
| 20260830112904 | 23 | 51 | 3.2 | 9.7 | 0.00 | 0.00 | 0.00 | 1 | 1016.6 |
| 20260830112825 | 23 | 51 | 3.2 | 9.7 | 0.00 | 0.00 | 0.00 | 1 | 1016.6 |
| 20260830112704 | 23 | 51 | 3.2 | 9.7 | 0.00 | 0.00 | 0.00 | 1 | 1016.6 |
| 20260830112625 | 23 | 52 | 3.2 | 9.7 | 0.00 | 0.00 | 0.00 | 1 | 1016.5 |
| 20260830112504 | 23 | 52 | 3.2 | 9.7 | 0.00 | 0.00 | 0.00 | 1 | 1016.5 |
| 20260830112404 | 23 | 52 | 3.2 | 9.7 | 0.00 | 0.00 | 0.00 | 1 | 1016.5 |
| 20260830112306 | 23 | 53 | 3.2 | 9.7 | 0.00 | 0.00 | 0.00 | 1 | 1016.5 |
| 20260830112204 | 23 | 53 | 3.2 | 8.0 | 0.00 | 0.00 | 0.00 | 1 | 1016.6 |
| 20260830112104 | 23 | 54 | 3.2 | 8.0 | 0.00 | 0.00 | 0.00 | 1 | 1016.6 |
| 20260830112025 | 23 | 54 | 3.2 | 8.0 | 0.00 | 0.00 | 0.00 | 1 | 1016.5 |
| 20260830111904 | 23 | 55 | 3.2 | 6.4 | 0.00 | 0.00 | 0.00 | 1 | 1016.5 |
| 20260830111804 | 23 | 55 | 3.2 | 6.4 | 0.00 | 0.00 | 0.00 | 1 | 1016.5 |
| 20260830111725 | 24 | 55 | 3.2 | 8.0 | 0.00 | 0.00 | 0.00 | 1 | 1016.5 |
| 20260830111604 | 24 | 56 | 3.2 | 8.0 | 0.00 | 0.00 | 0.00 | 1 | 1016.5 |
| 20260830111504 | 24 | 56 | 3.2 | 9.7 | 0.00 | 0.00 | 0.00 | 1 | 1016.5 |
| 20260830111404 | 24 | 56 | 3.2 | 9.7 | 0.00 | 0.00 | 0.00 | 1 | 1016.5 |
| 20260830111304 | 24 | 56 | 4.8 | 11.3 | 0.00 | 0.00 | 0.00 | 1 | 1016.5 |
| 20260830111225 | 24 | 56 | 4.8 | 11.3 | 0.00 | 0.00 | 0.00 | 1 | 1016.6 |
| 20260830111104 | 24 | 56 | 4.8 | 11.3 | 0.00 | 0.00 | 0.00 | 1 | 1016.6 |
| 20260830111004 | 24 | 55 | 4.8 | 11.3 | 0.00 | 0.00 | 0.00 | 1 | 1016.6 |
| 20260830110904 | 24 | 55 | 4.8 | 11.3 | 0.00 | 0.00 | 0.00 | 1 | 1016.6 |
| 20260830110804 | 24 | 55 | 4.8 | 11.3 | 0.00 | 0.00 | 0.00 | 1 | 1016.5 |
| 20260830110704 | 24 | 55 | 4.8 | 11.3 | 0.00 | 0.00 | 0.00 | 1 | 1016.6 |
| 20260830110604 | 24 | 55 | 3.2 | 11.3 | 0.00 | 0.00 | 0.00 | 1 | 1016.6 |
| 20260830110504 | 24 | 55 | 3.2 | 11.3 | 0.00 | 0.00 | 0.00 | 1 | 1016.6 |
| 20260830110425 | 24 | 54 | 3.2 | 11.3 | 0.00 | 0.00 | 0.00 | 1 | 1016.5 |
| 20260830110304 | 24 | 53 | 3.2 | 9.7 | 0.00 | 0.00 | 0.00 | 1 | 1016.5 |
| 20260830110205 | 24 | 54 | 3.2 | 8.0 | 0.00 | 0.00 | 0.00 | 1 | 1016.5 |
| 20260830110104 | 24 | 54 | 3.2 | 8.0 | 0.00 | 0.00 | 0.00 | 1 | 1016.5 |
| 20260830110005 | 24 | 54 | 3.2 | 8.0 | 0.00 | 0.00 | 0.00 | 1 | 1016.5 |
| 20260830105904 | 24 | 55 | 3.2 | 8.0 | 0.00 | 0.00 | 0.00 | 1 | 1016.5 |
| 20260830105804 | 24 | 55 | 3.2 | 8.0 | 0.00 | 0.00 | 0.00 | 1 | 1016.5 |
| 20260830105704 | 24 | 54 | 3.2 | 8.0 | 0.00 | 0.00 | 0.00 | 1 | 1016.4 |
| 20260830105604 | 24 | 54 | 3.2 | 8.0 | 0.00 | 0.00 | 0.00 | 1 | 1016.4 |
| 20260830105525 | 24 | 55 | 3.2 | 8.0 | 0.00 | 0.00 | 0.00 | 1 | 1016.4 |
| 20260830105425 | 24 | 55 | 3.2 | 8.0 | 0.00 | 0.00 | 0.00 | 1 | 1016.4 |
| 20260830105305 | 24 | 56 | 3.2 | 9.7 | 0.00 | 0.00 | 0.00 | 1 | 1016.5 |
| 20260830105204 | 24 | 56 | 3.2 | 9.7 | 0.00 | 0.00 | 0.00 | 1 | 1016.5 |
| 20260830105104 | 24 | 57 | 3.2 | 9.7 | 0.00 | 0.00 | 0.00 | 1 | 1016.4 |
| 20260830105004 | 24 | 57 | 3.2 | 9.7 | 0.00 | 0.00 | 0.00 | 1 | 1016.5 |
| 20260830104904 | 24 | 58 | 3.2 | 9.7 | 0.00 | 0.00 | 0.00 | 1 | 1016.5 |
| 20260830104804 | 24 | 57 | 3.2 | 9.7 | 0.00 | 0.00 | 0.00 | 1 | 1016.4 |
| 20260830104704 | 24 | 56 | 3.2 | 9.7 | 0.00 | 0.00 | 0.00 | 1 | 1016.5 |
| 20260830104604 | 24 | 56 | 3.2 | 9.7 | 0.00 | 0.00 | 0.00 | 1 | 1016.5 |
| 20260830104504 | 24 | 54 | 3.2 | 9.7 | 0.00 | 0.00 | 0.00 | 1 | 1016.4 |
| 20260830104404 | 24 | 54 | 3.2 | 8.0 | 0.00 | 0.00 | 0.00 | 1 | 1016.4 |
| 20260830104325 | 24 | 54 | 3.2 | 8.0 | 0.00 | 0.00 | 0.00 | 1 | 1016.5 |
| 20260830104204 | 24 | 51 | 3.2 | 8.0 | 0.00 | 0.00 | 0.00 | 1 | 1016.4 |
| 20260830104104 | 24 | 48 | 3.2 | 8.0 | 0.00 | 0.00 | 0.00 | 1 | 1016.5 |
| 20260830104025 | 24 | 44 | 3.2 | 9.7 | 0.00 | 0.00 | 0.00 | 1 | 1016.4 |
| 20260830103904 | 25 | 40 | 3.2 | 9.7 | 0.00 | 0.00 | 0.00 | 1 | 1016.5 |
| 20260830103804 | 25 | 40 | 3.2 | 9.7 | 0.00 | 0.00 | 0.00 | 1 | 1016.5 |
| 20260830103704 | 25 | 39 | 3.2 | 9.7 | 0.00 | 0.00 | 0.00 | 1 | 1016.4 |
| 20260830103625 | 25 | 38 | 3.2 | 9.7 | 0.00 | 0.00 | 0.00 | 1 | 1016.4 |
| 20260830103504 | 25 | 37 | 3.2 | 9.7 | 0.00 | 0.00 | 0.00 | 1 | 1016.4 |
| 20260830103404 | 25 | 35 | 3.2 | 9.7 | 0.00 | 0.00 | 0.00 | 1 | 1016.4 |
| 20260830103304 | 25 | 32 | 3.2 | 9.7 | 0.00 | 0.00 | 0.00 | 1 | 1016.4 |
| 20260830103204 | 25 | 33 | 3.2 | 9.7 | 0.00 | 0.00 | 0.00 | 1 | 1016.4 |
| 20260830103104 | 25 | 35 | 3.2 | 9.7 | 0.00 | 0.00 | 0.00 | 1 | 1016.4 |
| 20260830103004 | 25 | 38 | 3.2 | 8.0 | 0.00 | 0.00 | 0.00 | 1 | 1016.4 |
| 20260830102904 | 25 | 38 | 3.2 | 8.0 | 0.00 | 0.00 | 0.00 | 1 | 1016.4 |
| 20260830102804 | 25 | 39 | 3.2 | 8.0 | 0.00 | 0.00 | 0.00 | 1 | 1016.3 |
| 20260830102704 | 25 | 38 | 3.2 | 11.3 | 0.00 | 0.00 | 0.00 | 1 | 1016.3 |
| 20260830102625 | 25 | 38 | 3.2 | 11.3 | 0.00 | 0.00 | 0.00 | 1 | 1016.3 |
| 20260830102504 | 25 | 39 | 3.2 | 11.3 | 0.00 | 0.00 | 0.00 | 1 | 1016.3 |
| 20260830102404 | 25 | 38 | 3.2 | 11.3 | 0.00 | 0.00 | 0.00 | 1 | 1016.3 |
| 20260830102306 | 25 | 38 | 3.2 | 11.3 | 0.00 | 0.00 | 0.00 | 1 | 1016.3 |
| 20260830102204 | 25 | 37 | 3.2 | 11.3 | 0.00 | 0.00 | 0.00 | 1 | 1016.4 |
| 20260830102125 | 25 | 37 | 3.2 | 11.3 | 0.00 | 0.00 | 0.00 | 1 | 1016.4 |
| 20260830102004 | 25 | 36 | 3.2 | 11.3 | 0.00 | 0.00 | 0.00 | 1 | 1016.4 |
| 20260830101904 | 25 | 36 | 3.2 | 11.3 | 0.00 | 0.00 | 0.00 | 1 | 1016.4 |
| 20260830101804 | 25 | 36 | 3.2 | 11.3 | 0.00 | 0.00 | 0.00 | 1 | 1016.4 |
| 20260830101704 | 25 | 38 | 3.2 | 8.0 | 0.00 | 0.00 | 0.00 | 1 | 1016.4 |
| 20260830101625 | 25 | 38 | 3.2 | 8.0 | 0.00 | 0.00 | 0.00 | 1 | 1016.4 |
| 20260830101504 | 25 | 40 | 3.2 | 8.0 | 0.00 | 0.00 | 0.00 | 1 | 1016.4 |
| 20260830101404 | 25 | 41 | 3.2 | 8.0 | 0.00 | 0.00 | 0.00 | 1 | 1016.4 |
| 20260830101304 | 25 | 41 | 4.8 | 8.0 | 0.00 | 0.00 | 0.00 | 1 | 1016.4 |
| 20260830101204 | 25 | 42 | 4.8 | 8.0 | 0.00 | 0.00 | 0.00 | 1 | 1016.3 |
| 20260830101104 | 25 | 43 | 4.8 | 8.0 | 0.00 | 0.00 | 0.00 | 1 | 1016.4 |
| 20260830101004 | 25 | 44 | 3.2 | 8.0 | 0.00 | 0.00 | 0.00 | 1 | 1016.4 |
| 20260830100925 | 25 | 44 | 4.8 | 8.0 | 0.00 | 0.00 | 0.00 | 1 | 1016.4 |
| 20260830100825 | 25 | 45 | 4.8 | 8.0 | 0.00 | 0.00 | 0.00 | 1 | 1016.3 |
| 20260830100704 | 25 | 44 | 4.8 | 9.7 | 0.00 | 0.00 | 0.00 | 1 | 1016.4 |
| 20260830100604 | 25 | 44 | 4.8 | 9.7 | 0.00 | 0.00 | 0.00 | 1 | 1016.3 |
| 20260830100504 | 25 | 43 | 4.8 | 9.7 | 0.00 | 0.00 | 0.00 | 1 | 1016.3 |
| 20260830100404 | 25 | 41 | 4.8 | 9.7 | 0.00 | 0.00 | 0.00 | 1 | 1016.4 |
| 20260830100304 | 25 | 41 | 4.8 | 9.7 | 0.00 | 0.00 | 0.00 | 1 | 1016.3 |
| 20260830100204 | 25 | 42 | 4.8 | 9.7 | 0.00 | 0.00 | 0.00 | 1 | 1016.4 |
| 20260830100104 | 25 | 42 | 4.8 | 9.7 | 0.00 | 0.00 | 0.00 | 1 | 1016.4 |
| 20260830100004 | 25 | 43 | 4.8 | 9.7 | 0.00 | 0.00 | 0.00 | 1 | 1016.3 |
| 20260830095904 | 25 | 44 | 4.8 | 9.7 | 0.00 | 0.00 | 0.00 | 1 | 1016.3 |
| 20260830095804 | 25 | 44 | 4.8 | 9.7 | 0.00 | 0.00 | 0.00 | 1 | 1016.3 |
| 20260830095704 | 25 | 45 | 4.8 | 9.7 | 0.00 | 0.00 | 0.00 | 1 | 1016.3 |
| 20260830095625 | 25 | 46 | 4.8 | 9.7 | 0.00 | 0.00 | 0.00 | 1 | 1016.3 |
| 20260830095525 | 25 | 47 | 4.8 | 9.7 | 0.00 | 0.00 | 0.00 | 1 | 1016.3 |
| 20260830095404 | 25 | 48 | 4.8 | 9.7 | 0.00 | 0.00 | 0.00 | 1 | 1016.3 |
| 20260830095325 | 25 | 48 | 4.8 | 9.7 | 0.00 | 0.00 | 0.00 | 1 | 1016.2 |
| 20260830095204 | 25 | 47 | 4.8 | 11.3 | 0.00 | 0.00 | 0.00 | 1 | 1016.2 |
| 20260830095104 | 25 | 47 | 6.4 | 11.3 | 0.00 | 0.00 | 0.00 | 1 | 1016.2 |
| 20260830095004 | 25 | 47 | 6.4 | 11.3 | 0.00 | 0.00 | 0.00 | 1 | 1016.2 |
| 20260830094904 | 25 | 47 | 6.4 | 11.3 | 0.00 | 0.00 | 0.00 | 1 | 1016.2 |
| 20260830094825 | 25 | 48 | 6.4 | 11.3 | 0.00 | 0.00 | 0.00 | 1 | 1016.2 |
| 20260830094704 | 25 | 49 | 6.4 | 11.3 | 0.00 | 0.00 | 0.00 | 1 | 1016.2 |
| 20260830094604 | 25 | 50 | 6.4 | 11.3 | 0.00 | 0.00 | 0.00 | 1 | 1016.2 |
| 20260830094505 | 25 | 51 | 6.4 | 11.3 | 0.00 | 0.00 | 0.00 | 1 | 1016.2 |
| 20260830094425 | 25 | 52 | 4.8 | 11.3 | 0.00 | 0.00 | 0.00 | 1 | 1016.2 |
| 20260830094304 | 25 | 55 | 4.8 | 11.3 | 0.00 | 0.00 | 0.00 | 1 | 1016.2 |
| 20260830094204 | 25 | 57 | 4.8 | 11.3 | 0.00 | 0.00 | 0.00 | 1 | 1016.1 |
| 20260830094104 | 25 | 59 | 4.8 | 11.3 | 0.00 | 0.00 | 0.00 | 1 | 1016.1 |
| 20260830094004 | 25 | 62 | 4.8 | 11.3 | 0.00 | 0.00 | 0.00 | 1 | 1016.1 |
| 20260830093904 | 25 | 64 | 4.8 | 11.3 | 0.00 | 0.00 | 0.00 | 1 | 1016.1 |
| 20260830093804 | 25 | 65 | 4.8 | 9.7 | 0.00 | 0.00 | 0.00 | 1 | 1016.2 |
| 20260830093704 | 25 | 65 | 4.8 | 9.7 | 0.00 | 0.00 | 0.00 | 1 | 1016.2 |
| 20260830093604 | 25 | 64 | 4.8 | 9.7 | 0.00 | 0.00 | 0.00 | 1 | 1016.1 |
| 20260830093504 | 25 | 63 | 4.8 | 9.7 | 0.00 | 0.00 | 0.00 | 1 | 1016.2 |
| 20260830093404 | 25 | 62 | 4.8 | 9.7 | 0.00 | 0.00 | 0.00 | 1 | 1016.2 |
| 20260830093304 | 25 | 62 | 4.8 | 9.7 | 0.00 | 0.00 | 0.00 | 1 | 1016.1 |
| 20260830093204 | 25 | 61 | 4.8 | 9.7 | 0.00 | 0.00 | 0.00 | 1 | 1016.1 |
| 20260830093104 | 25 | 58 | 4.8 | 9.7 | 0.00 | 0.00 | 0.00 | 1 | 1016.2 |
| 20260830093004 | 25 | 55 | 6.4 | 9.7 | 0.00 | 0.00 | 0.00 | 1 | 1016.1 |
| 20260830092904 | 25 | 52 | 4.8 | 9.7 | 0.00 | 0.00 | 0.00 | 1 | 1016.1 |
| 20260830092825 | 25 | 49 | 6.4 | 9.7 | 0.00 | 0.00 | 0.00 | 1 | 1016.1 |
| 20260830092704 | 25 | 47 | 6.4 | 12.9 | 0.00 | 0.00 | 0.00 | 1 | 1016.1 |
| 20260830092604 | 25 | 46 | 6.4 | 12.9 | 0.00 | 0.00 | 0.00 | 1 | 1016.1 |
| 20260830092525 | 25 | 45 | 6.4 | 12.9 | 0.00 | 0.00 | 0.00 | 1 | 1016.1 |
| 20260830092404 | 26 | 44 | 6.4 | 12.9 | 0.00 | 0.00 | 0.00 | 1 | 1016.0 |
| 20260830092306 | 26 | 42 | 6.4 | 12.9 | 0.00 | 0.00 | 0.00 | 1 | 1016.1 |
| 20260830092204 | 26 | 42 | 6.4 | 12.9 | 0.00 | 0.00 | 0.00 | 1 | 1016.1 |
| 20260830092125 | 26 | 42 | 6.4 | 12.9 | 0.00 | 0.00 | 0.00 | 1 | 1016.1 |
| 20260830092004 | 26 | 44 | 8.0 | 12.9 | 0.00 | 0.00 | 0.00 | 1 | 1016.1 |
| 20260830091904 | 26 | 44 | 8.0 | 12.9 | 0.00 | 0.00 | 0.00 | 1 | 1016.1 |
| 20260830091804 | 26 | 44 | 8.0 | 12.9 | 0.00 | 0.00 | 0.00 | 1 | 1016.1 |
| 20260830091704 | 26 | 45 | 8.0 | 12.9 | 0.00 | 0.00 | 0.00 | 1 | 1016.1 |
| 20260830091604 | 26 | 44 | 8.0 | 12.9 | 0.00 | 0.00 | 0.00 | 1 | 1016.1 |
| 20260830091525 | 26 | 45 | 8.0 | 12.9 | 0.00 | 0.00 | 0.00 | 1 | 1016.2 |
| 20260830091404 | 26 | 45 | 8.0 | 14.5 | 0.00 | 0.00 | 0.00 | 1 | 1016.2 |
| 20260830091304 | 26 | 45 | 8.0 | 14.5 | 0.00 | 0.00 | 0.00 | 1 | 1016.2 |
| 20260830091204 | 26 | 45 | 8.0 | 14.5 | 0.00 | 0.00 | 0.00 | 1 | 1016.1 |
| 20260830091125 | 26 | 46 | 8.0 | 14.5 | 0.00 | 0.00 | 0.00 | 1 | 1016.2 |
| 20260830091004 | 26 | 45 | 8.0 | 14.5 | 0.00 | 0.00 | 0.00 | 1 | 1016.2 |
| 20260830090904 | 26 | 44 | 8.0 | 16.1 | 0.00 | 0.00 | 0.00 | 1 | 1016.2 |
| 20260830090804 | 26 | 44 | 9.7 | 16.1 | 0.00 | 0.00 | 0.00 | 1 | 1016.2 |
| 20260830090704 | 26 | 45 | 9.7 | 16.1 | 0.00 | 0.00 | 0.00 | 1 | 1016.2 |
| 20260830090604 | 26 | 45 | 8.0 | 16.1 | 0.00 | 0.00 | 0.00 | 1 | 1016.2 |
| 20260830090504 | 26 | 46 | 8.0 | 16.1 | 0.00 | 0.00 | 0.00 | 1 | 1016.2 |
| 20260830090404 | 26 | 47 | 8.0 | 16.1 | 0.00 | 0.00 | 0.00 | 1 | 1016.3 |
| 20260830090304 | 26 | 47 | 8.0 | 16.1 | 0.00 | 0.00 | 0.00 | 1 | 1016.3 |
| 20260830090204 | 26 | 48 | 8.0 | 16.1 | 0.00 | 0.00 | 0.00 | 1 | 1016.2 |
| 20260830090104 | 26 | 49 | 8.0 | 16.1 | 0.00 | 0.00 | 0.00 | 1 | 1016.2 |
| 20260830090025 | 26 | 48 | 8.0 | 16.1 | 0.00 | 0.00 | 0.00 | 1 | 1016.3 |
| 20260830085904 | 26 | 49 | 6.4 | 14.5 | 0.00 | 0.00 | 0.00 | 1 | 1016.3 |
| 20260830085804 | 26 | 50 | 6.4 | 14.5 | 0.00 | 0.00 | 0.00 | 1 | 1016.3 |
| 20260830085704 | 26 | 48 | 6.4 | 14.5 | 0.00 | 0.00 | 0.00 | 1 | 1016.3 |
| 20260830085604 | 26 | 47 | 6.4 | 14.5 | 0.00 | 0.00 | 0.00 | 1 | 1016.3 |
| 20260830085525 | 26 | 47 | 6.4 | 14.5 | 0.00 | 0.00 | 0.00 | 1 | 1016.3 |
| 20260830085404 | 26 | 44 | 6.4 | 14.5 | 0.00 | 0.00 | 0.00 | 1 | 1016.3 |
| 20260830085325 | 26 | 44 | 6.4 | 14.5 | 0.00 | 0.00 | 0.00 | 1 | 1016.4 |
| 20260830085204 | 26 | 43 | 6.4 | 14.5 | 0.00 | 0.00 | 0.00 | 1 | 1016.4 |
| 20260830085104 | 26 | 42 | 6.4 | 14.5 | 0.00 | 0.00 | 0.00 | 1 | 1016.3 |
| 20260830085004 | 26 | 45 | 6.4 | 14.5 | 0.00 | 0.00 | 0.00 | 1 | 1016.4 |
| 20260830084904 | 26 | 47 | 6.4 | 14.5 | 0.00 | 0.00 | 0.00 | 1 | 1016.3 |
| 20260830084804 | 26 | 48 | 6.4 | 14.5 | 0.00 | 0.00 | 0.00 | 1 | 1016.3 |
| 20260830084704 | 26 | 50 | 6.4 | 12.9 | 0.00 | 0.00 | 0.00 | 1 | 1016.3 |
| 20260830084604 | 26 | 51 | 6.4 | 12.9 | 0.00 | 0.00 | 0.00 | 1 | 1016.3 |
| 20260830084525 | 26 | 51 | 6.4 | 12.9 | 0.00 | 0.00 | 0.00 | 1 | 1016.3 |
| 20260830084404 | 26 | 53 | 6.4 | 12.9 | 0.00 | 0.00 | 0.00 | 1 | 1016.3 |
| 20260830084304 | 26 | 54 | 6.4 | 12.9 | 0.00 | 0.00 | 0.00 | 1 | 1016.3 |
| 20260830084225 | 26 | 54 | 6.4 | 12.9 | 0.00 | 0.00 | 0.00 | 1 | 1016.4 |
| 20260830084104 | 26 | 52 | 6.4 | 14.5 | 0.00 | 0.00 | 0.00 | 1 | 1016.4 |
| 20260830084004 | 26 | 50 | 6.4 | 14.5 | 0.00 | 0.00 | 0.00 | 1 | 1016.4 |
| 20260830083904 | 26 | 49 | 6.4 | 14.5 | 0.00 | 0.00 | 0.00 | 1 | 1016.4 |
| 20260830083804 | 26 | 48 | 6.4 | 14.5 | 0.00 | 0.00 | 0.00 | 1 | 1016.4 |
| 20260830083704 | 26 | 50 | 6.4 | 14.5 | 0.00 | 0.00 | 0.00 | 1 | 1016.4 |
| 20260830083604 | 26 | 50 | 6.4 | 14.5 | 0.00 | 0.00 | 0.00 | 1 | 1016.4 |
| 20260830083504 | 26 | 52 | 6.4 | 14.5 | 0.00 | 0.00 | 0.00 | 1 | 1016.4 |
| 20260830083425 | 26 | 52 | 6.4 | 14.5 | 0.00 | 0.00 | 0.00 | 1 | 1016.3 |
| 20260830083304 | 26 | 50 | 6.4 | 14.5 | 0.00 | 0.00 | 0.00 | 1 | 1016.3 |
| 20260830083204 | 26 | 50 | 6.4 | 14.5 | 0.00 | 0.00 | 0.00 | 1 | 1016.3 |
| 20260830083104 | 26 | 52 | 6.4 | 11.3 | 0.00 | 0.00 | 0.00 | 1 | 1016.3 |
| 20260830083004 | 26 | 52 | 6.4 | 11.3 | 0.00 | 0.00 | 0.00 | 1 | 1016.3 |
| 20260830082904 | 26 | 52 | 4.8 | 11.3 | 0.00 | 0.00 | 0.00 | 1 | 1016.3 |
| 20260830082804 | 26 | 51 | 6.4 | 12.9 | 0.00 | 0.00 | 0.00 | 1 | 1016.3 |
| 20260830082704 | 26 | 50 | 6.4 | 12.9 | 0.00 | 0.00 | 0.00 | 1 | 1016.3 |
| 20260830082604 | 26 | 47 | 6.4 | 14.5 | 0.00 | 0.00 | 0.00 | 1 | 1016.3 |
| 20260830082525 | 26 | 46 | 6.4 | 14.5 | 0.00 | 0.00 | 0.00 | 1 | 1016.3 |
| 20260830082404 | 26 | 47 | 6.4 | 14.5 | 0.00 | 0.00 | 0.00 | 1 | 1016.3 |
| 20260830082325 | 26 | 50 | 6.4 | 14.5 | 0.00 | 0.00 | 0.00 | 1 | 1016.3 |
| 20260830082204 | 26 | 52 | 6.4 | 14.5 | 0.00 | 0.00 | 0.00 | 1 | 1016.3 |
| 20260830082104 | 26 | 52 | 6.4 | 14.5 | 0.00 | 0.00 | 0.00 | 1 | 1016.3 |
| 20260830082004 | 26 | 52 | 6.4 | 14.5 | 0.00 | 0.00 | 0.00 | 1 | 1016.3 |
| 20260830081904 | 26 | 52 | 6.4 | 14.5 | 0.00 | 0.00 | 0.00 | 1 | 1016.3 |
| 20260830081804 | 26 | 53 | 6.4 | 14.5 | 0.00 | 0.00 | 0.00 | 1 | 1016.4 |
| 20260830081704 | 26 | 53 | 4.8 | 14.5 | 0.00 | 0.00 | 0.00 | 1 | 1016.4 |
| 20260830081604 | 26 | 54 | 4.8 | 12.9 | 0.00 | 0.00 | 0.00 | 1 | 1016.4 |
| 20260830081504 | 26 | 51 | 4.8 | 17.7 | 0.00 | 0.00 | 0.00 | 1 | 1016.4 |
| 20260830081404 | 26 | 48 | 4.8 | 17.7 | 0.00 | 0.00 | 0.00 | 1 | 1016.4 |
| 20260830081304 | 26 | 45 | 4.8 | 17.7 | 0.00 | 0.00 | 0.00 | 1 | 1016.5 |
| 20260830081204 | 26 | 44 | 6.4 | 17.7 | 0.00 | 0.00 | 0.00 | 1 | 1016.5 |
| 20260830081104 | 27 | 45 | 6.4 | 17.7 | 0.00 | 0.00 | 0.00 | 1 | 1016.5 |
| 20260830081004 | 27 | 45 | 6.4 | 17.7 | 0.00 | 0.00 | 0.00 | 1 | 1016.5 |
| 20260830080925 | 27 | 44 | 6.4 | 17.7 | 0.00 | 0.00 | 0.00 | 1 | 1016.5 |
| 20260830080804 | 27 | 42 | 6.4 | 17.7 | 0.00 | 0.00 | 0.00 | 1 | 1016.5 |
| 20260830080704 | 27 | 43 | 6.4 | 17.7 | 0.00 | 0.00 | 0.00 | 1 | 1016.5 |
| 20260830080604 | 27 | 43 | 6.4 | 17.7 | 0.00 | 0.00 | 0.00 | 1 | 1016.5 |
| 20260830080504 | 27 | 44 | 6.4 | 16.1 | 0.00 | 0.00 | 0.00 | 1 | 1016.4 |
| 20260830080404 | 27 | 45 | 6.4 | 16.1 | 0.00 | 0.00 | 0.00 | 1 | 1016.5 |
| 20260830080304 | 27 | 45 | 6.4 | 16.1 | 0.00 | 0.00 | 0.00 | 1 | 1016.5 |
| 20260830080204 | 27 | 45 | 6.4 | 16.1 | 0.00 | 0.00 | 0.00 | 1 | 1016.5 |
| 20260830080104 | 27 | 44 | 6.4 | 16.1 | 0.00 | 0.00 | 0.00 | 1 | 1016.5 |
| 20260830080004 | 27 | 44 | 8.0 | 16.1 | 0.00 | 0.00 | 0.00 | 1 | 1016.5 |
| 20260830075904 | 27 | 46 | 6.4 | 16.1 | 0.00 | 0.00 | 0.00 | 1 | 1016.5 |
| 20260830075804 | 27 | 48 | 6.4 | 14.5 | 0.00 | 0.00 | 0.00 | 1 | 1016.5 |
| 20260830075704 | 27 | 48 | 8.0 | 14.5 | 0.00 | 0.00 | 0.00 | 1 | 1016.5 |
| 20260830075604 | 27 | 48 | 8.0 | 14.5 | 0.00 | 0.00 | 0.00 | 1 | 1016.5 |
| 20260830075525 | 27 | 48 | 8.0 | 14.5 | 0.00 | 0.00 | 0.00 | 1 | 1016.5 |
| 20260830075425 | 27 | 46 | 8.0 | 14.5 | 0.00 | 0.00 | 0.00 | 1 | 1016.5 |
| 20260830075306 | 27 | 46 | 6.4 | 14.5 | 0.00 | 0.00 | 0.00 | 1 | 1016.5 |
| 20260830075225 | 27 | 45 | 6.4 | 14.5 | 0.00 | 0.00 | 0.00 | 1 | 1016.5 |
| 20260830075104 | 27 | 45 | 6.4 | 14.5 | 0.00 | 0.00 | 0.00 | 1 | 1016.5 |
| 20260830075025 | 27 | 46 | 6.4 | 14.5 | 0.00 | 0.00 | 0.00 | 1 | 1016.6 |
| 20260830074904 | 27 | 46 | 6.4 | 14.5 | 0.00 | 0.00 | 0.00 | 1 | 1016.5 |
| 20260830074804 | 27 | 46 | 6.4 | 14.5 | 0.00 | 0.00 | 0.00 | 1 | 1016.5 |
| 20260830074704 | 27 | 46 | 4.8 | 14.5 | 0.00 | 0.00 | 0.00 | 1 | 1016.5 |
| 20260830074604 | 27 | 47 | 4.8 | 14.5 | 0.00 | 0.00 | 0.00 | 1 | 1016.5 |
| 20260830074504 | 27 | 48 | 4.8 | 14.5 | 0.00 | 0.00 | 0.00 | 1 | 1016.5 |
| 20260830074404 | 27 | 52 | 4.8 | 14.5 | 0.00 | 0.00 | 0.00 | 1 | 1016.6 |
| 20260830074304 | 27 | 54 | 3.2 | 14.5 | 0.00 | 0.00 | 0.00 | 1 | 1016.6 |
| 20260830074204 | 27 | 57 | 3.2 | 11.3 | 0.00 | 0.00 | 0.00 | 1 | 1016.6 |
| 20260830074104 | 27 | 55 | 3.2 | 9.7 | 0.00 | 0.00 | 0.00 | 1 | 1016.6 |
| 20260830074025 | 27 | 51 | 4.8 | 9.7 | 0.00 | 0.00 | 0.00 | 1 | 1016.7 |
| 20260830073904 | 27 | 48 | 4.8 | 9.7 | 0.00 | 0.00 | 0.00 | 1 | 1016.6 |
| 20260830073804 | 27 | 47 | 4.8 | 9.7 | 0.00 | 0.00 | 0.00 | 1 | 1016.6 |
| 20260830073725 | 27 | 47 | 4.8 | 9.7 | 0.00 | 0.00 | 0.00 | 1 | 1016.6 |
| 20260830073604 | 27 | 44 | 4.8 | 12.9 | 0.00 | 0.00 | 0.00 | 1 | 1016.6 |
| 20260830073504 | 27 | 44 | 4.8 | 14.5 | 0.00 | 0.00 | 0.00 | 1 | 1016.6 |
| 20260830073404 | 27 | 43 | 6.4 | 14.5 | 0.00 | 0.00 | 0.00 | 1 | 1016.6 |
| 20260830073325 | 27 | 43 | 6.4 | 14.5 | 0.00 | 0.00 | 0.00 | 1 | 1016.6 |
| 20260830073204 | 27 | 40 | 6.4 | 14.5 | 0.00 | 0.00 | 0.00 | 1 | 1016.7 |
| 20260830073104 | 27 | 42 | 6.4 | 14.5 | 0.00 | 0.00 | 0.00 | 1 | 1016.6 |
| 20260830073004 | 27 | 44 | 6.4 | 14.5 | 0.00 | 0.00 | 0.00 | 1 | 1016.5 |
| 20260830072925 | 27 | 44 | 6.4 | 14.5 | 0.00 | 0.00 | 0.00 | 1 | 1016.6 |
| 20260830072804 | 27 | 45 | 6.4 | 14.5 | 0.00 | 0.00 | 0.00 | 1 | 1016.5 |
| 20260830072704 | 27 | 45 | 6.4 | 14.5 | 0.00 | 0.00 | 0.00 | 1 | 1016.6 |
| 20260830072604 | 27 | 46 | 6.4 | 14.5 | 0.00 | 0.00 | 0.00 | 1 | 1016.6 |
| 20260830072504 | 27 | 45 | 6.4 | 12.9 | 0.00 | 0.00 | 0.00 | 1 | 1016.6 |
| 20260830072404 | 27 | 42 | 6.4 | 12.9 | 0.00 | 0.00 | 0.00 | 1 | 1016.6 |
| 20260830072306 | 27 | 43 | 6.4 | 12.9 | 0.00 | 0.00 | 0.00 | 1 | 1016.6 |
| 20260830072204 | 27 | 44 | 6.4 | 12.9 | 0.00 | 0.00 | 0.00 | 1 | 1016.7 |
| 20260830072104 | 27 | 45 | 6.4 | 12.9 | 0.00 | 0.00 | 0.00 | 1 | 1016.7 |
| 20260830072004 | 27 | 44 | 6.4 | 14.5 | 0.00 | 0.00 | 0.00 | 1 | 1016.7 |
| 20260830071904 | 27 | 44 | 6.4 | 14.5 | 0.00 | 0.00 | 0.00 | 1 | 1016.7 |
| 20260830071804 | 27 | 45 | 6.4 | 14.5 | 0.00 | 0.00 | 0.00 | 1 | 1016.7 |
| 20260830071704 | 27 | 46 | 6.4 | 14.5 | 0.00 | 0.00 | 0.00 | 1 | 1016.7 |
| 20260830071604 | 27 | 47 | 6.4 | 14.5 | 0.00 | 0.00 | 0.00 | 1 | 1016.8 |
| 20260830071504 | 27 | 48 | 4.8 | 14.5 | 0.00 | 0.00 | 0.00 | 1 | 1016.8 |
| 20260830071404 | 27 | 51 | 4.8 | 14.5 | 0.00 | 0.00 | 0.00 | 1 | 1016.8 |
| 20260830071304 | 27 | 50 | 4.8 | 14.5 | 0.00 | 0.00 | 0.00 | 1 | 1016.7 |
| 20260830071204 | 27 | 48 | 4.8 | 14.5 | 0.00 | 0.00 | 0.00 | 1 | 1016.7 |
| 20260830071104 | 27 | 45 | 4.8 | 14.5 | 0.00 | 0.00 | 0.00 | 1 | 1016.7 |
| 20260830071004 | 27 | 45 | 4.8 | 12.9 | 0.00 | 0.00 | 0.00 | 1 | 1016.7 |
| 20260830070925 | 27 | 44 | 4.8 | 12.9 | 0.00 | 0.00 | 0.00 | 1 | 1016.8 |
| 20260830070825 | 27 | 43 | 4.8 | 12.9 | 0.00 | 0.00 | 0.00 | 1 | 1016.8 |
| 20260830070704 | 27 | 42 | 4.8 | 12.9 | 0.00 | 0.00 | 0.00 | 1 | 1016.8 |
| 20260830070625 | 27 | 42 | 4.8 | 12.9 | 0.00 | 0.00 | 0.00 | 1 | 1016.8 |
| 20260830070504 | 27 | 43 | 4.8 | 12.9 | 0.00 | 0.00 | 0.00 | 1 | 1016.7 |
| 20260830070404 | 27 | 43 | 6.4 | 12.9 | 0.00 | 0.00 | 0.00 | 1 | 1016.8 |
| 20260830070304 | 27 | 45 | 6.4 | 12.9 | 0.00 | 0.00 | 0.00 | 1 | 1016.7 |
| 20260830070204 | 27 | 46 | 6.4 | 12.9 | 0.00 | 0.00 | 0.00 | 1 | 1016.8 |
| 20260830070104 | 27 | 47 | 4.8 | 12.9 | 0.00 | 0.00 | 0.00 | 1 | 1016.8 |
| 20260830070004 | 27 | 46 | 4.8 | 12.9 | 0.00 | 0.00 | 0.00 | 1 | 1016.8 |
| 20260830065904 | 27 | 45 | 4.8 | 12.9 | 0.00 | 0.00 | 0.00 | 1 | 1016.8 |
| 20260830065825 | 27 | 43 | 4.8 | 12.9 | 0.00 | 0.00 | 0.00 | 1 | 1016.8 |
| 20260830065704 | 27 | 42 | 4.8 | 12.9 | 0.00 | 0.00 | 0.00 | 1 | 1016.8 |
| 20260830065604 | 27 | 39 | 4.8 | 12.9 | 0.00 | 0.00 | 0.00 | 1 | 1016.8 |
| 20260830065504 | 27 | 37 | 4.8 | 12.9 | 0.00 | 0.00 | 0.00 | 1 | 1016.8 |
| 20260830065404 | 27 | 37 | 4.8 | 12.9 | 0.00 | 0.00 | 0.00 | 1 | 1016.8 |
| 20260830065306 | 27 | 36 | 4.8 | 11.3 | 0.00 | 0.00 | 0.00 | 1 | 1016.7 |
| 20260830065204 | 27 | 35 | 4.8 | 11.3 | 0.00 | 0.00 | 0.00 | 1 | 1016.7 |
| 20260830065104 | 27 | 36 | 6.4 | 11.3 | 0.00 | 0.00 | 0.00 | 1 | 1016.8 |
| 20260830065004 | 27 | 37 | 6.4 | 14.5 | 0.00 | 0.00 | 0.00 | 1 | 1016.7 |
| 20260830064904 | 27 | 39 | 6.4 | 14.5 | 0.00 | 0.00 | 0.00 | 1 | 1016.7 |
| 20260830064804 | 27 | 41 | 6.4 | 14.5 | 0.00 | 0.00 | 0.00 | 1 | 1016.8 |
| 20260830064706 | 27 | 42 | 6.4 | 14.5 | 0.00 | 0.00 | 0.00 | 1 | 1016.7 |
| 20260830064604 | 27 | 43 | 6.4 | 14.5 | 0.00 | 0.00 | 0.00 | 1 | 1016.8 |
| 20260830064504 | 27 | 44 | 6.4 | 14.5 | 0.00 | 0.00 | 0.00 | 1 | 1016.7 |
| 20260830064425 | 27 | 43 | 4.8 | 14.5 | 0.00 | 0.00 | 0.00 | 1 | 1016.7 |
| 20260830064304 | 27 | 44 | 4.8 | 14.5 | 0.00 | 0.00 | 0.00 | 1 | 1016.7 |
| 20260830064225 | 27 | 44 | 4.8 | 14.5 | 0.00 | 0.00 | 0.00 | 1 | 1016.7 |
| 20260830064104 | 27 | 45 | 4.8 | 14.5 | 0.00 | 0.00 | 0.00 | 1 | 1016.7 |
| 20260830064004 | 27 | 46 | 4.8 | 11.3 | 0.00 | 0.00 | 0.00 | 1 | 1016.7 |
| 20260830063904 | 27 | 46 | 4.8 | 9.7 | 0.00 | 0.00 | 0.00 | 1 | 1016.7 |
| 20260830063825 | 27 | 44 | 4.8 | 9.7 | 0.00 | 0.00 | 0.00 | 1 | 1016.7 |
| 20260830063704 | 27 | 42 | 4.8 | 11.3 | 0.00 | 0.00 | 0.00 | 1 | 1016.7 |
| 20260830063604 | 27 | 41 | 4.8 | 11.3 | 0.00 | 0.00 | 0.00 | 1 | 1016.8 |
| 20260830063504 | 27 | 40 | 4.8 | 12.9 | 0.00 | 0.00 | 0.00 | 1 | 1016.7 |
| 20260830063404 | 27 | 40 | 4.8 | 12.9 | 0.00 | 0.00 | 0.00 | 1 | 1016.7 |
| 20260830063304 | 27 | 37 | 4.8 | 12.9 | 0.00 | 0.00 | 0.00 | 1 | 1016.8 |
| 20260830063204 | 27 | 34 | 4.8 | 12.9 | 0.00 | 0.00 | 0.00 | 1 | 1016.8 |
| 20260830063104 | 27 | 32 | 6.4 | 12.9 | 0.00 | 0.00 | 0.00 | 1 | 1016.8 |
| 20260830063025 | 27 | 32 | 4.8 | 12.9 | 0.00 | 0.00 | 0.00 | 1 | 1016.7 |
| 20260830062925 | 27 | 31 | 4.8 | 12.9 | 0.00 | 0.00 | 0.00 | 1 | 1016.8 |
| 20260830062804 | 27 | 30 | 4.8 | 12.9 | 0.00 | 0.00 | 0.00 | 1 | 1016.7 |
| 20260830062704 | 27 | 30 | 4.8 | 12.9 | 0.00 | 0.00 | 0.00 | 1 | 1016.8 |
| 20260830062604 | 27 | 31 | 4.8 | 12.9 | 0.00 | 0.00 | 0.00 | 1 | 1016.8 |
| 20260830062504 | 27 | 30 | 4.8 | 11.3 | 0.00 | 0.00 | 0.00 | 1 | 1016.8 |
| 20260830062404 | 27 | 27 | 4.8 | 11.3 | 0.00 | 0.00 | 0.00 | 1 | 1016.8 |
| 20260830062306 | 27 | 25 | 3.2 | 11.3 | 0.00 | 0.00 | 0.00 | 1 | 1016.7 |
| 20260830062204 | 27 | 24 | 3.2 | 11.3 | 0.00 | 0.00 | 0.00 | 1 | 1016.7 |
| 20260830062104 | 28 | 26 | 3.2 | 9.7 | 0.00 | 0.00 | 0.00 | 1 | 1016.8 |
| 20260830062004 | 28 | 26 | 3.2 | 11.3 | 0.00 | 0.00 | 0.00 | 1 | 1016.8 |
| 20260830061904 | 28 | 26 | 3.2 | 11.3 | 0.00 | 0.00 | 0.00 | 1 | 1016.8 |
| 20260830061804 | 28 | 26 | 3.2 | 11.3 | 0.00 | 0.00 | 0.00 | 1 | 1016.8 |
| 20260830061725 | 28 | 26 | 3.2 | 11.3 | 0.00 | 0.00 | 0.00 | 1 | 1016.8 |
| 20260830061604 | 28 | 26 | 3.2 | 11.3 | 0.00 | 0.00 | 0.00 | 1 | 1016.8 |
| 20260830061504 | 28 | 30 | 4.8 | 11.3 | 0.00 | 0.00 | 0.00 | 1 | 1016.8 |
| 20260830061425 | 28 | 31 | 4.8 | 11.3 | 0.00 | 0.00 | 0.00 | 1 | 1016.8 |
| 20260830061304 | 28 | 34 | 4.8 | 11.3 | 0.00 | 0.00 | 0.00 | 1 | 1016.8 |
| 20260830061204 | 28 | 37 | 4.8 | 11.3 | 0.00 | 0.00 | 0.00 | 1 | 1016.8 |
| 20260830061104 | 28 | 38 | 4.8 | 11.3 | 0.00 | 0.00 | 0.00 | 1 | 1016.8 |
| 20260830061004 | 28 | 39 | 4.8 | 9.7 | 0.00 | 0.00 | 0.00 | 1 | 1016.7 |
| 20260830060904 | 28 | 39 | 4.8 | 9.7 | 0.00 | 0.00 | 0.00 | 1 | 1016.8 |
| 20260830060825 | 28 | 40 | 4.8 | 9.7 | 0.00 | 0.00 | 0.00 | 1 | 1016.7 |
| 20260830060704 | 28 | 41 | 4.8 | 9.7 | 0.00 | 0.00 | 0.00 | 1 | 1016.8 |
| 20260830060604 | 28 | 43 | 4.8 | 9.7 | 0.00 | 0.00 | 0.00 | 1 | 1016.8 |
| 20260830060504 | 28 | 43 | 4.8 | 9.7 | 0.00 | 0.00 | 0.00 | 1 | 1016.8 |
| 20260830060425 | 28 | 44 | 4.8 | 9.7 | 0.00 | 0.00 | 0.00 | 1 | 1016.8 |
| 20260830060325 | 28 | 43 | 4.8 | 12.9 | 0.00 | 0.00 | 0.00 | 1 | 1016.7 |
| 20260830060204 | 28 | 43 | 4.8 | 12.9 | 0.00 | 0.00 | 0.00 | 1 | 1016.7 |
| 20260830060104 | 28 | 39 | 4.8 | 12.9 | 0.00 | 0.00 | 0.00 | 1 | 1016.7 |
| 20260830060004 | 28 | 35 | 4.8 | 12.9 | 0.00 | 0.00 | 0.00 | 1 | 1016.7 |
| 20260830055904 | 28 | 30 | 4.8 | 12.9 | 0.00 | 0.00 | 0.00 | 1 | 1016.7 |
| 20260830055804 | 28 | 21 | 4.8 | 12.9 | 0.00 | 0.00 | 0.00 | 1 | 1016.7 |
| 20260830055706 | 28 | 19 | 4.8 | 12.9 | 0.00 | 0.00 | 0.00 | 1 | 1016.7 |
| 20260830055604 | 28 | 15 | 4.8 | 12.9 | 0.00 | 0.00 | 0.00 | 1 | 1016.7 |
| 20260830055504 | 28 | 14 | 4.8 | 12.9 | 0.00 | 0.00 | 0.00 | 1 | 1016.7 |
| 20260830055425 | 28 | 13 | 4.8 | 12.9 | 0.00 | 0.00 | 0.00 | 1 | 1016.7 |
| 20260830055306 | 28 | 12 | 4.8 | 11.3 | 0.00 | 0.00 | 0.00 | 1 | 1016.6 |
| 20260830055204 | 28 | 13 | 4.8 | 11.3 | 0.00 | 0.00 | 0.00 | 1 | 1016.6 |
| 20260830055104 | 28 | 17 | 4.8 | 11.3 | 0.00 | 0.00 | 0.00 | 1 | 1016.6 |
| 20260830055004 | 28 | 21 | 4.8 | 11.3 | 0.00 | 0.00 | 0.00 | 1 | 1016.6 |
| 20260830054904 | 28 | 26 | 4.8 | 14.5 | 0.00 | 0.00 | 0.00 | 1 | 1016.6 |
| 20260830054804 | 28 | 31 | 4.8 | 14.5 | 0.00 | 0.00 | 0.00 | 1 | 1016.6 |
| 20260830054704 | 28 | 34 | 4.8 | 14.5 | 0.00 | 0.00 | 0.00 | 1 | 1016.6 |
| 20260830054604 | 28 | 35 | 4.8 | 14.5 | 0.00 | 0.00 | 0.00 | 1 | 1016.6 |
| 20260830054525 | 28 | 37 | 4.8 | 14.5 | 0.00 | 0.00 | 0.00 | 1 | 1016.6 |
| 20260830054404 | 28 | 39 | 4.8 | 14.5 | 0.00 | 0.00 | 0.00 | 1 | 1016.5 |
| 20260830054304 | 28 | 39 | 4.8 | 14.5 | 0.00 | 0.00 | 0.00 | 1 | 1016.5 |
| 20260830054204 | 28 | 39 | 4.8 | 14.5 | 0.00 | 0.00 | 0.00 | 1 | 1016.5 |
| 20260830054104 | 28 | 39 | 4.8 | 14.5 | 0.00 | 0.00 | 0.00 | 1 | 1016.5 |
| 20260830054004 | 28 | 39 | 4.8 | 14.5 | 0.00 | 0.00 | 0.00 | 1 | 1016.5 |
| 20260830053925 | 28 | 40 | 4.8 | 14.5 | 0.00 | 0.00 | 0.00 | 1 | 1016.4 |
| 20260830053804 | 28 | 42 | 4.8 | 9.7 | 0.00 | 0.00 | 0.00 | 1 | 1016.5 |
| 20260830053725 | 28 | 41 | 4.8 | 9.7 | 0.00 | 0.00 | 0.00 | 1 | 1016.4 |
| 20260830053604 | 28 | 41 | 4.8 | 9.7 | 0.00 | 0.00 | 0.00 | 1 | 1016.4 |
| 20260830053504 | 28 | 40 | 4.8 | 9.7 | 0.00 | 0.00 | 0.00 | 1 | 1016.4 |
| 20260830053404 | 28 | 40 | 3.2 | 9.7 | 0.00 | 0.00 | 0.00 | 1 | 1016.4 |
| 20260830053304 | 28 | 41 | 3.2 | 9.7 | 0.00 | 0.00 | 0.00 | 1 | 1016.4 |
| 20260830053204 | 28 | 41 | 3.2 | 9.7 | 0.00 | 0.00 | 0.00 | 1 | 1016.4 |
| 20260830053104 | 28 | 42 | 3.2 | 9.7 | 0.00 | 0.00 | 0.00 | 1 | 1016.4 |
| 20260830053004 | 28 | 44 | 3.2 | 8.0 | 0.00 | 0.00 | 0.00 | 1 | 1016.4 |
| 20260830052904 | 28 | 46 | 3.2 | 8.0 | 0.00 | 0.00 | 0.00 | 1 | 1016.4 |
| 20260830052804 | 28 | 47 | 3.2 | 8.0 | 0.00 | 0.00 | 0.00 | 1 | 1016.4 |
| 20260830052704 | 28 | 48 | 3.2 | 8.0 | 0.00 | 0.00 | 0.00 | 1 | 1016.5 |
| 20260830052604 | 28 | 48 | 3.2 | 8.0 | 0.00 | 0.00 | 0.00 | 1 | 1016.5 |
| 20260830052504 | 28 | 50 | 3.2 | 8.0 | 0.00 | 0.00 | 0.00 | 1 | 1016.4 |
| 20260830052404 | 28 | 50 | 3.2 | 8.0 | 0.00 | 0.00 | 0.00 | 1 | 1016.4 |
| 20260830052306 | 28 | 52 | 3.2 | 8.0 | 0.00 | 0.00 | 0.00 | 1 | 1016.5 |
| 20260830052204 | 28 | 52 | 3.2 | 8.0 | 0.00 | 0.00 | 0.00 | 1 | 1016.4 |
| 20260830052104 | 28 | 51 | 3.2 | 8.0 | 0.00 | 0.00 | 0.00 | 1 | 1016.4 |
| 20260830052004 | 28 | 50 | 3.2 | 8.0 | 0.00 | 0.00 | 0.00 | 1 | 1016.4 |
| 20260830051904 | 28 | 49 | 3.2 | 8.0 | 0.00 | 0.00 | 0.00 | 1 | 1016.4 |
| 20260830051804 | 28 | 49 | 3.2 | 6.4 | 0.00 | 0.00 | 0.00 | 1 | 1016.4 |
| 20260830051704 | 28 | 49 | 3.2 | 6.4 | 0.00 | 0.00 | 0.00 | 1 | 1016.4 |
| 20260830051604 | 28 | 49 | 3.2 | 6.4 | 0.00 | 0.00 | 0.00 | 1 | 1016.4 |
| 20260830051525 | 28 | 49 | 3.2 | 6.4 | 0.00 | 0.00 | 0.00 | 1 | 1016.4 |
| 20260830051404 | 28 | 49 | 3.2 | 9.7 | 0.00 | 0.00 | 0.00 | 1 | 1016.4 |
| 20260830051304 | 28 | 50 | 3.2 | 9.7 | 0.00 | 0.00 | 0.00 | 1 | 1016.4 |
| 20260830051204 | 28 | 52 | 3.2 | 9.7 | 0.00 | 0.00 | 0.00 | 1 | 1016.4 |
| 20260830051104 | 28 | 52 | 3.2 | 9.7 | 0.00 | 0.00 | 0.00 | 1 | 1016.4 |
| 20260830051025 | 28 | 52 | 3.2 | 9.7 | 0.00 | 0.00 | 0.00 | 1 | 1016.4 |
| 20260830050904 | 28 | 51 | 4.8 | 9.7 | 0.00 | 0.00 | 0.00 | 1 | 1016.4 |
| 20260830050805 | 28 | 51 | 4.8 | 9.7 | 0.00 | 0.00 | 0.00 | 1 | 1016.4 |
| 20260830050704 | 28 | 51 | 4.8 | 9.7 | 0.00 | 0.00 | 0.00 | 1 | 1016.4 |
| 20260830050604 | 28 | 51 | 4.8 | 11.3 | 0.00 | 0.00 | 0.00 | 1 | 1016.4 |
| 20260830050504 | 28 | 51 | 4.8 | 11.3 | 0.00 | 0.00 | 0.00 | 1 | 1016.4 |
| 20260830050425 | 28 | 51 | 4.8 | 11.3 | 0.00 | 0.00 | 0.00 | 1 | 1016.4 |
| 20260830050304 | 29 | 51 | 4.8 | 11.3 | 0.00 | 0.00 | 0.00 | 1 | 1016.4 |
| 20260830050204 | 29 | 50 | 3.2 | 11.3 | 0.00 | 0.00 | 0.00 | 1 | 1016.4 |
| 20260830050104 | 29 | 50 | 3.2 | 11.3 | 0.00 | 0.00 | 0.00 | 1 | 1016.4 |
| 20260830050025 | 29 | 51 | 3.2 | 11.3 | 0.00 | 0.00 | 0.00 | 1 | 1016.3 |
| 20260830045904 | 29 | 51 | 3.2 | 11.3 | 0.00 | 0.00 | 0.00 | 1 | 1016.4 |
| 20260830045825 | 29 | 51 | 3.2 | 11.3 | 0.00 | 0.00 | 0.00 | 1 | 1016.4 |
| 20260830045704 | 29 | 49 | 4.8 | 11.3 | 0.00 | 0.00 | 0.00 | 1 | 1016.4 |
| 20260830045604 | 29 | 49 | 3.2 | 9.7 | 0.00 | 0.00 | 0.00 | 1 | 1016.4 |
| 20260830045504 | 29 | 49 | 3.2 | 9.7 | 0.00 | 0.00 | 0.00 | 1 | 1016.4 |
| 20260830045404 | 29 | 50 | 4.8 | 9.7 | 0.00 | 0.00 | 0.00 | 1 | 1016.4 |
| 20260830045306 | 29 | 50 | 4.8 | 9.7 | 0.00 | 0.00 | 0.00 | 1 | 1016.4 |
| 20260830045204 | 29 | 49 | 3.2 | 9.7 | 0.00 | 0.00 | 0.00 | 1 | 1016.4 |
| 20260830045104 | 29 | 50 | 3.2 | 9.7 | 0.00 | 0.00 | 0.00 | 1 | 1016.4 |
| 20260830045004 | 29 | 48 | 3.2 | 9.7 | 0.00 | 0.00 | 0.00 | 1 | 1016.5 |
| 20260830044904 | 29 | 48 | 3.2 | 9.7 | 0.00 | 0.00 | 0.00 | 1 | 1016.5 |
| 20260830044804 | 29 | 46 | 3.2 | 9.7 | 0.00 | 0.00 | 0.00 | 1 | 1016.5 |
| 20260830044704 | 29 | 47 | 3.2 | 9.7 | 0.00 | 0.00 | 0.00 | 1 | 1016.5 |
| 20260830044604 | 29 | 44 | 3.2 | 9.7 | 0.00 | 0.00 | 0.00 | 1 | 1016.5 |
| 20260830044504 | 29 | 32 | 3.2 | 9.7 | 0.00 | 0.00 | 0.00 | 1 | 1016.5 |
| 20260830044425 | 29 | 26 | 3.2 | 9.7 | 0.00 | 0.00 | 0.00 | 1 | 1016.5 |
| 20260830044304 | 29 | 6 | 3.2 | 9.7 | 0.00 | 0.00 | 0.00 | 1 | 1016.5 |
| 20260830044204 | 29 | 353 | 3.2 | 9.7 | 0.00 | 0.00 | 0.00 | 1 | 1016.5 |
| 20260830044104 | 29 | 343 | 3.2 | 9.7 | 0.00 | 0.00 | 0.00 | 1 | 1016.5 |
| 20260830044025 | 29 | 339 | 3.2 | 9.7 | 0.00 | 0.00 | 0.00 | 1 | 1016.5 |
| 20260830043904 | 29 | 329 | 3.2 | 9.7 | 0.00 | 0.00 | 0.00 | 1 | 1016.5 |
| 20260830043825 | 29 | 326 | 4.8 | 9.7 | 0.00 | 0.00 | 0.00 | 1 | 1016.5 |
| 20260830043704 | 29 | 323 | 4.8 | 9.7 | 0.00 | 0.00 | 0.00 | 1 | 1016.5 |
| 20260830043604 | 29 | 320 | 3.2 | 9.7 | 0.00 | 0.00 | 0.00 | 1 | 1016.5 |
| 20260830043504 | 29 | 324 | 3.2 | 9.7 | 0.00 | 0.00 | 0.00 | 1 | 1016.4 |
| 20260830043404 | 29 | 333 | 3.2 | 9.7 | 0.00 | 0.00 | 0.00 | 1 | 1016.5 |
| 20260830043304 | 29 | 345 | 3.2 | 9.7 | 0.00 | 0.00 | 0.00 | 1 | 1016.5 |
| 20260830043204 | 29 | 360 | 3.2 | 9.7 | 0.00 | 0.00 | 0.00 | 1 | 1016.5 |
| 20260830043104 | 29 | 15 | 3.2 | 9.7 | 0.00 | 0.00 | 0.00 | 1 | 1016.4 |
| 20260830043004 | 29 | 31 | 3.2 | 9.7 | 0.00 | 0.00 | 0.00 | 1 | 1016.4 |
| 20260830042904 | 29 | 38 | 3.2 | 9.7 | 0.00 | 0.00 | 0.00 | 1 | 1016.4 |
| 20260830042804 | 29 | 49 | 3.2 | 9.7 | 0.00 | 0.00 | 0.00 | 2 | 1016.5 |
| 20260830042725 | 29 | 53 | 3.2 | 9.7 | 0.00 | 0.00 | 0.00 | 2 | 1016.4 |
| 20260830042604 | 29 | 56 | 3.2 | 6.4 | 0.00 | 0.00 | 0.00 | 2 | 1016.4 |
| 20260830042525 | 29 | 56 | 3.2 | 6.4 | 0.00 | 0.00 | 0.00 | 2 | 1016.4 |
| 20260830042425 | 29 | 56 | 3.2 | 6.4 | 0.00 | 0.00 | 0.00 | 3 | 1016.4 |
| 20260830042306 | 29 | 55 | 3.2 | 6.4 | 0.00 | 0.00 | 0.00 | 3 | 1016.4 |
| 20260830042204 | 29 | 54 | 3.2 | 6.4 | 0.00 | 0.00 | 0.00 | 4 | 1016.4 |
| 20260830042125 | 29 | 54 | 3.2 | 6.4 | 0.00 | 0.00 | 0.00 | 4 | 1016.5 |
| 20260830042004 | 29 | 49 | 3.2 | 9.7 | 0.00 | 0.00 | 0.00 | 4 | 1016.5 |
| 20260830041904 | 29 | 44 | 3.2 | 9.7 | 0.00 | 0.00 | 0.00 | 4 | 1016.5 |
| 20260830041804 | 29 | 38 | 3.2 | 9.7 | 0.00 | 0.00 | 0.00 | 4 | 1016.5 |
| 20260830041604 | 29 | 21 | 3.2 | 9.7 | 0.00 | 0.00 | 0.00 | 6 | 1016.5 |
| 20260830041525 | 29 | 14 | 3.2 | 9.7 | 0.00 | 0.00 | 0.00 | 6 | 1016.5 |
| 20260830041404 | 29 | 358 | 3.2 | 9.7 | 0.00 | 0.00 | 0.00 | 6 | 1016.5 |
| 20260830041304 | 29 | 344 | 3.2 | 9.7 | 0.00 | 0.00 | 0.00 | 6 | 1016.5 |
| 20260830041204 | 29 | 333 | 3.2 | 9.7 | 0.00 | 0.00 | 0.00 | 7 | 1016.5 |
| 20260830041125 | 29 | 322 | 1.6 | 9.7 | 0.00 | 0.00 | 0.00 | 7 | 1016.5 |
| 20260830041004 | 29 | 308 | 1.6 | 8.0 | 0.00 | 0.00 | 0.00 | 9 | 1016.5 |
| 20260830040904 | 29 | 307 | 1.6 | 8.0 | 0.00 | 0.00 | 0.00 | 9 | 1016.5 |
| 20260830040804 | 29 | 307 | 1.6 | 8.0 | 0.00 | 0.00 | 0.00 | 10 | 1016.5 |
| 20260830040704 | 29 | 307 | 1.6 | 8.0 | 0.00 | 0.00 | 0.00 | 11 | 1016.5 |
| 20260830040604 | 29 | 306 | 1.6 | 8.0 | 0.00 | 0.00 | 0.00 | 11 | 1016.5 |
| 20260830040504 | 29 | 306 | 1.6 | 8.0 | 0.00 | 0.00 | 0.00 | 12 | 1016.5 |
| 20260830040404 | 29 | 305 | 1.6 | 8.0 | 0.00 | 0.00 | 0.00 | 13 | 1016.5 |
| 20260830040304 | 29 | 305 | 1.6 | 8.0 | 0.00 | 0.00 | 0.00 | 14 | 1016.5 |
| 20260830040225 | 29 | 304 | 1.6 | 8.0 | 0.00 | 0.00 | 0.00 | 14 | 1016.5 |
| 20260830040104 | 29 | 303 | 1.6 | 8.0 | 0.00 | 0.00 | 0.00 | 14 | 1016.5 |
| 20260830040004 | 29 | 303 | 3.2 | 8.0 | 0.00 | 0.00 | 0.00 | 15 | 1016.5 |
| 20260830035904 | 30 | 302 | 3.2 | 8.0 | 0.00 | 0.00 | 0.00 | 16 | 1016.4 |
| 20260830035804 | 30 | 301 | 3.2 | 9.7 | 0.00 | 0.00 | 0.00 | 17 | 1016.4 |
| 20260830035725 | 30 | 300 | 3.2 | 9.7 | 0.00 | 0.00 | 0.00 | 18 | 1016.4 |
| 20260830035625 | 30 | 299 | 3.2 | 9.7 | 0.00 | 0.00 | 0.00 | 18 | 1016.4 |
| 20260830035504 | 30 | 298 | 3.2 | 9.7 | 0.00 | 0.00 | 0.00 | 19 | 1016.4 |
| 20260830035404 | 30 | 296 | 3.2 | 9.7 | 0.00 | 0.00 | 0.00 | 19 | 1016.5 |
| 20260830035325 | 30 | 295 | 3.2 | 9.7 | 0.00 | 0.00 | 0.00 | 19 | 1016.4 |
| 20260830035204 | 30 | 293 | 3.2 | 9.7 | 0.00 | 0.00 | 0.00 | 20 | 1016.4 |
| 20260830035104 | 30 | 292 | 3.2 | 9.7 | 0.00 | 0.00 | 0.00 | 21 | 1016.4 |
| 20260830035004 | 30 | 290 | 3.2 | 9.7 | 0.00 | 0.00 | 0.00 | 22 | 1016.3 |
| 20260830034904 | 30 | 288 | 3.2 | 9.7 | 0.00 | 0.00 | 0.00 | 22 | 1016.4 |
| 20260830034825 | 30 | 287 | 3.2 | 9.7 | 0.00 | 0.00 | 0.00 | 23 | 1016.4 |
| 20260830034725 | 30 | 286 | 1.6 | 9.7 | 0.00 | 0.00 | 0.00 | 24 | 1016.4 |
| 20260830034604 | 30 | 285 | 3.2 | 9.7 | 0.00 | 0.00 | 0.00 | 25 | 1016.4 |
| 20260830034504 | 30 | 284 | 3.2 | 9.7 | 0.00 | 0.00 | 0.00 | 27 | 1016.4 |
| 20260830034425 | 30 | 283 | 1.6 | 8.0 | 0.00 | 0.00 | 0.00 | 27 | 1016.4 |
| 20260830034304 | 30 | 282 | 1.6 | 8.0 | 0.00 | 0.00 | 0.00 | 28 | 1016.4 |
| 20260830034204 | 30 | 281 | 1.6 | 8.0 | 0.00 | 0.00 | 0.00 | 30 | 1016.5 |
| 20260830034104 | 30 | 281 | 1.6 | 8.0 | 0.00 | 0.00 | 0.00 | 30 | 1016.5 |
| 20260830034004 | 30 | 281 | 1.6 | 8.0 | 0.00 | 0.00 | 0.00 | 31 | 1016.5 |
| 20260830033904 | 30 | 281 | 1.6 | 8.0 | 0.00 | 0.00 | 0.00 | 32 | 1016.4 |
| 20260830033825 | 30 | 280 | 1.6 | 8.0 | 0.00 | 0.00 | 0.00 | 32 | 1016.5 |
| 20260830033704 | 30 | 280 | 3.2 | 8.0 | 0.00 | 0.00 | 0.00 | 33 | 1016.5 |
| 20260830033604 | 30 | 280 | 1.6 | 8.0 | 0.00 | 0.00 | 0.00 | 34 | 1016.5 |
| 20260830033504 | 30 | 280 | 1.6 | 8.0 | 0.00 | 0.00 | 0.00 | 35 | 1016.5 |
| 20260830033404 | 30 | 280 | 3.2 | 8.0 | 0.00 | 0.00 | 0.00 | 35 | 1016.5 |
| 20260830033304 | 30 | 280 | 3.2 | 8.0 | 0.00 | 0.00 | 0.00 | 36 | 1016.5 |
| 20260830033225 | 30 | 281 | 3.2 | 8.0 | 0.00 | 0.00 | 0.00 | 37 | 1016.5 |
| 20260830033104 | 30 | 282 | 3.2 | 8.0 | 0.00 | 0.00 | 0.00 | 37 | 1016.5 |
| 20260830033004 | 30 | 283 | 3.2 | 8.0 | 0.00 | 0.00 | 0.00 | 39 | 1016.5 |
| 20260830032925 | 30 | 283 | 3.2 | 9.7 | 0.00 | 0.00 | 0.00 | 39 | 1016.5 |
| 20260830032804 | 30 | 283 | 3.2 | 9.7 | 0.00 | 0.00 | 0.00 | 40 | 1016.5 |
| 20260830032704 | 30 | 283 | 3.2 | 9.7 | 0.00 | 0.00 | 0.00 | 40 | 1016.5 |
| 20260830032604 | 30 | 284 | 3.2 | 9.7 | 0.00 | 0.00 | 0.00 | 41 | 1016.5 |
| 20260830032504 | 30 | 285 | 3.2 | 9.7 | 0.00 | 0.00 | 0.00 | 42 | 1016.5 |
| 20260830032404 | 30 | 286 | 3.2 | 9.7 | 0.00 | 0.00 | 0.00 | 42 | 1016.4 |
| 20260830032325 | 30 | 286 | 3.2 | 9.7 | 0.00 | 0.00 | 0.00 | 42 | 1016.4 |
| 20260830032204 | 30 | 286 | 3.2 | 9.7 | 0.00 | 0.00 | 0.00 | 43 | 1016.4 |
| 20260830032104 | 30 | 286 | 3.2 | 9.7 | 0.00 | 0.00 | 0.00 | 43 | 1016.4 |
| 20260830032004 | 30 | 286 | 3.2 | 9.7 | 0.00 | 0.00 | 0.00 | 44 | 1016.3 |
| 20260830031904 | 30 | 287 | 3.2 | 6.4 | 0.00 | 0.00 | 0.00 | 44 | 1016.3 |
| 20260830031825 | 30 | 288 | 3.2 | 6.4 | 0.00 | 0.00 | 0.00 | 44 | 1016.3 |
| 20260830031704 | 30 | 288 | 3.2 | 6.4 | 0.00 | 0.00 | 0.00 | 44 | 1016.3 |
| 20260830031625 | 30 | 288 | 3.2 | 9.7 | 0.00 | 0.00 | 0.00 | 45 | 1016.2 |
| 20260830031504 | 30 | 284 | 3.2 | 9.7 | 0.00 | 0.00 | 0.00 | 45 | 1016.2 |
| 20260830031404 | 30 | 280 | 3.2 | 9.7 | 0.00 | 0.00 | 0.00 | 45 | 1016.2 |
| 20260830031304 | 30 | 277 | 3.2 | 9.7 | 0.00 | 0.00 | 0.00 | 45 | 1016.2 |
| 20260830031204 | 30 | 273 | 3.2 | 9.7 | 0.00 | 0.00 | 0.00 | 45 | 1016.2 |
| 20260830031104 | 30 | 271 | 3.2 | 9.7 | 0.00 | 0.00 | 0.00 | 45 | 1016.2 |
| 20260830031004 | 30 | 270 | 3.2 | 9.7 | 0.00 | 0.00 | 0.00 | 46 | 1016.2 |
| 20260830030904 | 30 | 271 | 4.8 | 9.7 | 0.00 | 0.00 | 0.00 | 46 | 1016.1 |
| 20260830030804 | 30 | 271 | 4.8 | 9.7 | 0.00 | 0.00 | 0.00 | 46 | 1016.1 |
| 20260830030706 | 30 | 270 | 4.8 | 9.7 | 0.00 | 0.00 | 0.00 | 46 | 1016.2 |
| 20260830030604 | 31 | 272 | 4.8 | 9.7 | 0.00 | 0.00 | 0.00 | 46 | 1016.1 |
| 20260830030525 | 31 | 272 | 4.8 | 9.7 | 0.00 | 0.00 | 0.00 | 46 | 1016.1 |
| 20260830030404 | 31 | 277 | 4.8 | 9.7 | 0.00 | 0.00 | 0.00 | 46 | 1016.1 |
| 20260830030325 | 31 | 278 | 4.8 | 9.7 | 0.00 | 0.00 | 0.00 | 46 | 1016.1 |
| 20260830030204 | 31 | 279 | 4.8 | 9.7 | 0.00 | 0.00 | 0.00 | 47 | 1016.1 |
| 20260830030104 | 31 | 280 | 4.8 | 9.7 | 0.00 | 0.00 | 0.00 | 47 | 1016.1 |
| 20260830030004 | 31 | 279 | 4.8 | 9.7 | 0.00 | 0.00 | 0.00 | 47 | 1016.0 |
| 20260830025925 | 31 | 277 | 4.8 | 9.7 | 0.00 | 0.00 | 0.00 | 47 | 1016.0 |
| 20260830025804 | 31 | 280 | 4.8 | 9.7 | 0.00 | 0.00 | 0.00 | 47 | 1016.0 |
| 20260830025704 | 31 | 286 | 4.8 | 11.3 | 0.00 | 0.00 | 0.00 | 47 | 1016.0 |
| 20260830025604 | 31 | 290 | 4.8 | 12.9 | 0.00 | 0.00 | 0.00 | 47 | 1016.0 |
| 20260830025504 | 31 | 291 | 4.8 | 12.9 | 0.00 | 0.00 | 0.00 | 47 | 1016.0 |
| 20260830025404 | 31 | 288 | 4.8 | 12.9 | 0.00 | 0.00 | 0.00 | 47 | 1016.0 |
| 20260830025306 | 31 | 292 | 4.8 | 12.9 | 0.00 | 0.00 | 0.00 | 47 | 1016.0 |
| 20260830025204 | 31 | 301 | 4.8 | 12.9 | 0.00 | 0.00 | 0.00 | 47 | 1016.0 |
| 20260830025125 | 31 | 307 | 4.8 | 12.9 | 0.00 | 0.00 | 0.00 | 47 | 1015.9 |